Time,TemperatureF,DewpointF,PressureIn,WindDirection,WindDirectionDegrees,WindSpeedMPH,WindSpeedGustMPH,Humidity,HourlyPrecipIn,Conditions,Clouds,dailyrainin,SoftwareType,DateUTC
2013-06-26 00:00:00,78.8,61.8,30.21,East,81,0.0,0.0,56,0.00,,---,0.20,VWS V15.00,2013-06-26 04:00:00,
2013-06-26 00:01:00,79.0,61.5,30.18,East,80,0.0,0.0,55,0.00,,---,0.00,VWS V14.01,2013-06-26 04:01:00,
2013-06-26 00:02:00,79.0,61.5,30.18,East,80,0.0,0.0,55,0.00,,---,0.00,VWS V14.01,2013-06-26 04:02:00,
2013-06-26 00:03:00,79.0,61.5,30.18,East,80,0.0,0.0,55,0.00,,---,0.00,VWS V14.01,2013-06-26 04:03:00,
2013-06-26 00:04:00,78.6,62.6,30.18,East,81,0.0,0.0,58,0.00,,---,0.20,VWS V15.00,2013-06-26 04:04:00,
2013-06-26 00:05:00,78.6,62.6,30.18,East,83,0.0,0.0,58,0.00,,---,0.20,VWS V15.00,2013-06-26 04:05:00,
2013-06-26 00:06:00,78.6,62.1,30.18,East,83,0.0,0.0,57,0.00,,---,0.20,VWS V15.00,2013-06-26 04:06:00,
2013-06-26 00:07:00,78.6,62.1,30.18,East,83,0.0,0.0,57,0.00,,---,0.20,VWS V15.00,2013-06-26 04:07:00,
2013-06-26 00:08:00,79.0,62.0,30.21,East,101,0.0,0.0,56,0.00,,---,0.00,VWS V14.01,2013-06-26 04:08:00,
2013-06-26 00:09:00,78.8,62.3,30.18,East,81,0.0,4.0,57,0.00,,---,0.20,VWS V15.00,2013-06-26 04:09:00,
2013-06-26 00:10:00,78.8,62.3,30.18,East,81,0.0,0.0,57,0.00,,---,0.20,VWS V15.00,2013-06-26 04:10:00,
2013-06-26 00:11:00,78.8,62.3,30.18,East,81,0.0,0.0,57,0.00,,---,0.20,VWS V15.00,2013-06-26 04:11:00,
2013-06-26 00:12:00,78.8,62.3,30.18,SE,135,4.0,4.0,57,0.00,,---,0.20,VWS V15.00,2013-06-26 04:12:00,
2013-06-26 00:13:00,79.0,62.0,30.21,ESE,115,0.0,3.6,56,0.00,,---,0.00,VWS V14.01,2013-06-26 04:13:00,
2013-06-26 00:14:00,78.8,62.3,30.18,SE,130,2.7,4.0,57,0.00,,---,0.20,VWS V15.00,2013-06-26 04:14:00,
2013-06-26 00:15:00,78.8,62.3,30.18,SE,130,2.7,2.7,57,0.00,,---,0.20,VWS V15.00,2013-06-26 04:15:00,
2013-06-26 00:16:00,79.2,61.6,30.18,ESE,121,3.6,3.6,55,0.00,,---,0.20,VWS V15.00,2013-06-26 04:16:00,
2013-06-26 00:17:00,79.2,61.6,30.21,ESE,121,3.6,3.6,55,0.00,,---,0.20,VWS V15.00,2013-06-26 04:17:00,
2013-06-26 00:18:00,79.3,60.7,30.21,East,87,0.0,0.0,53,0.00,,---,0.00,VWS V14.01,2013-06-26 04:18:00,
2013-06-26 00:19:00,79.2,61.6,30.21,East,90,2.7,2.7,55,0.00,,---,0.20,VWS V15.00,2013-06-26 04:19:00,
2013-06-26 00:20:00,79.2,61.6,30.21,East,90,2.7,2.7,55,0.00,,---,0.20,VWS V15.00,2013-06-26 04:20:00,
2013-06-26 00:21:00,79.5,60.4,30.21,SE,144,3.1,3.1,52,0.00,,---,0.20,VWS V15.00,2013-06-26 04:21:00,
2013-06-26 00:22:00,79.5,60.4,30.21,SE,125,3.6,3.6,52,0.00,,---,0.20,VWS V15.00,2013-06-26 04:22:00,
2013-06-26 00:23:00,79.2,61.1,30.21,ESE,117,0.0,0.0,54,0.00,,---,0.00,VWS V14.01,2013-06-26 04:23:00,
2013-06-26 00:24:00,79.5,60.4,30.21,ESE,109,0.0,2.7,52,0.00,,---,0.20,VWS V15.00,2013-06-26 04:24:00,
2013-06-26 00:25:00,79.5,60.4,30.21,ESE,108,3.6,3.6,52,0.00,,---,0.20,VWS V15.00,2013-06-26 04:25:00,
2013-06-26 00:26:00,79.5,60.4,30.21,ESE,116,2.2,3.6,52,0.00,,---,0.20,VWS V15.00,2013-06-26 04:26:00,
2013-06-26 00:27:00,79.5,60.4,30.21,ESE,116,2.2,2.2,52,0.00,,---,0.20,VWS V15.00,2013-06-26 04:27:00,
2013-06-26 00:28:00,79.2,61.6,30.21,ESE,104,2.7,2.7,55,0.00,,---,0.00,VWS V14.01,2013-06-26 04:28:00,
2013-06-26 00:29:00,79.3,60.7,30.21,East,92,2.2,2.2,53,0.00,,---,0.20,VWS V15.00,2013-06-26 04:29:00,
2013-06-26 00:30:00,79.3,60.7,30.21,East,92,3.6,3.6,53,0.00,,---,0.20,VWS V15.00,2013-06-26 04:30:00,
2013-06-26 00:31:00,79.3,60.7,30.21,East,87,3.6,4.0,53,0.00,,---,0.20,VWS V15.00,2013-06-26 04:31:00,
2013-06-26 00:32:00,79.3,60.7,30.21,East,87,3.6,3.6,53,0.00,,---,0.20,VWS V15.00,2013-06-26 04:32:00,
2013-06-26 00:33:00,79.0,61.5,30.21,ESE,104,0.0,0.0,55,0.00,,---,0.00,VWS V14.01,2013-06-26 04:33:00,
2013-06-26 00:34:00,79.5,60.9,30.21,SE,136,3.6,3.6,53,0.00,,---,0.20,VWS V15.00,2013-06-26 04:34:00,
2013-06-26 00:35:00,79.5,60.9,30.21,SE,136,3.6,3.6,53,0.00,,---,0.20,VWS V15.00,2013-06-26 04:35:00,
2013-06-26 00:36:00,79.5,60.9,30.18,East,99,0.0,3.6,53,0.00,,---,0.20,VWS V15.00,2013-06-26 04:36:00,
2013-06-26 00:37:00,79.5,60.9,30.18,East,99,0.0,0.0,53,0.00,,---,0.20,VWS V15.00,2013-06-26 04:37:00,
2013-06-26 00:38:00,79.0,61.5,30.18,NE,47,0.0,0.0,55,0.00,,---,0.00,VWS V14.01,2013-06-26 04:38:00,
2013-06-26 00:39:00,79.3,60.7,30.18,East,99,0.0,0.0,53,0.00,,---,0.20,VWS V15.00,2013-06-26 04:39:00,
2013-06-26 00:40:00,79.3,60.7,30.18,East,96,2.7,2.7,53,0.00,,---,0.20,VWS V15.00,2013-06-26 04:40:00,
2013-06-26 00:41:00,79.3,61.8,30.18,East,96,2.7,2.7,55,0.00,,---,0.20,VWS V15.00,2013-06-26 04:41:00,
2013-06-26 00:42:00,79.3,61.8,30.18,East,86,3.6,3.6,55,0.00,,---,0.20,VWS V15.00,2013-06-26 04:42:00,
2013-06-26 00:43:00,78.8,63.8,30.18,East,83,0.0,0.0,60,0.00,,---,0.00,VWS V14.01,2013-06-26 04:43:00,
2013-06-26 00:44:00,79.3,61.3,30.18,ESE,113,4.9,4.9,54,0.00,,---,0.20,VWS V15.00,2013-06-26 04:44:00,
2013-06-26 00:45:00,79.3,61.3,30.18,ESE,122,0.0,4.9,54,0.00,,---,0.20,VWS V15.00,2013-06-26 04:45:00,
2013-06-26 00:46:00,79.3,61.3,30.18,ESE,122,0.0,0.0,54,0.00,,---,0.20,VWS V15.00,2013-06-26 04:46:00,
2013-06-26 00:47:00,79.2,61.1,30.18,ESE,122,0.0,0.0,54,0.00,,---,0.20,VWS V15.00,2013-06-26 04:47:00,
2013-06-26 00:48:00,78.8,63.8,30.18,East,83,0.0,0.0,60,0.00,,---,0.00,VWS V14.01,2013-06-26 04:48:00,
2013-06-26 00:49:00,79.3,61.3,30.18,ESE,122,2.7,2.7,54,0.00,,---,0.20,VWS V15.00,2013-06-26 04:49:00,
2013-06-26 00:50:00,79.3,61.3,30.18,ESE,122,2.7,2.7,54,0.00,,---,0.20,VWS V15.00,2013-06-26 04:50:00,
2013-06-26 00:51:00,79.3,61.3,30.18,ESE,122,2.7,2.7,54,0.00,,---,0.20,VWS V15.00,2013-06-26 04:51:00,
2013-06-26 00:52:00,79.3,61.3,30.18,ESE,112,2.7,2.7,54,0.00,,---,0.20,VWS V15.00,2013-06-26 04:52:00,
2013-06-26 00:53:00,79.3,61.3,30.18,ENE,57,2.7,2.7,54,0.00,,---,0.20,VWS V15.00,2013-06-26 04:53:00,
2013-06-26 00:54:00,78.6,63.6,30.18,East,83,0.0,0.0,60,0.00,,---,0.00,VWS V14.01,2013-06-26 04:54:00,
2013-06-26 00:55:00,79.2,61.1,30.18,ENE,57,2.7,2.7,54,0.00,,---,0.20,VWS V15.00,2013-06-26 04:55:00,
2013-06-26 00:56:00,79.2,61.6,30.18,ENE,57,2.7,2.7,55,0.00,,---,0.20,VWS V15.00,2013-06-26 04:56:00,
2013-06-26 00:57:00,79.2,61.6,30.18,ENE,57,2.7,2.7,55,0.00,,---,0.20,VWS V15.00,2013-06-26 04:57:00,
2013-06-26 00:58:00,79.2,61.6,30.18,East,80,0.0,2.7,55,0.00,,---,0.20,VWS V15.00,2013-06-26 04:58:00,
2013-06-26 00:59:00,78.4,64.3,30.18,East,83,0.0,0.0,62,0.00,,---,0.00,VWS V14.01,2013-06-26 04:59:00,
2013-06-26 01:00:00,79.0,61.5,30.18,East,80,0.0,0.0,55,0.00,,---,0.00,VWS V15.00,2013-06-26 05:00:00,
2013-06-26 01:01:00,79.0,61.5,30.18,East,80,0.0,0.0,55,0.00,,---,0.00,VWS V15.00,2013-06-26 05:01:00,
2013-06-26 01:02:00,79.0,61.5,30.18,East,80,0.0,0.0,55,0.00,,---,0.00,VWS V15.00,2013-06-26 05:02:00,
2013-06-26 01:03:00,79.0,61.5,30.18,East,80,0.0,0.0,55,0.00,,---,0.00,VWS V15.00,2013-06-26 05:03:00,
2013-06-26 01:04:00,78.4,65.3,30.18,East,83,0.0,0.0,64,0.00,,---,0.00,VWS V14.01,2013-06-26 05:04:00,
2013-06-26 01:05:00,79.0,62.5,30.21,ENE,66,2.7,2.7,57,0.00,,---,0.00,VWS V15.00,2013-06-26 05:05:00,
2013-06-26 01:06:00,79.0,62.0,30.21,ENE,66,2.7,2.7,56,0.00,,---,0.00,VWS V15.00,2013-06-26 05:06:00,
2013-06-26 01:07:00,79.0,62.0,30.21,East,101,0.0,2.7,56,0.00,,---,0.00,VWS V15.00,2013-06-26 05:07:00,
2013-06-26 01:08:00,79.0,62.0,30.21,East,101,0.0,0.0,56,0.00,,---,0.00,VWS V15.00,2013-06-26 05:08:00,
2013-06-26 01:09:00,78.6,65.9,30.18,East,83,0.0,0.0,65,0.00,,---,0.00,VWS V14.01,2013-06-26 05:09:00,
2013-06-26 01:10:00,79.0,62.0,30.21,ESE,112,3.6,3.6,56,0.00,,---,0.00,VWS V15.00,2013-06-26 05:10:00,
2013-06-26 01:11:00,79.0,62.0,30.21,ESE,112,3.6,3.6,56,0.00,,---,0.00,VWS V15.00,2013-06-26 05:11:00,
2013-06-26 01:12:00,79.0,62.0,30.21,ESE,112,3.6,3.6,56,0.00,,---,0.00,VWS V15.00,2013-06-26 05:12:00,
2013-06-26 01:13:00,79.0,62.0,30.21,ESE,115,0.0,3.6,56,0.00,,---,0.00,VWS V15.00,2013-06-26 05:13:00,
2013-06-26 01:14:00,78.8,66.1,30.18,East,83,0.0,0.0,65,0.00,,---,0.00,VWS V14.01,2013-06-26 05:14:00,
2013-06-26 01:15:00,79.3,60.7,30.21,ESE,123,3.1,3.1,53,0.00,,---,0.00,VWS V15.00,2013-06-26 05:15:00,
2013-06-26 01:16:00,79.3,60.7,30.21,East,87,0.0,3.1,53,0.00,,---,0.00,VWS V15.00,2013-06-26 05:16:00,
2013-06-26 01:17:00,79.3,60.7,30.21,East,87,0.0,0.0,53,0.00,,---,0.00,VWS V15.00,2013-06-26 05:17:00,
2013-06-26 01:18:00,79.3,60.7,30.21,East,87,0.0,0.0,53,0.00,,---,0.00,VWS V15.00,2013-06-26 05:18:00,
2013-06-26 01:19:00,78.8,65.6,30.18,East,83,0.0,0.0,64,0.00,,---,0.00,VWS V14.01,2013-06-26 05:19:00,
2013-06-26 01:20:00,79.3,60.7,30.21,ESE,119,0.0,0.0,53,0.00,,---,0.00,VWS V15.00,2013-06-26 05:20:00,
2013-06-26 01:21:00,79.3,60.7,30.21,ESE,119,0.0,0.0,53,0.00,,---,0.00,VWS V15.00,2013-06-26 05:21:00,
2013-06-26 01:22:00,79.2,61.1,30.21,ESE,117,0.0,0.0,54,0.00,,---,0.00,VWS V15.00,2013-06-26 05:22:00,
2013-06-26 01:23:00,79.2,61.1,30.21,ESE,117,0.0,0.0,54,0.00,,---,0.00,VWS V15.00,2013-06-26 05:23:00,
2013-06-26 01:24:00,78.6,65.9,30.18,East,83,0.0,0.0,65,0.00,,---,0.00,VWS V14.01,2013-06-26 05:24:00,
2013-06-26 01:25:00,79.2,61.1,30.21,SE,130,0.0,0.0,54,0.00,,---,0.00,VWS V15.00,2013-06-26 05:25:00,
2013-06-26 01:26:00,79.2,61.1,30.21,East,97,2.2,2.2,54,0.00,,---,0.00,VWS V15.00,2013-06-26 05:26:00,
2013-06-26 01:27:00,79.2,61.6,30.21,ESE,104,2.7,2.7,55,0.00,,---,0.00,VWS V15.00,2013-06-26 05:27:00,
2013-06-26 01:28:00,79.2,61.6,30.21,ESE,104,2.7,2.7,55,0.00,,---,0.00,VWS V15.00,2013-06-26 05:28:00,
2013-06-26 01:29:00,78.6,65.9,30.18,East,83,0.0,0.0,65,0.00,,---,0.00,VWS V14.01,2013-06-26 05:29:00,
2013-06-26 01:30:00,79.0,61.5,30.21,ESE,104,2.7,2.7,55,0.00,,---,0.00,VWS V15.00,2013-06-26 05:30:00,
2013-06-26 01:31:00,79.0,61.5,30.21,ESE,104,2.7,2.7,55,0.00,,---,0.00,VWS V15.00,2013-06-26 05:31:00,
2013-06-26 01:32:00,79.0,61.5,30.21,ESE,104,0.0,2.7,55,0.00,,---,0.00,VWS V15.00,2013-06-26 05:32:00,
2013-06-26 01:33:00,79.0,61.5,30.21,ESE,104,0.0,0.0,55,0.00,,---,0.00,VWS V15.00,2013-06-26 05:33:00,
2013-06-26 01:34:00,77.7,64.6,30.18,East,83,0.0,0.0,64,0.00,,---,0.00,VWS V14.01,2013-06-26 05:34:00,
2013-06-26 01:35:00,79.0,61.5,30.21,NE,47,0.0,0.0,55,0.00,,---,0.00,VWS V15.00,2013-06-26 05:35:00,
2013-06-26 01:36:00,79.0,61.5,30.21,NE,47,0.0,0.0,55,0.00,,---,0.00,VWS V15.00,2013-06-26 05:36:00,
2013-06-26 01:37:00,79.0,61.5,30.21,NE,47,0.0,0.0,55,0.00,,---,0.00,VWS V15.00,2013-06-26 05:37:00,
2013-06-26 01:38:00,79.0,61.5,30.18,NE,47,0.0,0.0,55,0.00,,---,0.00,VWS V15.00,2013-06-26 05:38:00,
2013-06-26 01:39:00,77.2,65.4,30.18,East,83,0.0,0.0,67,0.00,,---,0.00,VWS V14.01,2013-06-26 05:39:00,
2013-06-26 01:40:00,78.8,63.8,30.18,East,83,0.0,0.0,60,0.00,,---,0.00,VWS V15.00,2013-06-26 05:40:00,
2013-06-26 01:41:00,78.8,63.8,30.18,East,83,0.0,0.0,60,0.00,,---,0.00,VWS V15.00,2013-06-26 05:41:00,
2013-06-26 01:42:00,78.8,63.8,30.18,East,83,0.0,0.0,60,0.00,,---,0.00,VWS V15.00,2013-06-26 05:42:00,
2013-06-26 01:43:00,78.8,63.8,30.18,East,83,0.0,0.0,60,0.00,,---,0.00,VWS V15.00,2013-06-26 05:43:00,
2013-06-26 01:44:00,78.8,63.8,30.18,East,83,0.0,0.0,60,0.00,,---,0.00,VWS V15.00,2013-06-26 05:44:00,
2013-06-26 01:45:00,77.4,69.2,30.18,SE,129,0.0,0.0,76,0.00,,---,0.00,VWS V14.01,2013-06-26 05:45:00,
2013-06-26 01:46:00,78.8,63.8,30.18,East,83,0.0,0.0,60,0.00,,---,0.00,VWS V15.00,2013-06-26 05:46:00,
2013-06-26 01:47:00,78.8,63.8,30.18,East,83,0.0,0.0,60,0.00,,---,0.00,VWS V15.00,2013-06-26 05:47:00,
2013-06-26 01:48:00,78.8,63.8,30.18,East,83,0.0,0.0,60,0.00,,---,0.00,VWS V15.00,2013-06-26 05:48:00,
2013-06-26 01:49:00,78.8,63.8,30.18,East,83,0.0,0.0,60,0.00,,---,0.00,VWS V15.00,2013-06-26 05:49:00,
2013-06-26 01:50:00,76.8,69.1,30.18,ESE,117,5.4,5.4,77,0.00,,---,0.00,VWS V14.01,2013-06-26 05:50:00,
2013-06-26 01:51:00,78.6,63.6,30.18,East,83,0.0,0.0,60,0.00,,---,0.00,VWS V15.00,2013-06-26 05:51:00,
2013-06-26 01:52:00,78.6,63.6,30.18,East,83,0.0,0.0,60,0.00,,---,0.00,VWS V15.00,2013-06-26 05:52:00,
2013-06-26 01:53:00,78.6,63.6,30.18,East,83,0.0,0.0,60,0.00,,---,0.00,VWS V15.00,2013-06-26 05:53:00,
2013-06-26 01:54:00,78.6,63.6,30.18,East,83,0.0,0.0,60,0.00,,---,0.00,VWS V15.00,2013-06-26 05:54:00,
2013-06-26 01:55:00,75.6,66.3,30.18,SSE,156,0.0,0.0,73,0.04,,---,0.04,VWS V14.01,2013-06-26 05:55:00,
2013-06-26 01:56:00,78.6,63.6,30.18,East,83,0.0,0.0,60,0.00,,---,0.00,VWS V15.00,2013-06-26 05:56:00,
2013-06-26 01:57:00,78.6,63.6,30.18,East,83,0.0,0.0,60,0.00,,---,0.00,VWS V15.00,2013-06-26 05:57:00,
2013-06-26 01:58:00,78.4,64.3,30.18,East,83,0.0,0.0,62,0.00,,---,0.00,VWS V15.00,2013-06-26 05:58:00,
2013-06-26 01:59:00,78.4,64.3,30.18,East,83,0.0,0.0,62,0.00,,---,0.00,VWS V15.00,2013-06-26 05:59:00,
2013-06-26 02:00:00,78.4,65.3,30.18,East,83,0.0,0.0,64,0.00,,---,0.00,VWS V15.00,2013-06-26 06:00:00,
2013-06-26 02:01:00,78.4,65.3,30.18,East,83,0.0,0.0,64,0.00,,---,0.00,VWS V15.00,2013-06-26 06:01:00,
2013-06-26 02:02:00,78.4,65.3,30.18,East,83,0.0,0.0,64,0.00,,---,0.00,VWS V15.00,2013-06-26 06:02:00,
2013-06-26 02:03:00,78.4,65.3,30.18,East,83,0.0,0.0,64,0.00,,---,0.00,VWS V15.00,2013-06-26 06:03:00,
2013-06-26 02:04:00,78.4,65.3,30.18,East,83,0.0,0.0,64,0.00,,---,0.00,VWS V15.00,2013-06-26 06:04:00,
2013-06-26 02:05:00,78.4,65.7,30.18,East,83,0.0,0.0,65,0.00,,---,0.00,VWS V15.00,2013-06-26 06:05:00,
2013-06-26 02:06:00,78.6,65.9,30.18,East,83,0.0,0.0,65,0.00,,---,0.00,VWS V15.00,2013-06-26 06:06:00,
2013-06-26 02:07:00,78.6,65.9,30.18,East,83,0.0,0.0,65,0.00,,---,0.00,VWS V15.00,2013-06-26 06:07:00,
2013-06-26 02:08:00,78.6,65.9,30.18,East,83,0.0,0.0,65,0.00,,---,0.00,VWS V15.00,2013-06-26 06:08:00,
2013-06-26 02:09:00,78.6,65.9,30.18,East,83,0.0,0.0,65,0.00,,---,0.00,VWS V15.00,2013-06-26 06:09:00,
2013-06-26 02:10:00,78.6,65.9,30.18,East,83,0.0,0.0,65,0.00,,---,0.00,VWS V15.00,2013-06-26 06:10:00,
2013-06-26 02:11:00,78.6,65.9,30.18,East,83,0.0,0.0,65,0.00,,---,0.00,VWS V15.00,2013-06-26 06:11:00,
2013-06-26 02:12:00,78.6,65.9,30.18,East,83,0.0,0.0,65,0.00,,---,0.00,VWS V15.00,2013-06-26 06:12:00,
2013-06-26 02:13:00,78.6,65.9,30.18,East,83,0.0,0.0,65,0.00,,---,0.00,VWS V15.00,2013-06-26 06:13:00,
2013-06-26 02:14:00,78.8,66.1,30.18,East,83,0.0,0.0,65,0.00,,---,0.00,VWS V15.00,2013-06-26 06:14:00,
2013-06-26 02:15:00,78.8,66.1,30.18,East,83,0.0,0.0,65,0.00,,---,0.00,VWS V15.00,2013-06-26 06:15:00,
2013-06-26 02:16:00,78.8,66.1,30.18,East,83,0.0,0.0,65,0.00,,---,0.00,VWS V15.00,2013-06-26 06:16:00,
2013-06-26 02:17:00,78.8,65.6,30.18,East,83,0.0,0.0,64,0.00,,---,0.00,VWS V15.00,2013-06-26 06:17:00,
2013-06-26 02:18:00,78.8,65.6,30.18,East,83,0.0,0.0,64,0.00,,---,0.00,VWS V15.00,2013-06-26 06:18:00,
2013-06-26 02:19:00,78.8,65.6,30.18,East,83,0.0,0.0,64,0.00,,---,0.00,VWS V15.00,2013-06-26 06:19:00,
2013-06-26 02:20:00,78.8,65.6,30.18,East,83,0.0,0.0,64,0.00,,---,0.00,VWS V15.00,2013-06-26 06:20:00,
2013-06-26 02:21:00,78.8,65.6,30.18,East,83,0.0,0.0,64,0.00,,---,0.00,VWS V15.00,2013-06-26 06:21:00,
2013-06-26 02:22:00,78.6,65.9,30.18,East,83,0.0,0.0,65,0.00,,---,0.00,VWS V15.00,2013-06-26 06:22:00,
2013-06-26 02:23:00,78.6,65.9,30.18,East,83,0.0,0.0,65,0.00,,---,0.00,VWS V15.00,2013-06-26 06:23:00,
2013-06-26 02:24:00,78.6,65.9,30.18,East,83,0.0,0.0,65,0.00,,---,0.00,VWS V15.00,2013-06-26 06:24:00,
2013-06-26 02:25:00,75.2,69.7,30.18,SSE,156,0.0,0.0,83,0.08,,---,0.08,VWS V14.01,2013-06-26 06:25:00,
2013-06-26 02:26:00,78.6,65.9,30.18,East,83,0.0,0.0,65,0.00,,---,0.00,VWS V15.00,2013-06-26 06:26:00,
2013-06-26 02:27:00,78.6,65.9,30.18,East,83,0.0,0.0,65,0.00,,---,0.00,VWS V15.00,2013-06-26 06:27:00,
2013-06-26 02:28:00,78.6,65.9,30.18,East,83,0.0,0.0,65,0.00,,---,0.00,VWS V15.00,2013-06-26 06:28:00,
2013-06-26 02:29:00,78.6,65.9,30.18,East,83,0.0,0.0,65,0.00,,---,0.00,VWS V15.00,2013-06-26 06:29:00,
2013-06-26 02:30:00,75.4,71.2,30.18,SSE,156,0.0,0.0,87,0.08,,---,0.08,VWS V14.01,2013-06-26 06:30:00,
2013-06-26 02:31:00,78.1,64.9,30.18,East,83,0.0,0.0,64,0.00,,---,0.00,VWS V15.00,2013-06-26 06:31:00,
2013-06-26 02:32:00,78.1,64.9,30.18,East,83,0.0,0.0,64,0.00,,---,0.00,VWS V15.00,2013-06-26 06:32:00,
2013-06-26 02:33:00,77.7,64.6,30.18,East,83,0.0,0.0,64,0.00,,---,0.00,VWS V15.00,2013-06-26 06:33:00,
2013-06-26 02:34:00,77.7,64.6,30.18,East,83,0.0,0.0,64,0.00,,---,0.00,VWS V15.00,2013-06-26 06:34:00,
2013-06-26 02:35:00,75.2,71.4,30.18,SSE,156,0.0,0.0,88,0.08,,---,0.08,VWS V14.01,2013-06-26 06:35:00,
2013-06-26 02:36:00,77.4,65.1,30.18,East,83,0.0,0.0,66,0.00,,---,0.00,VWS V15.00,2013-06-26 06:36:00,
2013-06-26 02:37:00,77.4,65.1,30.18,East,83,0.0,0.0,66,0.00,,---,0.00,VWS V15.00,2013-06-26 06:37:00,
2013-06-26 02:38:00,77.2,65.4,30.18,East,83,0.0,0.0,67,0.00,,---,0.00,VWS V15.00,2013-06-26 06:38:00,
2013-06-26 02:39:00,77.2,65.4,30.18,East,83,0.0,0.0,67,0.00,,---,0.00,VWS V15.00,2013-06-26 06:39:00,
2013-06-26 02:40:00,75.2,71.4,30.15,SSE,156,0.0,0.0,88,0.08,,---,0.08,VWS V14.01,2013-06-26 06:40:00,
2013-06-26 02:41:00,77.2,65.4,30.18,East,84,3.1,3.1,67,0.00,,---,0.00,VWS V15.00,2013-06-26 06:41:00,
2013-06-26 02:42:00,77.2,65.4,30.18,SE,127,2.2,3.1,67,0.00,,---,0.00,VWS V15.00,2013-06-26 06:42:00,
2013-06-26 02:43:00,77.4,69.2,30.18,SE,129,2.7,2.7,76,0.00,,---,0.00,VWS V15.00,2013-06-26 06:43:00,
2013-06-26 02:44:00,77.4,69.2,30.18,SE,129,0.0,2.7,76,0.00,,---,0.00,VWS V15.00,2013-06-26 06:44:00,
2013-06-26 02:45:00,75.2,71.7,30.15,SSE,156,0.0,0.0,89,0.08,,---,0.08,VWS V14.01,2013-06-26 06:45:00,
2013-06-26 02:46:00,77.4,69.2,30.18,South,181,4.0,4.0,76,0.00,,---,0.00,VWS V15.00,2013-06-26 06:46:00,
2013-06-26 02:47:00,77.4,69.2,30.18,South,181,4.0,4.0,76,0.00,,---,0.00,VWS V15.00,2013-06-26 06:47:00,
2013-06-26 02:48:00,76.8,69.1,30.18,ESE,117,5.4,5.4,77,0.00,,---,0.00,VWS V15.00,2013-06-26 06:48:00,
2013-06-26 02:49:00,76.8,69.1,30.18,ESE,117,5.4,5.4,77,0.00,,---,0.00,VWS V15.00,2013-06-26 06:49:00,
2013-06-26 02:50:00,75.2,71.7,30.15,SSE,156,0.0,0.0,89,0.08,,---,0.08,VWS V14.01,2013-06-26 06:50:00,
2013-06-26 02:51:00,76.8,69.1,30.18,SE,129,2.7,2.7,77,0.00,,---,0.00,VWS V15.00,2013-06-26 06:51:00,
2013-06-26 02:52:00,76.8,69.1,30.18,SSE,156,2.7,2.7,77,0.04,,---,0.04,VWS V15.00,2013-06-26 06:52:00,
2013-06-26 02:53:00,76.8,69.1,30.18,SSE,156,0.0,2.7,77,0.04,,---,0.04,VWS V15.00,2013-06-26 06:53:00,
2013-06-26 02:54:00,75.6,66.3,30.18,SSE,156,0.0,0.0,73,0.04,,---,0.04,VWS V15.00,2013-06-26 06:54:00,
2013-06-26 02:55:00,75.2,71.7,30.15,SSE,156,0.0,0.0,89,0.04,,---,0.08,VWS V14.01,2013-06-26 06:55:00,
2013-06-26 02:56:00,75.4,66.5,30.18,SSE,156,0.0,0.0,74,0.04,,---,0.04,VWS V15.00,2013-06-26 06:56:00,
2013-06-26 02:57:00,75.2,66.7,30.18,SSE,156,0.0,0.0,75,0.04,,---,0.04,VWS V15.00,2013-06-26 06:57:00,
2013-06-26 02:58:00,75.2,66.7,30.18,SSE,156,0.0,0.0,75,0.04,,---,0.04,VWS V15.00,2013-06-26 06:58:00,
2013-06-26 02:59:00,75.2,67.1,30.18,SSE,156,0.0,0.0,76,0.04,,---,0.04,VWS V15.00,2013-06-26 06:59:00,
2013-06-26 03:00:00,75.6,72.8,30.15,SSE,156,0.0,0.0,91,0.04,,---,0.08,VWS V14.01,2013-06-26 07:00:00,
2013-06-26 03:01:00,75.0,67.3,30.18,SSE,156,0.0,0.0,77,0.08,,---,0.08,VWS V15.00,2013-06-26 07:01:00,
2013-06-26 03:02:00,75.0,67.3,30.18,SSE,156,0.0,0.0,77,0.08,,---,0.08,VWS V15.00,2013-06-26 07:02:00,
2013-06-26 03:03:00,75.0,67.3,30.18,SSE,156,0.0,0.0,77,0.08,,---,0.08,VWS V15.00,2013-06-26 07:03:00,
2013-06-26 03:04:00,75.0,67.7,30.18,SSE,156,0.0,0.0,78,0.08,,---,0.08,VWS V15.00,2013-06-26 07:04:00,
2013-06-26 03:05:00,75.6,72.4,30.15,SSE,156,0.0,0.0,90,0.00,,---,0.08,VWS V14.01,2013-06-26 07:05:00,
2013-06-26 03:06:00,75.0,68.4,30.18,SSE,156,0.0,0.0,80,0.08,,---,0.08,VWS V15.00,2013-06-26 07:06:00,
2013-06-26 03:07:00,75.0,68.4,30.18,SSE,156,0.0,0.0,80,0.08,,---,0.08,VWS V15.00,2013-06-26 07:07:00,
2013-06-26 03:08:00,75.0,68.4,30.18,SSE,156,0.0,0.0,80,0.08,,---,0.08,VWS V15.00,2013-06-26 07:08:00,
2013-06-26 03:09:00,75.0,68.4,30.18,SSE,156,0.0,0.0,80,0.08,,---,0.08,VWS V15.00,2013-06-26 07:09:00,
2013-06-26 03:10:00,75.4,72.2,30.15,SSE,156,0.0,0.0,90,0.00,,---,0.08,VWS V14.01,2013-06-26 07:10:00,
2013-06-26 03:11:00,75.0,68.4,30.18,SSE,156,0.0,0.0,80,0.08,,---,0.08,VWS V15.00,2013-06-26 07:11:00,
2013-06-26 03:12:00,75.0,68.4,30.18,SSE,156,0.0,0.0,80,0.08,,---,0.08,VWS V15.00,2013-06-26 07:12:00,
2013-06-26 03:13:00,75.0,68.4,30.18,SSE,156,0.0,0.0,80,0.08,,---,0.08,VWS V15.00,2013-06-26 07:13:00,
2013-06-26 03:14:00,74.8,68.6,30.18,SSE,156,0.0,0.0,81,0.08,,---,0.08,VWS V15.00,2013-06-26 07:14:00,
2013-06-26 03:15:00,75.4,72.6,30.15,SSE,156,0.0,0.0,91,0.00,,---,0.08,VWS V14.01,2013-06-26 07:15:00,
2013-06-26 03:16:00,74.8,68.6,30.18,SSE,156,0.0,0.0,81,0.08,,---,0.08,VWS V15.00,2013-06-26 07:16:00,
2013-06-26 03:17:00,74.8,68.6,30.18,SSE,156,0.0,0.0,81,0.08,,---,0.08,VWS V15.00,2013-06-26 07:17:00,
2013-06-26 03:18:00,74.8,68.6,30.18,SSE,156,0.0,0.0,81,0.08,,---,0.08,VWS V15.00,2013-06-26 07:18:00,
2013-06-26 03:19:00,74.8,68.6,30.18,SSE,156,0.0,0.0,81,0.08,,---,0.08,VWS V15.00,2013-06-26 07:19:00,
2013-06-26 03:20:00,74.8,68.6,30.18,SSE,156,0.0,0.0,81,0.08,,---,0.08,VWS V15.00,2013-06-26 07:20:00,
2013-06-26 03:21:00,75.6,72.8,30.15,SSE,156,0.0,0.0,91,0.00,,---,0.08,VWS V14.01,2013-06-26 07:21:00,
2013-06-26 03:22:00,74.8,68.6,30.18,SSE,156,0.0,0.0,81,0.08,,---,0.08,VWS V15.00,2013-06-26 07:22:00,
2013-06-26 03:23:00,74.8,68.6,30.18,SSE,156,0.0,0.0,81,0.08,,---,0.08,VWS V15.00,2013-06-26 07:23:00,
2013-06-26 03:24:00,75.2,69.7,30.18,SSE,156,0.0,0.0,83,0.08,,---,0.08,VWS V15.00,2013-06-26 07:24:00,
2013-06-26 03:25:00,75.2,69.7,30.18,SSE,156,0.0,0.0,83,0.08,,---,0.08,VWS V15.00,2013-06-26 07:25:00,
2013-06-26 03:26:00,75.6,72.8,30.15,SSE,156,0.0,0.0,91,0.00,,---,0.08,VWS V14.01,2013-06-26 07:26:00,
2013-06-26 03:27:00,75.6,71.1,30.18,SSE,156,0.0,0.0,86,0.08,,---,0.08,VWS V15.00,2013-06-26 07:27:00,
2013-06-26 03:28:00,75.4,71.2,30.18,SSE,156,0.0,0.0,87,0.08,,---,0.08,VWS V15.00,2013-06-26 07:28:00,
2013-06-26 03:29:00,75.4,71.2,30.18,SSE,156,0.0,0.0,87,0.08,,---,0.08,VWS V15.00,2013-06-26 07:29:00,
2013-06-26 03:30:00,75.4,71.2,30.18,SSE,156,0.0,0.0,87,0.08,,---,0.08,VWS V15.00,2013-06-26 07:30:00,
2013-06-26 03:31:00,75.6,72.8,30.15,SSE,156,0.0,0.0,91,0.00,,---,0.08,VWS V14.01,2013-06-26 07:31:00,
2013-06-26 03:32:00,75.2,71.4,30.18,SSE,156,0.0,0.0,88,0.08,,---,0.08,VWS V15.00,2013-06-26 07:32:00,
2013-06-26 03:33:00,75.2,71.4,30.18,SSE,156,0.0,0.0,88,0.08,,---,0.08,VWS V15.00,2013-06-26 07:33:00,
2013-06-26 03:34:00,75.2,71.4,30.18,SSE,156,0.0,0.0,88,0.08,,---,0.08,VWS V15.00,2013-06-26 07:34:00,
2013-06-26 03:35:00,75.2,71.4,30.18,SSE,156,0.0,0.0,88,0.08,,---,0.08,VWS V15.00,2013-06-26 07:35:00,
2013-06-26 03:36:00,75.7,73.2,30.15,SSE,156,0.0,0.0,92,0.00,,---,0.08,VWS V14.01,2013-06-26 07:36:00,
2013-06-26 03:37:00,75.2,71.4,30.18,SSE,156,0.0,0.0,88,0.08,,---,0.08,VWS V15.00,2013-06-26 07:37:00,
2013-06-26 03:38:00,75.2,71.4,30.15,SSE,156,0.0,0.0,88,0.08,,---,0.08,VWS V15.00,2013-06-26 07:38:00,
2013-06-26 03:39:00,75.2,71.4,30.15,SSE,156,0.0,0.0,88,0.08,,---,0.08,VWS V15.00,2013-06-26 07:39:00,
2013-06-26 03:40:00,75.2,71.4,30.15,SSE,156,0.0,0.0,88,0.08,,---,0.08,VWS V15.00,2013-06-26 07:40:00,
2013-06-26 03:41:00,75.9,73.4,30.15,SSE,156,0.0,0.0,92,0.00,,---,0.08,VWS V14.01,2013-06-26 07:41:00,
2013-06-26 03:42:00,75.2,71.4,30.15,SSE,156,0.0,0.0,88,0.08,,---,0.08,VWS V15.00,2013-06-26 07:42:00,
2013-06-26 03:43:00,75.2,71.4,30.15,SSE,156,0.0,0.0,88,0.08,,---,0.08,VWS V15.00,2013-06-26 07:43:00,
2013-06-26 03:44:00,75.2,71.4,30.15,SSE,156,0.0,0.0,88,0.08,,---,0.08,VWS V15.00,2013-06-26 07:44:00,
2013-06-26 03:45:00,75.2,71.7,30.15,SSE,156,0.0,0.0,89,0.08,,---,0.08,VWS V15.00,2013-06-26 07:45:00,
2013-06-26 03:46:00,75.9,73.4,30.15,SSE,156,0.0,0.0,92,0.00,,---,0.08,VWS V14.01,2013-06-26 07:46:00,
2013-06-26 03:47:00,75.2,71.7,30.15,SSE,156,0.0,0.0,89,0.08,,---,0.08,VWS V15.00,2013-06-26 07:47:00,
2013-06-26 03:48:00,75.2,71.7,30.15,SSE,156,0.0,0.0,89,0.08,,---,0.08,VWS V15.00,2013-06-26 07:48:00,
2013-06-26 03:49:00,75.2,71.7,30.15,SSE,156,0.0,0.0,89,0.08,,---,0.08,VWS V15.00,2013-06-26 07:49:00,
2013-06-26 03:50:00,75.2,71.7,30.15,SSE,156,0.0,0.0,89,0.08,,---,0.08,VWS V15.00,2013-06-26 07:50:00,
2013-06-26 03:51:00,75.9,73.4,30.15,SSE,156,0.0,0.0,92,0.00,,---,0.08,VWS V14.01,2013-06-26 07:51:00,
2013-06-26 03:52:00,75.2,71.7,30.15,SSE,156,0.0,0.0,89,0.08,,---,0.08,VWS V15.00,2013-06-26 07:52:00,
2013-06-26 03:53:00,75.2,71.7,30.15,SSE,156,0.0,0.0,89,0.04,,---,0.08,VWS V15.00,2013-06-26 07:53:00,
2013-06-26 03:54:00,75.2,71.7,30.15,SSE,156,0.0,0.0,89,0.04,,---,0.08,VWS V15.00,2013-06-26 07:54:00,
2013-06-26 03:55:00,75.2,71.7,30.15,SSE,156,0.0,0.0,89,0.04,,---,0.08,VWS V15.00,2013-06-26 07:55:00,
2013-06-26 03:56:00,75.9,73.4,30.15,SSE,156,0.0,0.0,92,0.00,,---,0.08,VWS V14.01,2013-06-26 07:56:00,
2013-06-26 03:57:00,75.4,72.2,30.15,SSE,156,0.0,0.0,90,0.04,,---,0.08,VWS V15.00,2013-06-26 07:57:00,
2013-06-26 03:58:00,75.4,72.2,30.15,SSE,156,0.0,0.0,90,0.04,,---,0.08,VWS V15.00,2013-06-26 07:58:00,
2013-06-26 03:59:00,75.6,72.8,30.15,SSE,156,0.0,0.0,91,0.04,,---,0.08,VWS V15.00,2013-06-26 07:59:00,
2013-06-26 04:00:00,75.6,72.8,30.15,SSE,156,0.0,0.0,91,0.04,,---,0.08,VWS V15.00,2013-06-26 08:00:00,
2013-06-26 04:01:00,75.7,73.2,30.15,SSE,156,0.0,0.0,92,0.00,,---,0.08,VWS V14.01,2013-06-26 08:01:00,
2013-06-26 04:02:00,75.6,72.8,30.15,SSE,156,0.0,0.0,91,0.00,,---,0.08,VWS V15.00,2013-06-26 08:02:00,
2013-06-26 04:03:00,75.6,72.8,30.15,SSE,156,0.0,0.0,91,0.00,,---,0.08,VWS V15.00,2013-06-26 08:03:00,
2013-06-26 04:04:00,75.6,72.8,30.15,SSE,156,0.0,0.0,91,0.00,,---,0.08,VWS V15.00,2013-06-26 08:04:00,
2013-06-26 04:05:00,75.6,72.4,30.15,SSE,156,0.0,0.0,90,0.00,,---,0.08,VWS V15.00,2013-06-26 08:05:00,
2013-06-26 04:06:00,75.7,73.2,30.15,SSE,156,0.0,0.0,92,0.00,,---,0.08,VWS V14.01,2013-06-26 08:06:00,
2013-06-26 04:07:00,75.6,72.4,30.15,SSE,156,0.0,0.0,90,0.00,,---,0.08,VWS V15.00,2013-06-26 08:07:00,
2013-06-26 04:08:00,75.6,72.4,30.15,SSE,156,0.0,0.0,90,0.00,,---,0.08,VWS V15.00,2013-06-26 08:08:00,
2013-06-26 04:09:00,75.6,72.4,30.15,SSE,156,0.0,0.0,90,0.00,,---,0.08,VWS V15.00,2013-06-26 08:09:00,
2013-06-26 04:10:00,75.4,72.2,30.15,SSE,156,0.0,0.0,90,0.00,,---,0.08,VWS V15.00,2013-06-26 08:10:00,
2013-06-26 04:11:00,75.7,73.2,30.15,SSE,156,0.0,0.0,92,0.00,,---,0.08,VWS V14.01,2013-06-26 08:11:00,
2013-06-26 04:12:00,75.4,72.2,30.15,SSE,156,0.0,0.0,90,0.00,,---,0.08,VWS V15.00,2013-06-26 08:12:00,
2013-06-26 04:13:00,75.4,72.2,30.15,SSE,156,0.0,0.0,90,0.00,,---,0.08,VWS V15.00,2013-06-26 08:13:00,
2013-06-26 04:14:00,75.4,72.6,30.15,SSE,156,0.0,0.0,91,0.00,,---,0.08,VWS V15.00,2013-06-26 08:14:00,
2013-06-26 04:15:00,75.4,72.6,30.15,SSE,156,0.0,0.0,91,0.00,,---,0.08,VWS V15.00,2013-06-26 08:15:00,
2013-06-26 04:16:00,75.6,73.1,30.15,SSE,156,0.0,0.0,92,0.00,,---,0.08,VWS V14.01,2013-06-26 08:16:00,
2013-06-26 04:17:00,75.4,72.6,30.15,SSE,156,0.0,0.0,91,0.00,,---,0.08,VWS V15.00,2013-06-26 08:17:00,
2013-06-26 04:18:00,75.4,72.6,30.15,SSE,156,0.0,0.0,91,0.00,,---,0.08,VWS V15.00,2013-06-26 08:18:00,
2013-06-26 04:19:00,75.4,72.6,30.15,SSE,156,0.0,0.0,91,0.00,,---,0.08,VWS V15.00,2013-06-26 08:19:00,
2013-06-26 04:20:00,75.6,72.8,30.15,SSE,156,0.0,0.0,91,0.00,,---,0.08,VWS V15.00,2013-06-26 08:20:00,
2013-06-26 04:21:00,75.6,72.8,30.15,SSE,156,0.0,0.0,91,0.00,,---,0.08,VWS V15.00,2013-06-26 08:21:00,
2013-06-26 04:22:00,75.7,73.2,30.15,SSE,156,0.0,0.0,92,0.00,,---,0.08,VWS V14.01,2013-06-26 08:22:00,
2013-06-26 04:23:00,75.6,72.8,30.15,SSE,156,0.0,0.0,91,0.00,,---,0.08,VWS V15.00,2013-06-26 08:23:00,
2013-06-26 04:24:00,75.6,72.8,30.15,SSE,156,0.0,0.0,91,0.00,,---,0.08,VWS V15.00,2013-06-26 08:24:00,
2013-06-26 04:25:00,75.6,72.8,30.15,SSE,156,0.0,0.0,91,0.00,,---,0.08,VWS V15.00,2013-06-26 08:25:00,
2013-06-26 04:26:00,75.6,72.8,30.15,SSE,156,0.0,0.0,91,0.00,,---,0.08,VWS V15.00,2013-06-26 08:26:00,
2013-06-26 04:27:00,75.6,73.1,30.15,SSE,156,0.0,0.0,92,0.00,,---,0.08,VWS V14.01,2013-06-26 08:27:00,
2013-06-26 04:28:00,75.6,72.8,30.15,SSE,156,0.0,0.0,91,0.00,,---,0.08,VWS V15.00,2013-06-26 08:28:00,
2013-06-26 04:29:00,75.6,72.8,30.15,SSE,156,0.0,0.0,91,0.00,,---,0.08,VWS V15.00,2013-06-26 08:29:00,
2013-06-26 04:30:00,75.6,72.8,30.15,SSE,156,0.0,0.0,91,0.00,,---,0.08,VWS V15.00,2013-06-26 08:30:00,
2013-06-26 04:31:00,75.6,72.8,30.15,SSE,156,0.0,0.0,91,0.00,,---,0.08,VWS V15.00,2013-06-26 08:31:00,
2013-06-26 04:32:00,75.6,73.1,30.15,ESE,117,0.0,0.0,92,0.00,,---,0.08,VWS V14.01,2013-06-26 08:32:00,
2013-06-26 04:33:00,75.6,73.1,30.15,SSE,156,0.0,0.0,92,0.00,,---,0.08,VWS V15.00,2013-06-26 08:33:00,
2013-06-26 04:34:00,75.7,73.2,30.15,SSE,156,0.0,0.0,92,0.00,,---,0.08,VWS V15.00,2013-06-26 08:34:00,
2013-06-26 04:35:00,75.7,73.2,30.15,SSE,156,0.0,0.0,92,0.00,,---,0.08,VWS V15.00,2013-06-26 08:35:00,
2013-06-26 04:36:00,75.7,73.2,30.15,SSE,156,0.0,0.0,92,0.00,,---,0.08,VWS V15.00,2013-06-26 08:36:00,
2013-06-26 04:37:00,75.7,73.6,30.12,ESE,117,0.0,0.0,93,0.00,,---,0.08,VWS V14.01,2013-06-26 08:37:00,
2013-06-26 04:38:00,75.7,73.2,30.15,SSE,156,0.0,0.0,92,0.00,,---,0.08,VWS V15.00,2013-06-26 08:38:00,
2013-06-26 04:39:00,75.7,73.2,30.15,SSE,156,0.0,0.0,92,0.00,,---,0.08,VWS V15.00,2013-06-26 08:39:00,
2013-06-26 04:40:00,75.9,73.4,30.15,SSE,156,0.0,0.0,92,0.00,,---,0.08,VWS V15.00,2013-06-26 08:40:00,
2013-06-26 04:41:00,75.9,73.4,30.15,SSE,156,0.0,0.0,92,0.00,,---,0.08,VWS V15.00,2013-06-26 08:41:00,
2013-06-26 04:42:00,75.7,73.6,30.12,ESE,122,0.0,0.0,93,0.00,,---,0.08,VWS V14.01,2013-06-26 08:42:00,
2013-06-26 04:43:00,75.9,73.4,30.15,SSE,156,0.0,0.0,92,0.00,,---,0.08,VWS V15.00,2013-06-26 08:43:00,
2013-06-26 04:44:00,75.9,73.4,30.15,SSE,156,0.0,0.0,92,0.00,,---,0.08,VWS V15.00,2013-06-26 08:44:00,
2013-06-26 04:45:00,75.9,73.4,30.15,SSE,156,0.0,0.0,92,0.00,,---,0.08,VWS V15.00,2013-06-26 08:45:00,
2013-06-26 04:46:00,75.9,73.4,30.15,SSE,156,0.0,0.0,92,0.00,,---,0.08,VWS V15.00,2013-06-26 08:46:00,
2013-06-26 04:47:00,75.7,73.6,30.15,SE,125,2.7,2.7,93,0.00,,---,0.08,VWS V14.01,2013-06-26 08:47:00,
2013-06-26 04:48:00,75.9,73.4,30.15,SSE,156,0.0,0.0,92,0.00,,---,0.08,VWS V15.00,2013-06-26 08:48:00,
2013-06-26 04:49:00,75.9,73.4,30.15,SSE,156,0.0,0.0,92,0.00,,---,0.08,VWS V15.00,2013-06-26 08:49:00,
2013-06-26 04:50:00,75.9,73.4,30.15,SSE,156,0.0,0.0,92,0.00,,---,0.08,VWS V15.00,2013-06-26 08:50:00,
2013-06-26 04:51:00,75.9,73.4,30.15,SSE,156,0.0,0.0,92,0.00,,---,0.08,VWS V15.00,2013-06-26 08:51:00,
2013-06-26 04:52:00,75.7,73.6,30.15,ESE,119,2.2,2.2,93,0.00,,---,0.08,VWS V14.01,2013-06-26 08:52:00,
2013-06-26 04:53:00,75.9,73.4,30.15,SSE,156,0.0,0.0,92,0.00,,---,0.08,VWS V15.00,2013-06-26 08:53:00,
2013-06-26 04:54:00,75.9,73.4,30.15,SSE,156,0.0,0.0,92,0.00,,---,0.08,VWS V15.00,2013-06-26 08:54:00,
2013-06-26 04:55:00,75.9,73.4,30.15,SSE,156,0.0,0.0,92,0.00,,---,0.08,VWS V15.00,2013-06-26 08:55:00,
2013-06-26 04:56:00,75.9,73.4,30.15,SSE,156,0.0,0.0,92,0.00,,---,0.08,VWS V15.00,2013-06-26 08:56:00,
2013-06-26 04:57:00,75.6,73.4,30.15,ESE,122,0.0,0.0,93,0.00,,---,0.08,VWS V14.01,2013-06-26 08:57:00,
2013-06-26 04:58:00,75.7,73.2,30.15,SSE,156,0.0,0.0,92,0.00,,---,0.08,VWS V15.00,2013-06-26 08:58:00,
2013-06-26 04:59:00,75.7,73.2,30.15,SSE,156,0.0,0.0,92,0.00,,---,0.08,VWS V15.00,2013-06-26 08:59:00,
2013-06-26 05:00:00,75.7,73.2,30.15,SSE,156,0.0,0.0,92,0.00,,---,0.08,VWS V15.00,2013-06-26 09:00:00,
2013-06-26 05:01:00,75.7,73.2,30.15,SSE,156,0.0,0.0,92,0.00,,---,0.08,VWS V15.00,2013-06-26 09:01:00,
2013-06-26 05:02:00,75.6,73.4,30.15,SE,126,0.0,0.0,93,0.00,,---,0.08,VWS V14.01,2013-06-26 09:02:00,
2013-06-26 05:03:00,75.7,73.2,30.15,SSE,156,0.0,0.0,92,0.00,,---,0.08,VWS V15.00,2013-06-26 09:03:00,
2013-06-26 05:04:00,75.7,73.2,30.15,SSE,156,0.0,0.0,92,0.00,,---,0.08,VWS V15.00,2013-06-26 09:04:00,
2013-06-26 05:05:00,75.7,73.2,30.15,SSE,156,0.0,0.0,92,0.00,,---,0.08,VWS V15.00,2013-06-26 09:05:00,
2013-06-26 05:06:00,75.7,73.2,30.15,SSE,156,0.0,0.0,92,0.00,,---,0.08,VWS V15.00,2013-06-26 09:06:00,
2013-06-26 05:07:00,75.6,73.4,30.15,SE,126,0.0,0.0,93,0.00,,---,0.08,VWS V14.01,2013-06-26 09:07:00,
2013-06-26 05:08:00,75.7,73.2,30.15,SSE,156,0.0,0.0,92,0.00,,---,0.08,VWS V15.00,2013-06-26 09:08:00,
2013-06-26 05:09:00,75.7,73.2,30.15,SSE,156,0.0,0.0,92,0.00,,---,0.08,VWS V15.00,2013-06-26 09:09:00,
2013-06-26 05:10:00,75.7,73.2,30.15,SSE,156,0.0,0.0,92,0.00,,---,0.08,VWS V15.00,2013-06-26 09:10:00,
2013-06-26 05:11:00,75.7,73.2,30.15,SSE,156,0.0,0.0,92,0.00,,---,0.08,VWS V15.00,2013-06-26 09:11:00,
2013-06-26 05:12:00,75.7,73.2,30.15,SSE,156,0.0,0.0,92,0.00,,---,0.08,VWS V15.00,2013-06-26 09:12:00,
2013-06-26 05:13:00,75.6,73.4,30.15,SSE,158,0.0,0.0,93,0.00,,---,0.08,VWS V14.01,2013-06-26 09:13:00,
2013-06-26 05:14:00,75.6,73.1,30.15,SSE,156,0.0,0.0,92,0.00,,---,0.08,VWS V15.00,2013-06-26 09:14:00,
2013-06-26 05:15:00,75.6,73.1,30.15,SSE,156,0.0,0.0,92,0.00,,---,0.08,VWS V15.00,2013-06-26 09:15:00,
2013-06-26 05:16:00,75.6,73.1,30.15,SSE,156,0.0,0.0,92,0.00,,---,0.08,VWS V15.00,2013-06-26 09:16:00,
2013-06-26 05:17:00,75.6,73.1,30.15,SSE,156,0.0,0.0,92,0.00,,---,0.08,VWS V15.00,2013-06-26 09:17:00,
2013-06-26 05:18:00,75.6,73.1,30.15,SSE,156,0.0,0.0,92,0.00,,---,0.08,VWS V15.00,2013-06-26 09:18:00,
2013-06-26 05:19:00,75.6,73.1,30.15,SSE,156,0.0,0.0,92,0.00,,---,0.08,VWS V15.00,2013-06-26 09:19:00,
2013-06-26 05:20:00,75.7,73.2,30.15,SSE,156,0.0,0.0,92,0.00,,---,0.08,VWS V15.00,2013-06-26 09:20:00,
2013-06-26 05:21:00,75.7,73.2,30.15,SSE,156,0.0,0.0,92,0.00,,---,0.08,VWS V15.00,2013-06-26 09:21:00,
2013-06-26 05:22:00,75.7,73.2,30.15,SSE,156,0.0,0.0,92,0.00,,---,0.08,VWS V15.00,2013-06-26 09:22:00,
2013-06-26 05:23:00,75.6,73.1,30.15,SSE,156,0.0,0.0,92,0.00,,---,0.08,VWS V15.00,2013-06-26 09:23:00,
2013-06-26 05:24:00,75.6,73.1,30.15,SSE,156,0.0,0.0,92,0.00,,---,0.08,VWS V15.00,2013-06-26 09:24:00,
2013-06-26 05:25:00,75.4,73.2,30.15,SE,124,0.0,0.0,93,0.00,,---,0.08,VWS V14.01,2013-06-26 09:25:00,
2013-06-26 05:26:00,75.6,73.1,30.15,SSE,156,0.0,0.0,92,0.00,,---,0.08,VWS V15.00,2013-06-26 09:26:00,
2013-06-26 05:27:00,75.6,73.1,30.15,ESE,117,0.0,0.0,92,0.00,,---,0.08,VWS V15.00,2013-06-26 09:27:00,
2013-06-26 05:28:00,75.6,73.1,30.15,ESE,117,0.0,0.0,92,0.00,,---,0.08,VWS V15.00,2013-06-26 09:28:00,
2013-06-26 05:29:00,75.6,73.1,30.15,ESE,117,0.0,0.0,92,0.00,,---,0.08,VWS V15.00,2013-06-26 09:29:00,
2013-06-26 05:30:00,75.4,73.2,30.15,SE,128,0.0,0.0,93,0.00,,---,0.08,VWS V14.01,2013-06-26 09:30:00,
2013-06-26 05:31:00,75.6,73.1,30.15,ESE,117,0.0,0.0,92,0.00,,---,0.08,VWS V15.00,2013-06-26 09:31:00,
2013-06-26 05:32:00,75.6,73.1,30.15,ESE,117,0.0,0.0,92,0.00,,---,0.08,VWS V15.00,2013-06-26 09:32:00,
2013-06-26 05:33:00,75.6,73.1,30.15,ESE,117,0.0,0.0,92,0.00,,---,0.08,VWS V15.00,2013-06-26 09:33:00,
2013-06-26 05:34:00,75.6,73.1,30.12,ESE,117,0.0,0.0,92,0.00,,---,0.08,VWS V15.00,2013-06-26 09:34:00,
2013-06-26 05:35:00,75.6,73.1,30.12,ESE,117,0.0,0.0,92,0.00,,---,0.08,VWS V15.00,2013-06-26 09:35:00,
2013-06-26 05:36:00,75.0,73.2,30.15,South,187,2.7,4.0,94,0.00,,---,0.08,VWS V14.01,2013-06-26 09:36:00,
2013-06-26 05:37:00,75.7,73.6,30.12,ESE,117,0.0,0.0,93,0.00,,---,0.08,VWS V15.00,2013-06-26 09:37:00,
2013-06-26 05:38:00,75.7,73.6,30.12,ESE,117,0.0,0.0,93,0.00,,---,0.08,VWS V15.00,2013-06-26 09:38:00,
2013-06-26 05:39:00,75.7,73.6,30.12,ESE,117,0.0,0.0,93,0.00,,---,0.08,VWS V15.00,2013-06-26 09:39:00,
2013-06-26 05:40:00,75.7,73.6,30.12,ESE,122,0.0,0.0,93,0.00,,---,0.08,VWS V15.00,2013-06-26 09:40:00,
2013-06-26 05:41:00,75.7,73.6,30.12,ESE,122,0.0,0.0,93,0.00,,---,0.08,VWS V15.00,2013-06-26 09:41:00,
2013-06-26 05:42:00,74.7,72.5,30.15,South,187,2.7,2.7,93,0.00,,---,0.08,VWS V14.01,2013-06-26 09:42:00,
2013-06-26 05:43:00,75.7,73.6,30.12,ESE,122,0.0,0.0,93,0.00,,---,0.08,VWS V15.00,2013-06-26 09:43:00,
2013-06-26 05:44:00,75.7,73.6,30.12,East,86,0.0,0.0,93,0.00,,---,0.08,VWS V15.00,2013-06-26 09:44:00,
2013-06-26 05:45:00,75.7,73.6,30.12,East,86,0.0,0.0,93,0.00,,---,0.08,VWS V15.00,2013-06-26 09:45:00,
2013-06-26 05:46:00,75.7,73.6,30.12,SE,125,2.7,2.7,93,0.00,,---,0.08,VWS V15.00,2013-06-26 09:46:00,
2013-06-26 05:47:00,74.3,71.8,30.15,SSE,157,2.2,2.2,92,0.00,,---,0.08,VWS V14.01,2013-06-26 09:47:00,
2013-06-26 05:48:00,75.7,73.6,30.15,SE,138,2.7,2.7,93,0.00,,---,0.08,VWS V15.00,2013-06-26 09:48:00,
2013-06-26 05:49:00,75.7,73.6,30.15,SE,138,2.7,2.7,93,0.00,,---,0.08,VWS V15.00,2013-06-26 09:49:00,
2013-06-26 05:50:00,75.7,73.6,30.15,ESE,119,0.0,2.7,93,0.00,,---,0.08,VWS V15.00,2013-06-26 09:50:00,
2013-06-26 05:51:00,75.7,73.6,30.15,ESE,119,0.0,0.0,93,0.00,,---,0.08,VWS V15.00,2013-06-26 09:51:00,
2013-06-26 05:52:00,73.9,71.5,30.15,SSE,157,0.0,0.0,92,0.00,,---,0.08,VWS V14.01,2013-06-26 09:52:00,
2013-06-26 05:53:00,75.6,73.4,30.15,ESE,119,2.2,2.2,93,0.00,,---,0.08,VWS V15.00,2013-06-26 09:53:00,
2013-06-26 05:54:00,75.6,73.4,30.15,ESE,119,0.0,2.2,93,0.00,,---,0.08,VWS V15.00,2013-06-26 09:54:00,
2013-06-26 05:55:00,75.6,73.4,30.15,ESE,119,0.0,0.0,93,0.00,,---,0.08,VWS V15.00,2013-06-26 09:55:00,
2013-06-26 05:56:00,75.6,73.4,30.15,ESE,119,0.0,0.0,93,0.00,,---,0.08,VWS V15.00,2013-06-26 09:56:00,
2013-06-26 05:57:00,73.9,71.5,30.15,SSE,157,0.0,0.0,92,0.00,,---,0.08,VWS V14.01,2013-06-26 09:57:00,
2013-06-26 05:58:00,75.6,73.4,30.15,ESE,122,0.0,0.0,93,0.00,,---,0.08,VWS V15.00,2013-06-26 09:58:00,
2013-06-26 05:59:00,75.6,73.4,30.15,ESE,122,0.0,0.0,93,0.00,,---,0.08,VWS V15.00,2013-06-26 09:59:00,
2013-06-26 06:00:00,75.6,73.4,30.15,ESE,122,0.0,0.0,93,0.00,,---,0.08,VWS V15.00,2013-06-26 10:00:00,
2013-06-26 06:01:00,75.6,73.4,30.15,SE,126,0.0,0.0,93,0.00,,---,0.08,VWS V15.00,2013-06-26 10:01:00,
2013-06-26 06:02:00,74.1,72.0,30.15,SSE,157,0.0,0.0,93,0.00,,---,0.08,VWS V14.01,2013-06-26 10:02:00,
2013-06-26 06:03:00,75.6,73.4,30.15,SE,126,0.0,0.0,93,0.00,,---,0.08,VWS V15.00,2013-06-26 10:03:00,
2013-06-26 06:04:00,75.6,73.4,30.15,SE,126,0.0,0.0,93,0.00,,---,0.08,VWS V15.00,2013-06-26 10:04:00,
2013-06-26 06:05:00,75.6,73.4,30.15,SE,126,0.0,0.0,93,0.00,,---,0.08,VWS V15.00,2013-06-26 10:05:00,
2013-06-26 06:06:00,75.6,73.4,30.15,SE,126,0.0,0.0,93,0.00,,---,0.08,VWS V15.00,2013-06-26 10:06:00,
2013-06-26 06:07:00,75.6,73.4,30.15,SE,126,0.0,0.0,93,0.00,,---,0.08,VWS V15.00,2013-06-26 10:07:00,
2013-06-26 06:08:00,74.5,72.3,30.15,SE,138,0.0,0.0,93,0.00,,---,0.08,VWS V14.01,2013-06-26 10:08:00,
2013-06-26 06:09:00,75.6,73.4,30.15,ENE,64,0.0,0.0,93,0.00,,---,0.08,VWS V15.00,2013-06-26 10:09:00,
2013-06-26 06:10:00,75.6,73.4,30.15,ENE,64,0.0,0.0,93,0.00,,---,0.08,VWS V15.00,2013-06-26 10:10:00,
2013-06-26 06:11:00,75.6,73.4,30.15,SSE,158,0.0,0.0,93,0.00,,---,0.08,VWS V15.00,2013-06-26 10:11:00,
2013-06-26 06:12:00,75.6,73.4,30.15,SSE,158,0.0,0.0,93,0.00,,---,0.08,VWS V15.00,2013-06-26 10:12:00,
2013-06-26 06:13:00,74.7,72.5,30.15,South,188,3.1,3.1,93,0.00,,---,0.08,VWS V14.01,2013-06-26 10:13:00,
2013-06-26 06:14:00,75.6,73.4,30.15,SE,129,0.0,0.0,93,0.00,,---,0.08,VWS V15.00,2013-06-26 10:14:00,
2013-06-26 06:15:00,75.6,73.4,30.15,SE,129,0.0,0.0,93,0.00,,---,0.08,VWS V15.00,2013-06-26 10:15:00,
2013-06-26 06:16:00,75.6,73.4,30.15,SE,128,0.0,0.0,93,0.00,,---,0.08,VWS V15.00,2013-06-26 10:16:00,
2013-06-26 06:17:00,75.6,73.4,30.15,SE,128,0.0,0.0,93,0.00,,---,0.08,VWS V15.00,2013-06-26 10:17:00,
2013-06-26 06:18:00,75.2,73.0,30.15,SSE,166,3.6,3.6,93,0.00,,---,0.08,VWS V14.01,2013-06-26 10:18:00,
2013-06-26 06:19:00,75.6,73.4,30.15,SSE,167,0.0,0.0,93,0.00,,---,0.08,VWS V15.00,2013-06-26 10:19:00,
2013-06-26 06:20:00,75.6,73.4,30.15,SE,128,2.2,2.2,93,0.00,,---,0.08,VWS V15.00,2013-06-26 10:20:00,
2013-06-26 06:21:00,75.6,73.4,30.15,SE,128,2.2,2.2,93,0.00,,---,0.08,VWS V15.00,2013-06-26 10:21:00,
2013-06-26 06:22:00,75.6,73.4,30.15,SE,128,2.2,2.2,93,0.00,,---,0.08,VWS V15.00,2013-06-26 10:22:00,
2013-06-26 06:23:00,75.0,73.2,30.15,South,179,0.0,3.1,94,0.04,,---,0.12,VWS V14.01,2013-06-26 10:23:00,
2013-06-26 06:24:00,75.4,73.2,30.15,SE,124,0.0,0.0,93,0.00,,---,0.08,VWS V15.00,2013-06-26 10:24:00,
2013-06-26 06:25:00,75.4,73.2,30.15,SE,124,0.0,0.0,93,0.00,,---,0.08,VWS V15.00,2013-06-26 10:25:00,
2013-06-26 06:26:00,75.4,73.2,30.15,SE,124,0.0,0.0,93,0.00,,---,0.08,VWS V15.00,2013-06-26 10:26:00,
2013-06-26 06:27:00,75.4,73.2,30.15,SE,124,0.0,0.0,93,0.00,,---,0.08,VWS V15.00,2013-06-26 10:27:00,
2013-06-26 06:28:00,74.5,72.3,30.15,SSE,149,0.0,0.0,93,0.04,,---,0.12,VWS V14.01,2013-06-26 10:28:00,
2013-06-26 06:29:00,75.4,73.2,30.15,SE,128,0.0,0.0,93,0.00,,---,0.08,VWS V15.00,2013-06-26 10:29:00,
2013-06-26 06:30:00,75.4,73.2,30.15,SE,128,0.0,0.0,93,0.00,,---,0.08,VWS V15.00,2013-06-26 10:30:00,
2013-06-26 06:31:00,75.4,73.2,30.15,SE,128,0.0,0.0,93,0.00,,---,0.08,VWS V15.00,2013-06-26 10:31:00,
2013-06-26 06:32:00,75.4,73.2,30.15,SE,128,0.0,0.0,93,0.00,,---,0.08,VWS V15.00,2013-06-26 10:32:00,
2013-06-26 06:33:00,75.4,73.2,30.15,East,96,4.9,4.9,93,0.00,,---,0.08,VWS V15.00,2013-06-26 10:33:00,
2013-06-26 06:34:00,74.1,72.0,30.18,SSE,149,0.0,0.0,93,0.04,,---,0.12,VWS V14.01,2013-06-26 10:34:00,
2013-06-26 06:35:00,75.2,73.4,30.15,South,170,4.0,4.0,94,0.00,,---,0.08,VWS V15.00,2013-06-26 10:35:00,
2013-06-26 06:36:00,75.0,73.2,30.15,South,187,2.7,4.0,94,0.00,,---,0.08,VWS V15.00,2013-06-26 10:36:00,
2013-06-26 06:37:00,75.0,73.2,30.15,South,187,2.7,2.7,94,0.00,,---,0.08,VWS V15.00,2013-06-26 10:37:00,
2013-06-26 06:38:00,75.0,73.2,30.15,South,187,2.7,2.7,94,0.00,,---,0.08,VWS V15.00,2013-06-26 10:38:00,
2013-06-26 06:39:00,74.1,72.0,30.18,ESE,120,0.0,0.0,93,0.04,,---,0.12,VWS V14.01,2013-06-26 10:39:00,
2013-06-26 06:40:00,75.0,73.2,30.15,South,187,2.7,2.7,94,0.00,,---,0.08,VWS V15.00,2013-06-26 10:40:00,
2013-06-26 06:41:00,74.7,72.5,30.15,South,187,2.7,2.7,93,0.00,,---,0.08,VWS V15.00,2013-06-26 10:41:00,
2013-06-26 06:42:00,74.7,72.5,30.15,South,187,2.7,2.7,93,0.00,,---,0.08,VWS V15.00,2013-06-26 10:42:00,
2013-06-26 06:43:00,74.7,72.5,30.15,South,187,2.7,2.7,93,0.00,,---,0.08,VWS V15.00,2013-06-26 10:43:00,
2013-06-26 06:44:00,73.9,71.8,30.18,ESE,120,0.0,0.0,93,0.04,,---,0.12,VWS V14.01,2013-06-26 10:44:00,
2013-06-26 06:45:00,74.7,72.5,30.15,SE,128,3.1,3.1,93,0.00,,---,0.08,VWS V15.00,2013-06-26 10:45:00,
2013-06-26 06:46:00,74.7,72.5,30.15,South,173,0.0,3.1,93,0.00,,---,0.08,VWS V15.00,2013-06-26 10:46:00,
2013-06-26 06:47:00,74.1,71.7,30.15,SSE,157,2.2,2.2,92,0.00,,---,0.08,VWS V15.00,2013-06-26 10:47:00,
2013-06-26 06:48:00,74.1,71.7,30.15,SSE,157,2.2,2.2,92,0.00,,---,0.08,VWS V15.00,2013-06-26 10:48:00,
2013-06-26 06:49:00,74.1,71.7,30.15,SSE,157,0.0,2.2,92,0.00,,---,0.08,VWS V15.00,2013-06-26 10:49:00,
2013-06-26 06:50:00,74.1,71.7,30.15,SSE,157,0.0,0.0,92,0.00,,---,0.08,VWS V15.00,2013-06-26 10:50:00,
2013-06-26 06:51:00,74.1,71.7,30.15,SSE,157,0.0,0.0,92,0.00,,---,0.08,VWS V15.00,2013-06-26 10:51:00,
2013-06-26 06:52:00,73.9,71.8,30.18,ESE,109,3.6,3.6,93,0.04,,---,0.12,VWS V14.01,2013-06-26 10:52:00,
2013-06-26 06:53:00,73.9,71.5,30.15,SSE,157,0.0,0.0,92,0.00,,---,0.08,VWS V15.00,2013-06-26 10:53:00,
2013-06-26 06:54:00,73.9,71.5,30.15,SSE,157,0.0,0.0,92,0.00,,---,0.08,VWS V15.00,2013-06-26 10:54:00,
2013-06-26 06:55:00,73.9,71.5,30.15,SSE,157,0.0,0.0,92,0.00,,---,0.08,VWS V15.00,2013-06-26 10:55:00,
2013-06-26 06:56:00,73.9,71.5,30.15,SSE,157,0.0,0.0,92,0.00,,---,0.08,VWS V15.00,2013-06-26 10:56:00,
2013-06-26 06:57:00,73.9,71.5,30.15,SSE,157,0.0,0.0,92,0.00,,---,0.08,VWS V15.00,2013-06-26 10:57:00,
2013-06-26 06:58:00,73.9,71.8,30.18,ESE,103,0.0,0.0,93,0.04,,---,0.12,VWS V14.01,2013-06-26 10:58:00,
2013-06-26 06:59:00,74.1,71.7,30.15,SSE,157,0.0,0.0,92,0.00,,---,0.08,VWS V15.00,2013-06-26 10:59:00,
2013-06-26 07:00:00,74.1,71.7,30.15,SSE,157,0.0,0.0,92,0.00,,---,0.08,VWS V15.00,2013-06-26 11:00:00,
2013-06-26 07:01:00,74.1,71.7,30.15,SSE,157,0.0,0.0,92,0.00,,---,0.08,VWS V15.00,2013-06-26 11:01:00,
2013-06-26 07:02:00,74.1,72.0,30.15,SSE,157,0.0,0.0,93,0.00,,---,0.08,VWS V15.00,2013-06-26 11:02:00,
2013-06-26 07:03:00,73.9,71.8,30.18,ESE,103,0.0,0.0,93,0.04,,---,0.12,VWS V14.01,2013-06-26 11:03:00,
2013-06-26 07:04:00,74.3,72.2,30.15,SSE,153,0.0,0.0,93,0.00,,---,0.08,VWS V15.00,2013-06-26 11:04:00,
2013-06-26 07:05:00,74.3,72.2,30.15,SSE,153,0.0,0.0,93,0.00,,---,0.08,VWS V15.00,2013-06-26 11:05:00,
2013-06-26 07:06:00,74.3,72.2,30.15,SE,139,0.0,0.0,93,0.00,,---,0.08,VWS V15.00,2013-06-26 11:06:00,
2013-06-26 07:07:00,74.5,72.3,30.15,SE,138,0.0,0.0,93,0.00,,---,0.08,VWS V15.00,2013-06-26 11:07:00,
2013-06-26 07:08:00,74.3,72.2,30.18,ESE,103,0.0,0.0,93,0.04,,---,0.12,VWS V14.01,2013-06-26 11:08:00,
2013-06-26 07:09:00,74.5,72.3,30.15,SE,135,0.0,0.0,93,0.00,,---,0.08,VWS V15.00,2013-06-26 11:09:00,
2013-06-26 07:10:00,74.7,72.5,30.15,SE,135,0.0,0.0,93,0.00,,---,0.08,VWS V15.00,2013-06-26 11:10:00,
2013-06-26 07:11:00,74.7,72.5,30.15,SSE,150,2.2,2.2,93,0.00,,---,0.08,VWS V15.00,2013-06-26 11:11:00,
2013-06-26 07:12:00,74.7,72.5,30.15,SSE,151,2.7,2.7,93,0.00,,---,0.08,VWS V15.00,2013-06-26 11:12:00,
2013-06-26 07:13:00,74.7,72.5,30.18,ENE,69,0.0,0.0,93,0.04,,---,0.12,VWS V14.01,2013-06-26 11:13:00,
2013-06-26 07:14:00,74.7,72.5,30.15,South,188,3.1,3.1,93,0.00,,---,0.08,VWS V15.00,2013-06-26 11:14:00,
2013-06-26 07:15:00,74.7,72.5,30.15,ESE,109,0.0,3.1,93,0.00,,---,0.08,VWS V15.00,2013-06-26 11:15:00,
2013-06-26 07:16:00,75.2,73.0,30.15,ESE,109,0.0,0.0,93,0.00,,---,0.08,VWS V15.00,2013-06-26 11:16:00,
2013-06-26 07:17:00,75.2,73.0,30.15,SSE,166,3.6,3.6,93,0.00,,---,0.08,VWS V15.00,2013-06-26 11:17:00,
2013-06-26 07:18:00,75.0,72.9,30.18,ENE,70,2.2,2.2,93,0.04,,---,0.12,VWS V14.01,2013-06-26 11:18:00,
2013-06-26 07:19:00,75.0,73.2,30.15,SE,127,4.9,4.9,94,0.00,,---,0.08,VWS V15.00,2013-06-26 11:19:00,
2013-06-26 07:20:00,75.0,73.2,30.15,SE,127,4.9,4.9,94,0.00,,---,0.08,VWS V15.00,2013-06-26 11:20:00,
2013-06-26 07:21:00,75.0,73.2,30.15,SE,127,4.9,4.9,94,0.04,,---,0.12,VWS V15.00,2013-06-26 11:21:00,
2013-06-26 07:22:00,75.0,73.2,30.15,SSE,164,3.1,4.9,94,0.04,,---,0.12,VWS V15.00,2013-06-26 11:22:00,
2013-06-26 07:23:00,75.4,73.2,30.18,East,96,0.0,0.0,93,0.00,,---,0.12,VWS V14.01,2013-06-26 11:23:00,
2013-06-26 07:24:00,74.5,72.3,30.15,South,179,0.0,0.0,93,0.04,,---,0.12,VWS V15.00,2013-06-26 11:24:00,
2013-06-26 07:25:00,74.5,72.3,30.15,South,179,0.0,0.0,93,0.04,,---,0.12,VWS V15.00,2013-06-26 11:25:00,
2013-06-26 07:26:00,74.5,72.3,30.15,SSE,149,0.0,0.0,93,0.04,,---,0.12,VWS V15.00,2013-06-26 11:26:00,
2013-06-26 07:27:00,74.5,72.3,30.15,SSE,149,0.0,0.0,93,0.04,,---,0.12,VWS V15.00,2013-06-26 11:27:00,
2013-06-26 07:28:00,75.6,73.4,30.18,East,96,0.0,0.0,93,0.00,,---,0.12,VWS V14.01,2013-06-26 11:28:00,
2013-06-26 07:29:00,74.5,72.3,30.15,SSE,149,0.0,0.0,93,0.04,,---,0.12,VWS V15.00,2013-06-26 11:29:00,
2013-06-26 07:30:00,74.3,72.2,30.15,SSE,149,0.0,0.0,93,0.04,,---,0.12,VWS V15.00,2013-06-26 11:30:00,
2013-06-26 07:31:00,74.3,72.2,30.15,SSE,149,0.0,0.0,93,0.04,,---,0.12,VWS V15.00,2013-06-26 11:31:00,
2013-06-26 07:32:00,74.3,72.2,30.15,SSE,149,0.0,0.0,93,0.04,,---,0.12,VWS V15.00,2013-06-26 11:32:00,
2013-06-26 07:33:00,75.9,73.8,30.18,East,96,0.0,0.0,93,0.00,,---,0.12,VWS V14.01,2013-06-26 11:33:00,
2013-06-26 07:34:00,74.1,72.0,30.18,ESE,120,0.0,0.0,93,0.04,,---,0.12,VWS V15.00,2013-06-26 11:34:00,
2013-06-26 07:35:00,74.1,72.0,30.18,ESE,120,0.0,0.0,93,0.04,,---,0.12,VWS V15.00,2013-06-26 11:35:00,
2013-06-26 07:36:00,74.1,72.0,30.18,ESE,120,0.0,0.0,93,0.04,,---,0.12,VWS V15.00,2013-06-26 11:36:00,
2013-06-26 07:37:00,74.1,72.0,30.18,ESE,120,0.0,0.0,93,0.04,,---,0.12,VWS V15.00,2013-06-26 11:37:00,
2013-06-26 07:38:00,75.9,73.4,30.18,ENE,62,0.0,0.0,92,0.00,,---,0.12,VWS V14.01,2013-06-26 11:38:00,
2013-06-26 07:39:00,74.1,72.0,30.18,ESE,120,0.0,0.0,93,0.04,,---,0.12,VWS V15.00,2013-06-26 11:39:00,
2013-06-26 07:40:00,74.1,72.0,30.18,ESE,120,0.0,0.0,93,0.04,,---,0.12,VWS V15.00,2013-06-26 11:40:00,
2013-06-26 07:41:00,74.1,72.0,30.18,ESE,120,0.0,0.0,93,0.04,,---,0.12,VWS V15.00,2013-06-26 11:41:00,
2013-06-26 07:42:00,73.9,71.8,30.18,ESE,120,0.0,0.0,93,0.04,,---,0.12,VWS V15.00,2013-06-26 11:42:00,
2013-06-26 07:43:00,75.9,73.4,30.18,ENE,70,0.0,0.0,92,0.00,,---,0.12,VWS V14.01,2013-06-26 11:43:00,
2013-06-26 07:44:00,73.9,71.8,30.18,ESE,120,0.0,0.0,93,0.04,,---,0.12,VWS V15.00,2013-06-26 11:44:00,
2013-06-26 07:45:00,73.9,71.8,30.18,ESE,116,2.7,2.7,93,0.04,,---,0.12,VWS V15.00,2013-06-26 11:45:00,
2013-06-26 07:46:00,73.9,71.8,30.18,ESE,106,3.1,3.1,93,0.04,,---,0.12,VWS V15.00,2013-06-26 11:46:00,
2013-06-26 07:47:00,73.9,71.8,30.18,ESE,106,3.1,3.1,93,0.04,,---,0.12,VWS V15.00,2013-06-26 11:47:00,
2013-06-26 07:48:00,76.5,74.0,30.18,ENE,70,0.0,0.0,92,0.00,,---,0.12,VWS V14.01,2013-06-26 11:48:00,
2013-06-26 07:49:00,73.9,71.8,30.18,East,99,2.2,2.2,93,0.04,,---,0.12,VWS V15.00,2013-06-26 11:49:00,
2013-06-26 07:50:00,73.9,71.8,30.18,East,99,0.0,3.6,93,0.04,,---,0.12,VWS V15.00,2013-06-26 11:50:00,
2013-06-26 07:51:00,73.9,71.8,30.18,ESE,109,3.6,3.6,93,0.04,,---,0.12,VWS V15.00,2013-06-26 11:51:00,
2013-06-26 07:52:00,73.9,71.8,30.18,ESE,109,3.6,3.6,93,0.04,,---,0.12,VWS V15.00,2013-06-26 11:52:00,
2013-06-26 07:53:00,73.9,71.8,30.18,East,90,3.1,3.6,93,0.04,,---,0.12,VWS V15.00,2013-06-26 11:53:00,
2013-06-26 07:54:00,76.6,74.2,30.18,ENE,70,0.0,0.0,92,0.00,,---,0.12,VWS V14.01,2013-06-26 11:54:00,
2013-06-26 07:55:00,73.9,71.8,30.18,ESE,103,0.0,3.1,93,0.04,,---,0.12,VWS V15.00,2013-06-26 11:55:00,
2013-06-26 07:56:00,73.9,71.8,30.18,ESE,103,0.0,0.0,93,0.04,,---,0.12,VWS V15.00,2013-06-26 11:56:00,
2013-06-26 07:57:00,73.9,71.8,30.18,ESE,103,0.0,0.0,93,0.04,,---,0.12,VWS V15.00,2013-06-26 11:57:00,
2013-06-26 07:58:00,73.9,71.8,30.18,ESE,103,0.0,0.0,93,0.04,,---,0.12,VWS V15.00,2013-06-26 11:58:00,
2013-06-26 07:59:00,76.8,74.3,30.18,ESE,112,0.0,0.0,92,0.00,,---,0.12,VWS V14.01,2013-06-26 11:59:00,
2013-06-26 08:00:00,73.9,71.8,30.18,ESE,103,0.0,0.0,93,0.04,,---,0.12,VWS V15.00,2013-06-26 12:00:00,
2013-06-26 08:01:00,73.9,71.8,30.18,ESE,103,0.0,0.0,93,0.04,,---,0.12,VWS V15.00,2013-06-26 12:01:00,
2013-06-26 08:02:00,73.9,71.8,30.18,ESE,103,0.0,0.0,93,0.04,,---,0.12,VWS V15.00,2013-06-26 12:02:00,
2013-06-26 08:03:00,73.9,71.8,30.18,ESE,103,0.0,0.0,93,0.04,,---,0.12,VWS V15.00,2013-06-26 12:03:00,
2013-06-26 08:04:00,77.0,74.2,30.18,ESE,112,0.0,0.0,91,0.00,,---,0.12,VWS V14.01,2013-06-26 12:04:00,
2013-06-26 08:05:00,73.9,71.8,30.18,ESE,103,0.0,0.0,93,0.04,,---,0.12,VWS V15.00,2013-06-26 12:05:00,
2013-06-26 08:06:00,73.9,71.8,30.18,ESE,103,0.0,0.0,93,0.04,,---,0.12,VWS V15.00,2013-06-26 12:06:00,
2013-06-26 08:07:00,74.3,72.2,30.18,ESE,103,0.0,0.0,93,0.04,,---,0.12,VWS V15.00,2013-06-26 12:07:00,
2013-06-26 08:08:00,74.3,72.2,30.18,ESE,103,0.0,0.0,93,0.04,,---,0.12,VWS V15.00,2013-06-26 12:08:00,
2013-06-26 08:09:00,77.7,74.6,30.18,ESE,112,0.0,0.0,90,0.00,,---,0.12,VWS V14.01,2013-06-26 12:09:00,
2013-06-26 08:10:00,74.3,72.2,30.18,East,94,0.0,0.0,93,0.04,,---,0.12,VWS V15.00,2013-06-26 12:10:00,
2013-06-26 08:11:00,74.3,72.2,30.18,ENE,68,0.0,0.0,93,0.04,,---,0.12,VWS V15.00,2013-06-26 12:11:00,
2013-06-26 08:12:00,74.3,72.2,30.18,ENE,69,0.0,0.0,93,0.04,,---,0.12,VWS V15.00,2013-06-26 12:12:00,
2013-06-26 08:13:00,74.7,72.5,30.18,ENE,69,0.0,0.0,93,0.04,,---,0.12,VWS V15.00,2013-06-26 12:13:00,
2013-06-26 08:14:00,77.7,74.6,30.18,ESE,112,0.0,0.0,90,0.00,,---,0.12,VWS V14.01,2013-06-26 12:14:00,
2013-06-26 08:15:00,74.7,72.5,30.18,ENE,68,0.0,0.0,93,0.04,,---,0.12,VWS V15.00,2013-06-26 12:15:00,
2013-06-26 08:16:00,75.0,73.2,30.18,ENE,68,0.0,0.0,94,0.04,,---,0.12,VWS V15.00,2013-06-26 12:16:00,
2013-06-26 08:17:00,75.0,73.2,30.18,ENE,70,2.2,2.2,94,0.04,,---,0.12,VWS V15.00,2013-06-26 12:17:00,
2013-06-26 08:18:00,75.0,72.9,30.18,ENE,70,2.2,2.2,93,0.04,,---,0.12,VWS V15.00,2013-06-26 12:18:00,
2013-06-26 08:19:00,77.7,74.6,30.18,ESE,112,0.0,0.0,90,0.00,,---,0.12,VWS V14.01,2013-06-26 12:19:00,
2013-06-26 08:20:00,75.0,72.9,30.18,ENE,70,0.0,0.0,93,0.04,,---,0.12,VWS V15.00,2013-06-26 12:20:00,
2013-06-26 08:21:00,75.2,73.0,30.18,East,96,0.0,0.0,93,0.04,,---,0.12,VWS V15.00,2013-06-26 12:21:00,
2013-06-26 08:22:00,75.4,73.2,30.18,East,96,0.0,0.0,93,0.00,,---,0.12,VWS V15.00,2013-06-26 12:22:00,
2013-06-26 08:23:00,75.4,73.2,30.18,East,96,0.0,0.0,93,0.00,,---,0.12,VWS V15.00,2013-06-26 12:23:00,
2013-06-26 08:24:00,77.7,74.6,30.18,East,84,0.0,0.0,90,0.00,,---,0.12,VWS V14.01,2013-06-26 12:24:00,
2013-06-26 08:25:00,75.6,73.4,30.18,East,96,0.0,0.0,93,0.00,,---,0.12,VWS V15.00,2013-06-26 12:25:00,
2013-06-26 08:26:00,75.6,73.4,30.18,East,96,0.0,0.0,93,0.00,,---,0.12,VWS V15.00,2013-06-26 12:26:00,
2013-06-26 08:27:00,75.6,73.4,30.18,East,96,0.0,0.0,93,0.00,,---,0.12,VWS V15.00,2013-06-26 12:27:00,
2013-06-26 08:28:00,75.6,73.4,30.18,East,96,0.0,0.0,93,0.00,,---,0.12,VWS V15.00,2013-06-26 12:28:00,
2013-06-26 08:29:00,82.6,65.3,30.18,ESE,109,0.0,0.0,56,0.00,,---,0.12,VWS V14.01,2013-06-26 12:29:00,
2013-06-26 08:30:00,75.7,73.6,30.18,East,96,0.0,0.0,93,0.00,,---,0.12,VWS V15.00,2013-06-26 12:30:00,
2013-06-26 08:31:00,75.7,73.6,30.18,East,96,0.0,0.0,93,0.00,,---,0.12,VWS V15.00,2013-06-26 12:31:00,
2013-06-26 08:32:00,75.7,73.6,30.18,East,96,0.0,0.0,93,0.00,,---,0.12,VWS V15.00,2013-06-26 12:32:00,
2013-06-26 08:33:00,75.9,73.8,30.18,East,96,0.0,0.0,93,0.00,,---,0.12,VWS V15.00,2013-06-26 12:33:00,
2013-06-26 08:34:00,84.9,59.3,30.18,ESE,109,0.0,0.0,42,0.00,,---,0.12,VWS V14.01,2013-06-26 12:34:00,
2013-06-26 08:35:00,75.9,73.4,30.18,East,96,0.0,0.0,92,0.00,,---,0.12,VWS V15.00,2013-06-26 12:35:00,
2013-06-26 08:36:00,75.9,73.4,30.18,East,96,0.0,0.0,92,0.00,,---,0.12,VWS V15.00,2013-06-26 12:36:00,
2013-06-26 08:37:00,75.9,73.4,30.18,East,96,0.0,0.0,92,0.00,,---,0.12,VWS V15.00,2013-06-26 12:37:00,
2013-06-26 08:38:00,75.9,73.4,30.18,ENE,62,0.0,0.0,92,0.00,,---,0.12,VWS V15.00,2013-06-26 12:38:00,
2013-06-26 08:39:00,87.4,57.2,30.18,ESE,115,3.1,3.1,36,0.00,,---,0.12,VWS V14.01,2013-06-26 12:39:00,
2013-06-26 08:40:00,75.9,73.4,30.18,ENE,62,0.0,0.0,92,0.00,,---,0.12,VWS V15.00,2013-06-26 12:40:00,
2013-06-26 08:41:00,75.9,73.4,30.18,ENE,62,0.0,0.0,92,0.00,,---,0.12,VWS V15.00,2013-06-26 12:41:00,
2013-06-26 08:42:00,75.9,73.4,30.18,ENE,62,0.0,0.0,92,0.00,,---,0.12,VWS V15.00,2013-06-26 12:42:00,
2013-06-26 08:43:00,75.9,73.4,30.18,ENE,70,0.0,0.0,92,0.00,,---,0.12,VWS V15.00,2013-06-26 12:43:00,
2013-06-26 08:44:00,89.2,55.5,30.18,East,94,4.0,4.0,32,0.00,,---,0.12,VWS V14.01,2013-06-26 12:44:00,
2013-06-26 08:45:00,76.3,73.8,30.18,ENE,70,0.0,0.0,92,0.00,,---,0.12,VWS V15.00,2013-06-26 12:45:00,
2013-06-26 08:46:00,76.5,74.0,30.18,ENE,70,0.0,0.0,92,0.00,,---,0.12,VWS V15.00,2013-06-26 12:46:00,
2013-06-26 08:47:00,76.5,74.0,30.18,ENE,70,0.0,0.0,92,0.00,,---,0.12,VWS V15.00,2013-06-26 12:47:00,
2013-06-26 08:48:00,76.5,74.0,30.18,ENE,70,0.0,0.0,92,0.00,,---,0.12,VWS V15.00,2013-06-26 12:48:00,
2013-06-26 08:49:00,89.2,55.5,30.18,SE,131,0.0,0.0,32,0.00,,---,0.12,VWS V14.01,2013-06-26 12:49:00,
2013-06-26 08:50:00,76.5,74.0,30.18,ENE,70,0.0,0.0,92,0.00,,---,0.12,VWS V15.00,2013-06-26 12:50:00,
2013-06-26 08:51:00,76.6,74.1,30.18,ENE,70,0.0,0.0,92,0.00,,---,0.12,VWS V15.00,2013-06-26 12:51:00,
2013-06-26 08:52:00,76.6,74.1,30.18,ENE,70,0.0,0.0,92,0.00,,---,0.12,VWS V15.00,2013-06-26 12:52:00,
2013-06-26 08:53:00,76.6,74.1,30.18,ENE,70,0.0,0.0,92,0.00,,---,0.12,VWS V15.00,2013-06-26 12:53:00,
2013-06-26 08:54:00,91.2,54.5,30.18,East,91,2.2,2.2,29,0.00,,---,0.12,VWS V14.01,2013-06-26 12:54:00,
2013-06-26 08:55:00,76.6,74.1,30.18,ESE,112,0.0,0.0,92,0.00,,---,0.12,VWS V15.00,2013-06-26 12:55:00,
2013-06-26 08:56:00,76.8,74.3,30.18,ESE,112,0.0,0.0,92,0.00,,---,0.12,VWS V15.00,2013-06-26 12:56:00,
2013-06-26 08:57:00,76.8,74.3,30.18,ESE,112,0.0,0.0,92,0.00,,---,0.12,VWS V15.00,2013-06-26 12:57:00,
2013-06-26 08:58:00,76.8,74.3,30.18,ESE,112,0.0,0.0,92,0.00,,---,0.12,VWS V15.00,2013-06-26 12:58:00,
2013-06-26 08:59:00,77.0,74.2,30.18,ESE,112,0.0,0.0,91,0.00,,---,0.12,VWS V15.00,2013-06-26 12:59:00,
2013-06-26 09:00:00,92.5,54.7,30.18,ENE,71,5.8,5.8,28,0.00,,---,0.12,VWS V14.01,2013-06-26 13:00:00,
2013-06-26 09:01:00,77.0,74.2,30.18,ESE,112,0.0,0.0,91,0.00,,---,0.12,VWS V15.00,2013-06-26 13:01:00,
2013-06-26 09:02:00,77.0,74.2,30.18,ESE,112,0.0,0.0,91,0.00,,---,0.12,VWS V15.00,2013-06-26 13:02:00,
2013-06-26 09:03:00,77.0,74.2,30.18,ESE,112,0.0,0.0,91,0.00,,---,0.12,VWS V15.00,2013-06-26 13:03:00,
2013-06-26 09:04:00,77.0,74.2,30.18,ESE,112,0.0,0.0,91,0.00,,---,0.12,VWS V15.00,2013-06-26 13:04:00,
2013-06-26 09:05:00,92.8,55.0,30.18,SE,134,5.8,5.8,28,0.00,,---,0.12,VWS V14.01,2013-06-26 13:05:00,
2013-06-26 09:06:00,77.0,74.2,30.18,ESE,112,0.0,0.0,91,0.00,,---,0.12,VWS V15.00,2013-06-26 13:06:00,
2013-06-26 09:07:00,77.0,74.2,30.18,ESE,112,0.0,0.0,91,0.00,,---,0.12,VWS V15.00,2013-06-26 13:07:00,
2013-06-26 09:08:00,77.7,74.6,30.18,ESE,112,0.0,0.0,90,0.00,,---,0.12,VWS V15.00,2013-06-26 13:08:00,
2013-06-26 09:09:00,77.7,74.6,30.18,ESE,112,0.0,0.0,90,0.00,,---,0.12,VWS V15.00,2013-06-26 13:09:00,
2013-06-26 09:10:00,92.8,55.0,30.18,South,179,5.4,5.4,28,0.00,,---,0.12,VWS V14.01,2013-06-26 13:10:00,
2013-06-26 09:11:00,77.7,74.6,30.18,ESE,112,0.0,0.0,90,0.00,,---,0.12,VWS V15.00,2013-06-26 13:11:00,
2013-06-26 09:12:00,77.7,74.6,30.18,ESE,112,0.0,0.0,90,0.00,,---,0.12,VWS V15.00,2013-06-26 13:12:00,
2013-06-26 09:13:00,77.7,74.6,30.18,ESE,112,0.0,0.0,90,0.00,,---,0.12,VWS V15.00,2013-06-26 13:13:00,
2013-06-26 09:14:00,77.7,74.6,30.18,ESE,112,0.0,0.0,90,0.00,,---,0.12,VWS V15.00,2013-06-26 13:14:00,
2013-06-26 09:15:00,93.2,54.3,30.18,SE,130,5.4,5.4,27,0.00,,---,0.12,VWS V14.01,2013-06-26 13:15:00,
2013-06-26 09:16:00,77.7,74.6,30.18,ESE,112,0.0,0.0,90,0.00,,---,0.12,VWS V15.00,2013-06-26 13:16:00,
2013-06-26 09:17:00,93.6,52.5,30.18,SE,130,5.4,5.4,25,0.00,,---,0.12,VWS V15.00,2013-06-26 13:17:00,
2013-06-26 09:18:00,77.7,74.6,30.18,ESE,112,0.0,0.0,90,0.00,,---,0.12,VWS V15.00,2013-06-26 13:18:00,
2013-06-26 09:19:00,77.7,74.6,30.18,ESE,112,0.0,0.0,90,0.00,,---,0.12,VWS V15.00,2013-06-26 13:19:00,
2013-06-26 09:20:00,93.6,52.5,30.18,SE,125,5.8,5.8,25,0.00,,---,0.12,VWS V14.01,2013-06-26 13:20:00,
2013-06-26 09:21:00,77.7,74.6,30.18,East,84,0.0,0.0,90,0.00,,---,0.12,VWS V15.00,2013-06-26 13:21:00,
2013-06-26 09:22:00,77.7,74.6,30.18,East,84,0.0,0.0,90,0.00,,---,0.12,VWS V15.00,2013-06-26 13:22:00,
2013-06-26 09:23:00,77.7,74.6,30.18,East,84,0.0,0.0,90,0.00,,---,0.12,VWS V15.00,2013-06-26 13:23:00,
2013-06-26 09:24:00,77.7,74.6,30.18,East,84,0.0,0.0,90,0.00,,---,0.12,VWS V15.00,2013-06-26 13:24:00,
2013-06-26 09:25:00,93.9,49.3,30.18,ESE,103,5.8,5.8,22,0.00,,---,0.12,VWS V14.01,2013-06-26 13:25:00,
2013-06-26 09:26:00,77.7,74.6,30.18,East,84,0.0,0.0,90,0.00,,---,0.12,VWS V15.00,2013-06-26 13:26:00,
2013-06-26 09:27:00,82.6,63.2,30.18,East,84,0.0,0.0,52,0.00,,---,0.12,VWS V15.00,2013-06-26 13:27:00,
2013-06-26 09:28:00,82.6,63.2,30.18,ESE,109,0.0,0.0,52,0.00,,---,0.12,VWS V15.00,2013-06-26 13:28:00,
2013-06-26 09:29:00,82.6,65.3,30.18,ESE,109,0.0,0.0,56,0.00,,---,0.12,VWS V15.00,2013-06-26 13:29:00,
2013-06-26 09:30:00,93.7,50.4,30.18,East,93,5.4,5.4,23,0.00,,---,0.12,VWS V14.01,2013-06-26 13:30:00,
2013-06-26 09:31:00,82.6,65.3,30.18,ESE,109,0.0,0.0,56,0.00,,---,0.12,VWS V15.00,2013-06-26 13:31:00,
2013-06-26 09:32:00,93.7,50.4,30.18,SSE,147,3.6,3.6,23,0.00,,---,0.12,VWS V15.00,2013-06-26 13:32:00,
2013-06-26 09:33:00,82.6,65.3,30.18,ESE,109,0.0,0.0,56,0.00,,---,0.12,VWS V15.00,2013-06-26 13:33:00,
2013-06-26 09:34:00,92.7,50.6,30.18,SSE,147,3.6,3.6,24,0.00,,---,0.12,VWS V15.00,2013-06-26 13:34:00,
2013-06-26 09:35:00,92.7,50.6,30.18,SSE,147,3.6,3.6,24,0.00,,---,0.12,VWS V14.01,2013-06-26 13:35:00,
2013-06-26 09:36:00,84.9,59.3,30.18,ESE,109,0.0,0.0,42,0.00,,---,0.12,VWS V15.00,2013-06-26 13:36:00,
2013-06-26 09:37:00,84.9,59.3,30.18,East,85,2.2,2.2,42,0.00,,---,0.12,VWS V15.00,2013-06-26 13:37:00,
2013-06-26 09:38:00,84.9,59.3,30.18,East,85,2.2,2.2,42,0.00,,---,0.12,VWS V15.00,2013-06-26 13:38:00,
2013-06-26 09:39:00,87.4,57.2,30.18,ESE,115,3.1,3.1,36,0.00,,---,0.12,VWS V15.00,2013-06-26 13:39:00,
2013-06-26 09:40:00,90.5,49.9,30.18,SSE,163,5.4,5.4,25,0.00,,---,0.12,VWS V14.01,2013-06-26 13:40:00,
2013-06-26 09:41:00,87.4,57.2,30.18,ESE,115,3.1,3.1,36,0.00,,---,0.12,VWS V15.00,2013-06-26 13:41:00,
2013-06-26 09:42:00,88.3,55.6,30.18,ESE,115,3.1,3.1,33,0.00,,---,0.12,VWS V15.00,2013-06-26 13:42:00,
2013-06-26 09:43:00,88.3,55.6,30.18,ESE,115,3.1,3.1,33,0.00,,---,0.12,VWS V15.00,2013-06-26 13:43:00,
2013-06-26 09:44:00,89.2,55.5,30.18,East,94,4.0,4.0,32,0.00,,---,0.12,VWS V15.00,2013-06-26 13:44:00,
2013-06-26 09:45:00,89.6,53.2,30.18,SE,129,5.4,5.4,29,0.00,,---,0.12,VWS V14.01,2013-06-26 13:45:00,
2013-06-26 09:46:00,89.2,55.5,30.18,East,94,4.0,4.0,32,0.00,,---,0.12,VWS V15.00,2013-06-26 13:46:00,
2013-06-26 09:47:00,89.2,55.5,30.18,SE,131,0.0,4.0,32,0.00,,---,0.12,VWS V15.00,2013-06-26 13:47:00,
2013-06-26 09:48:00,89.2,55.5,30.18,SE,131,0.0,0.0,32,0.00,,---,0.12,VWS V15.00,2013-06-26 13:48:00,
2013-06-26 09:49:00,89.2,55.5,30.18,SE,131,0.0,0.0,32,0.00,,---,0.12,VWS V15.00,2013-06-26 13:49:00,
2013-06-26 09:50:00,91.6,52.9,30.18,ENE,70,3.1,3.1,27,0.00,,---,0.12,VWS V14.01,2013-06-26 13:50:00,
2013-06-26 09:51:00,91.2,54.5,30.18,SE,131,0.0,0.0,29,0.00,,---,0.12,VWS V15.00,2013-06-26 13:51:00,
2013-06-26 09:52:00,91.2,54.5,30.18,SE,131,0.0,0.0,29,0.00,,---,0.12,VWS V15.00,2013-06-26 13:52:00,
2013-06-26 09:53:00,91.2,54.5,30.18,SE,131,0.0,0.0,29,0.00,,---,0.12,VWS V15.00,2013-06-26 13:53:00,
2013-06-26 09:54:00,91.2,54.5,30.18,East,91,2.2,2.2,29,0.00,,---,0.12,VWS V15.00,2013-06-26 13:54:00,
2013-06-26 09:55:00,89.1,51.8,30.18,SSE,152,3.6,3.6,28,0.00,,---,0.12,VWS V14.01,2013-06-26 13:55:00,
2013-06-26 09:56:00,92.5,54.7,30.18,East,98,3.6,3.6,28,0.00,,---,0.12,VWS V15.00,2013-06-26 13:56:00,
2013-06-26 09:57:00,92.5,54.7,30.18,East,98,3.6,3.6,28,0.00,,---,0.12,VWS V15.00,2013-06-26 13:57:00,
2013-06-26 09:58:00,92.5,54.7,30.18,East,98,3.6,3.6,28,0.00,,---,0.12,VWS V15.00,2013-06-26 13:58:00,
2013-06-26 09:59:00,92.5,54.7,30.18,ENE,71,5.8,5.8,28,0.00,,---,0.12,VWS V15.00,2013-06-26 13:59:00,
2013-06-26 10:00:00,89.1,51.8,30.18,SSE,152,3.6,3.6,28,0.00,,---,0.12,VWS V14.01,2013-06-26 14:00:00,
2013-06-26 10:01:00,92.3,54.5,30.18,ENE,71,5.8,5.8,28,0.00,,---,0.12,VWS V15.00,2013-06-26 14:01:00,
2013-06-26 10:02:00,92.8,55.0,30.18,ENE,71,5.8,5.8,28,0.00,,---,0.12,VWS V15.00,2013-06-26 14:02:00,
2013-06-26 10:03:00,92.8,55.0,30.18,ENE,71,5.8,5.8,28,0.00,,---,0.12,VWS V15.00,2013-06-26 14:03:00,
2013-06-26 10:04:00,92.8,55.0,30.18,ENE,71,5.8,5.8,28,0.00,,---,0.12,VWS V15.00,2013-06-26 14:04:00,
2013-06-26 10:05:00,92.8,55.0,30.18,SE,134,5.8,5.8,28,0.00,,---,0.12,VWS V15.00,2013-06-26 14:05:00,
2013-06-26 10:06:00,89.1,50.8,30.18,ESE,116,5.8,5.8,27,0.00,,---,0.12,VWS V14.01,2013-06-26 14:06:00,
2013-06-26 10:07:00,92.8,55.0,30.18,ENE,76,2.7,5.8,28,0.00,,---,0.12,VWS V15.00,2013-06-26 14:07:00,
2013-06-26 10:08:00,92.8,55.0,30.18,ENE,76,2.7,2.7,28,0.00,,---,0.12,VWS V15.00,2013-06-26 14:08:00,
2013-06-26 10:09:00,92.8,55.0,30.18,ENE,76,2.7,2.7,28,0.00,,---,0.12,VWS V15.00,2013-06-26 14:09:00,
2013-06-26 10:10:00,92.8,54.0,30.18,South,179,5.4,5.4,27,0.00,,---,0.12,VWS V15.00,2013-06-26 14:10:00,
2013-06-26 10:11:00,88.3,51.1,30.18,East,92,4.9,4.9,28,0.00,,---,0.12,VWS V14.01,2013-06-26 14:11:00,
2013-06-26 10:12:00,93.2,54.3,30.18,SE,130,5.4,5.4,27,0.00,,---,0.12,VWS V15.00,2013-06-26 14:12:00,
2013-06-26 10:13:00,93.2,54.3,30.18,SE,130,5.4,5.4,27,0.00,,---,0.12,VWS V15.00,2013-06-26 14:13:00,
2013-06-26 10:14:00,93.2,54.3,30.18,SE,130,5.4,5.4,27,0.00,,---,0.12,VWS V15.00,2013-06-26 14:14:00,
2013-06-26 10:15:00,93.2,54.3,30.18,SE,130,5.4,5.4,27,0.00,,---,0.12,VWS V15.00,2013-06-26 14:15:00,
2013-06-26 10:16:00,87.6,51.5,30.18,SE,128,8.1,8.1,29,0.00,,---,0.12,VWS V14.01,2013-06-26 14:16:00,
2013-06-26 10:17:00,93.6,52.5,30.18,SE,130,5.4,5.4,25,0.00,,---,0.12,VWS V15.00,2013-06-26 14:17:00,
2013-06-26 10:18:00,93.6,52.5,30.18,SE,130,5.4,5.4,25,0.00,,---,0.12,VWS V15.00,2013-06-26 14:18:00,
2013-06-26 10:19:00,93.6,52.5,30.18,SE,130,5.4,5.4,25,0.00,,---,0.12,VWS V15.00,2013-06-26 14:19:00,
2013-06-26 10:20:00,93.6,52.5,30.18,SE,125,5.8,5.8,25,0.00,,---,0.12,VWS V15.00,2013-06-26 14:20:00,
2013-06-26 10:21:00,87.1,51.0,30.18,SE,138,8.7,8.7,29,0.00,,---,0.12,VWS V14.01,2013-06-26 14:21:00,
2013-06-26 10:22:00,93.6,52.5,30.18,ESE,103,5.8,5.8,25,0.00,,---,0.12,VWS V15.00,2013-06-26 14:22:00,
2013-06-26 10:23:00,93.7,49.2,30.18,ESE,103,5.8,5.8,22,0.00,,---,0.12,VWS V15.00,2013-06-26 14:23:00,
2013-06-26 10:24:00,93.9,49.3,30.18,ESE,103,5.8,5.8,22,0.00,,---,0.12,VWS V15.00,2013-06-26 14:24:00,
2013-06-26 10:25:00,93.9,49.3,30.18,ESE,103,5.8,5.8,22,0.00,,---,0.12,VWS V15.00,2013-06-26 14:25:00,
2013-06-26 10:26:00,93.0,49.8,30.18,South,169,8.1,8.1,23,0.00,,---,0.12,VWS V14.01,2013-06-26 14:26:00,
2013-06-26 10:27:00,93.4,48.9,30.18,East,93,5.4,5.8,22,0.00,,---,0.12,VWS V15.00,2013-06-26 14:27:00,
2013-06-26 10:28:00,93.7,50.4,30.18,East,93,5.4,5.4,23,0.00,,---,0.12,VWS V15.00,2013-06-26 14:28:00,
2013-06-26 10:29:00,93.7,50.4,30.18,East,93,5.4,5.4,23,0.00,,---,0.12,VWS V15.00,2013-06-26 14:29:00,
2013-06-26 10:30:00,93.7,50.4,30.18,East,93,5.4,5.4,23,0.00,,---,0.12,VWS V15.00,2013-06-26 14:30:00,
2013-06-26 10:31:00,94.3,48.4,30.18,ESE,109,4.0,8.1,21,0.00,,---,0.12,VWS V14.01,2013-06-26 14:31:00,
2013-06-26 10:32:00,93.7,50.4,30.18,SSE,147,3.6,3.6,23,0.00,,---,0.12,VWS V15.00,2013-06-26 14:32:00,
2013-06-26 10:33:00,93.7,50.4,30.18,SSE,147,3.6,3.6,23,0.00,,---,0.12,VWS V15.00,2013-06-26 14:33:00,
2013-06-26 10:34:00,92.7,50.6,30.18,SSE,147,3.6,3.6,24,0.00,,---,0.12,VWS V15.00,2013-06-26 14:34:00,
2013-06-26 10:35:00,92.7,50.6,30.18,SSE,147,3.6,3.6,24,0.00,,---,0.12,VWS V15.00,2013-06-26 14:35:00,
2013-06-26 10:36:00,95.7,48.3,30.18,ESE,102,8.3,8.3,20,0.00,,---,0.12,VWS V14.01,2013-06-26 14:36:00,
2013-06-26 10:37:00,92.7,50.6,30.18,South,179,5.4,5.4,24,0.00,,---,0.12,VWS V15.00,2013-06-26 14:37:00,
2013-06-26 10:38:00,90.5,49.9,30.18,South,179,5.4,5.4,25,0.00,,---,0.12,VWS V15.00,2013-06-26 14:38:00,
2013-06-26 10:39:00,90.5,49.9,30.18,SSE,163,5.4,5.4,25,0.00,,---,0.12,VWS V15.00,2013-06-26 14:39:00,
2013-06-26 10:40:00,90.5,49.9,30.18,SSE,163,5.4,5.4,25,0.00,,---,0.12,VWS V15.00,2013-06-26 14:40:00,
2013-06-26 10:41:00,96.3,47.3,30.18,SSE,152,6.3,6.3,19,0.00,,---,0.12,VWS V14.01,2013-06-26 14:41:00,
2013-06-26 10:42:00,90.5,49.9,30.18,SE,129,5.4,5.4,25,0.00,,---,0.12,VWS V15.00,2013-06-26 14:42:00,
2013-06-26 10:43:00,90.5,49.9,30.18,SE,129,5.4,5.4,25,0.00,,---,0.12,VWS V15.00,2013-06-26 14:43:00,
2013-06-26 10:44:00,90.5,49.9,30.18,SE,129,5.4,5.4,25,0.00,,---,0.12,VWS V15.00,2013-06-26 14:44:00,
2013-06-26 10:45:00,89.6,53.2,30.18,SE,129,5.4,5.4,29,0.00,,---,0.12,VWS V15.00,2013-06-26 14:45:00,
2013-06-26 10:46:00,95.5,46.8,30.18,SSE,147,5.8,8.3,19,0.00,,---,0.12,VWS V14.01,2013-06-26 14:46:00,
2013-06-26 10:47:00,89.6,53.2,30.18,SE,129,5.4,5.4,29,0.00,,---,0.12,VWS V15.00,2013-06-26 14:47:00,
2013-06-26 10:48:00,89.6,53.2,30.18,ENE,70,3.1,5.4,29,0.00,,---,0.12,VWS V15.00,2013-06-26 14:48:00,
2013-06-26 10:49:00,89.6,53.2,30.18,ENE,70,3.1,3.1,29,0.00,,---,0.12,VWS V15.00,2013-06-26 14:49:00,
2013-06-26 10:50:00,91.6,52.9,30.18,ENE,70,3.1,3.1,27,0.00,,---,0.12,VWS V15.00,2013-06-26 14:50:00,
2013-06-26 10:51:00,93.7,45.3,30.18,SE,129,8.1,8.1,19,0.00,,---,0.12,VWS V14.01,2013-06-26 14:51:00,
2013-06-26 10:52:00,91.6,52.9,30.18,ENE,70,3.1,3.1,27,0.00,,---,0.12,VWS V15.00,2013-06-26 14:52:00,
2013-06-26 10:53:00,89.8,51.4,30.18,SSE,158,3.1,3.1,27,0.00,,---,0.12,VWS V15.00,2013-06-26 14:53:00,
2013-06-26 10:54:00,89.8,51.4,30.18,SSE,158,3.1,3.1,27,0.00,,---,0.12,VWS V15.00,2013-06-26 14:54:00,
2013-06-26 10:55:00,89.1,51.8,30.18,SSE,152,3.6,3.6,28,0.00,,---,0.12,VWS V15.00,2013-06-26 14:55:00,
2013-06-26 10:56:00,89.1,51.8,30.18,SSE,152,3.6,3.6,28,0.00,,---,0.12,VWS V15.00,2013-06-26 14:56:00,
2013-06-26 10:57:00,92.5,45.6,30.18,ESE,113,5.4,5.4,20,0.00,,---,0.12,VWS V14.01,2013-06-26 14:57:00,
2013-06-26 10:58:00,89.1,51.8,30.18,SSE,152,3.6,3.6,28,0.00,,---,0.12,VWS V15.00,2013-06-26 14:58:00,
2013-06-26 10:59:00,89.1,51.8,30.18,SSE,152,3.6,3.6,28,0.00,,---,0.12,VWS V15.00,2013-06-26 14:59:00,
2013-06-26 11:00:00,89.1,51.8,30.18,SSE,152,3.6,3.6,28,0.00,,---,0.12,VWS V15.00,2013-06-26 15:00:00,
2013-06-26 11:01:00,89.1,51.8,30.18,SSE,152,3.6,3.6,28,0.00,,---,0.12,VWS V15.00,2013-06-26 15:01:00,
2013-06-26 11:02:00,94.3,45.7,30.18,East,86,5.8,5.8,19,0.00,,---,0.12,VWS V14.01,2013-06-26 15:02:00,
2013-06-26 11:03:00,89.1,51.8,30.18,ESE,116,5.8,5.8,28,0.00,,---,0.12,VWS V15.00,2013-06-26 15:03:00,
2013-06-26 11:04:00,89.1,51.8,30.18,ESE,116,5.8,5.8,28,0.00,,---,0.12,VWS V15.00,2013-06-26 15:04:00,
2013-06-26 11:05:00,89.1,50.8,30.18,ESE,116,5.8,5.8,27,0.00,,---,0.12,VWS V15.00,2013-06-26 15:05:00,
2013-06-26 11:06:00,88.9,51.6,30.18,ESE,116,5.8,5.8,28,0.00,,---,0.12,VWS V15.00,2013-06-26 15:06:00,
2013-06-26 11:07:00,96.3,45.9,30.18,ESE,118,7.6,7.6,18,0.00,,---,0.12,VWS V14.01,2013-06-26 15:07:00,
2013-06-26 11:08:00,88.7,51.4,30.18,ESE,116,5.8,5.8,28,0.00,,---,0.12,VWS V15.00,2013-06-26 15:08:00,
2013-06-26 11:09:00,88.3,51.1,30.18,ESE,116,5.8,5.8,28,0.00,,---,0.12,VWS V15.00,2013-06-26 15:09:00,
2013-06-26 11:10:00,88.3,51.1,30.18,East,92,4.9,10.1,28,0.00,,---,0.12,VWS V15.00,2013-06-26 15:10:00,
2013-06-26 11:11:00,88.3,51.1,30.18,East,92,4.9,4.9,28,0.00,,---,0.12,VWS V15.00,2013-06-26 15:11:00,
2013-06-26 11:12:00,97.3,45.3,30.18,SE,135,7.6,7.6,17,0.00,,---,0.12,VWS V14.01,2013-06-26 15:12:00,
2013-06-26 11:13:00,88.3,51.1,30.18,East,92,4.9,4.9,28,0.00,,---,0.12,VWS V15.00,2013-06-26 15:13:00,
2013-06-26 11:14:00,88.3,51.1,30.18,SE,128,8.1,8.1,28,0.00,,---,0.12,VWS V15.00,2013-06-26 15:14:00,
2013-06-26 11:15:00,88.3,51.1,30.18,SE,128,8.1,8.1,28,0.00,,---,0.12,VWS V15.00,2013-06-26 15:15:00,
2013-06-26 11:16:00,87.6,51.5,30.18,SE,128,8.1,8.1,29,0.00,,---,0.12,VWS V15.00,2013-06-26 15:16:00,
2013-06-26 11:17:00,96.1,44.3,30.18,SE,135,7.6,7.6,17,0.00,,---,0.12,VWS V14.01,2013-06-26 15:17:00,
2013-06-26 11:18:00,87.1,51.0,30.18,SE,128,8.1,8.1,29,0.00,,---,0.12,VWS V15.00,2013-06-26 15:18:00,
2013-06-26 11:19:00,87.1,51.0,30.18,SE,128,8.1,8.1,29,0.00,,---,0.12,VWS V15.00,2013-06-26 15:19:00,
2013-06-26 11:20:00,87.1,51.0,30.18,SE,138,8.7,8.7,29,0.00,,---,0.12,VWS V15.00,2013-06-26 15:20:00,
2013-06-26 11:21:00,88.9,51.6,30.18,SE,138,8.7,8.7,28,0.00,,---,0.12,VWS V15.00,2013-06-26 15:21:00,
2013-06-26 11:22:00,95.0,46.3,30.18,SSE,154,3.1,3.1,19,0.00,,---,0.12,VWS V14.01,2013-06-26 15:22:00,
2013-06-26 11:23:00,88.9,51.6,30.18,SE,130,3.1,3.1,28,0.00,,---,0.12,VWS V15.00,2013-06-26 15:23:00,
2013-06-26 11:24:00,91.9,50.0,30.18,SE,130,3.1,3.1,24,0.00,,---,0.12,VWS V15.00,2013-06-26 15:24:00,
2013-06-26 11:25:00,91.9,50.0,30.18,South,169,8.1,8.1,24,0.00,,---,0.12,VWS V15.00,2013-06-26 15:25:00,
2013-06-26 11:26:00,93.0,49.8,30.18,South,169,8.1,8.1,23,0.00,,---,0.12,VWS V15.00,2013-06-26 15:26:00,
2013-06-26 11:27:00,96.6,46.2,30.18,East,100,5.8,5.8,18,0.00,,---,0.12,VWS V14.01,2013-06-26 15:27:00,
2013-06-26 11:28:00,94.3,48.4,30.18,South,169,8.1,8.1,21,0.00,,---,0.12,VWS V15.00,2013-06-26 15:28:00,
2013-06-26 11:29:00,94.3,48.4,30.18,South,169,8.1,8.1,21,0.00,,---,0.12,VWS V15.00,2013-06-26 15:29:00,
2013-06-26 11:30:00,94.3,48.4,30.18,South,169,8.1,8.1,21,0.00,,---,0.12,VWS V15.00,2013-06-26 15:30:00,
2013-06-26 11:31:00,94.3,48.4,30.18,ESE,109,4.0,8.1,21,0.00,,---,0.12,VWS V15.00,2013-06-26 15:31:00,
2013-06-26 11:32:00,94.8,44.8,30.18,SE,139,8.1,8.7,18,0.00,,---,0.12,VWS V14.01,2013-06-26 15:32:00,
2013-06-26 11:33:00,95.7,48.3,30.18,ESE,109,4.0,4.0,20,0.00,,---,0.12,VWS V15.00,2013-06-26 15:33:00,
2013-06-26 11:34:00,95.7,48.3,30.18,East,88,4.0,4.0,20,0.00,,---,0.12,VWS V15.00,2013-06-26 15:34:00,
2013-06-26 11:35:00,95.7,48.3,30.18,East,88,4.0,4.0,20,0.00,,---,0.12,VWS V15.00,2013-06-26 15:35:00,
2013-06-26 11:36:00,95.7,48.3,30.18,ESE,102,8.3,8.3,20,0.00,,---,0.12,VWS V15.00,2013-06-26 15:36:00,
2013-06-26 11:37:00,94.5,47.2,30.18,ESE,107,5.8,5.8,20,0.00,,---,0.12,VWS V14.01,2013-06-26 15:37:00,
2013-06-26 11:38:00,96.3,47.3,30.18,East,87,4.0,8.3,19,0.00,,---,0.12,VWS V15.00,2013-06-26 15:38:00,
2013-06-26 11:39:00,96.3,47.3,30.18,SE,142,4.0,4.0,19,0.00,,---,0.12,VWS V15.00,2013-06-26 15:39:00,
2013-06-26 11:40:00,96.3,47.3,30.18,SE,142,4.0,4.0,19,0.00,,---,0.12,VWS V15.00,2013-06-26 15:40:00,
2013-06-26 11:41:00,97.0,45.0,30.18,SSE,152,6.3,6.3,17,0.00,,---,0.12,VWS V15.00,2013-06-26 15:41:00,
2013-06-26 11:42:00,95.4,45.2,30.18,SE,126,6.3,6.3,18,0.00,,---,0.12,VWS V14.01,2013-06-26 15:42:00,
2013-06-26 11:43:00,95.5,46.8,30.18,SSE,152,6.3,6.3,19,0.00,,---,0.12,VWS V15.00,2013-06-26 15:43:00,
2013-06-26 11:44:00,95.5,46.8,30.18,SSE,152,6.3,6.3,19,0.00,,---,0.12,VWS V15.00,2013-06-26 15:44:00,
2013-06-26 11:45:00,95.5,46.8,30.18,ESE,123,8.3,8.3,19,0.00,,---,0.12,VWS V15.00,2013-06-26 15:45:00,
2013-06-26 11:46:00,95.5,46.8,30.18,ESE,123,8.3,8.3,19,0.00,,---,0.12,VWS V15.00,2013-06-26 15:46:00,
2013-06-26 11:47:00,93.9,44.0,30.18,SE,128,8.7,8.7,18,0.00,,---,0.12,VWS V14.01,2013-06-26 15:47:00,
2013-06-26 11:48:00,95.5,46.8,30.18,SE,129,8.1,8.1,19,0.00,,---,0.12,VWS V15.00,2013-06-26 15:48:00,
2013-06-26 11:49:00,92.8,45.9,30.18,SE,129,8.1,8.1,20,0.00,,---,0.12,VWS V15.00,2013-06-26 15:49:00,
2013-06-26 11:50:00,93.6,45.2,30.18,SE,129,8.1,8.1,19,0.00,,---,0.12,VWS V15.00,2013-06-26 15:50:00,
2013-06-26 11:51:00,93.7,45.3,30.18,SE,129,8.1,8.1,19,0.00,,---,0.12,VWS V15.00,2013-06-26 15:51:00,
2013-06-26 11:52:00,93.0,46.1,30.18,East,92,5.4,8.1,20,0.00,,---,0.12,VWS V15.00,2013-06-26 15:52:00,
2013-06-26 11:53:00,93.7,43.9,30.18,SE,140,4.0,4.0,18,0.00,,---,0.12,VWS V14.01,2013-06-26 15:53:00,
2013-06-26 11:54:00,92.5,45.6,30.18,SSE,166,3.1,3.1,20,0.00,,---,0.12,VWS V15.00,2013-06-26 15:54:00,
2013-06-26 11:55:00,92.5,45.6,30.18,SSE,166,3.1,3.1,20,0.00,,---,0.12,VWS V15.00,2013-06-26 15:55:00,
2013-06-26 11:56:00,92.5,45.6,30.18,ESE,113,5.4,5.4,20,0.00,,---,0.12,VWS V15.00,2013-06-26 15:56:00,
2013-06-26 11:57:00,92.5,45.6,30.18,SE,129,5.8,5.8,20,0.00,,---,0.12,VWS V15.00,2013-06-26 15:57:00,
2013-06-26 11:58:00,92.7,45.8,30.18,ESE,120,2.7,2.7,20,0.00,,---,0.12,VWS V14.01,2013-06-26 15:58:00,
2013-06-26 11:59:00,90.7,46.7,30.18,East,99,2.7,2.7,22,0.00,,---,0.12,VWS V15.00,2013-06-26 15:59:00,
2013-06-26 12:00:00,92.5,45.6,30.18,SE,129,5.8,5.8,20,0.00,,---,0.12,VWS V15.00,2013-06-26 16:00:00,
2013-06-26 12:01:00,94.3,45.7,30.18,East,86,5.8,5.8,19,0.00,,---,0.12,VWS V15.00,2013-06-26 16:01:00,
2013-06-26 12:02:00,94.3,45.7,30.18,East,86,5.8,5.8,19,0.00,,---,0.12,VWS V15.00,2013-06-26 16:02:00,
2013-06-26 12:03:00,90.1,47.4,30.18,South,175,3.6,5.4,23,0.00,,---,0.12,VWS V14.01,2013-06-26 16:03:00,
2013-06-26 12:04:00,96.3,45.9,30.18,ESE,110,3.1,3.1,18,0.00,,---,0.12,VWS V15.00,2013-06-26 16:04:00,
2013-06-26 12:05:00,96.3,45.9,30.18,ESE,110,3.1,3.1,18,0.00,,---,0.12,VWS V15.00,2013-06-26 16:05:00,
2013-06-26 12:06:00,96.3,45.9,30.18,ESE,118,7.6,7.6,18,0.00,,---,0.12,VWS V15.00,2013-06-26 16:06:00,
2013-06-26 12:07:00,95.7,45.5,30.18,East,98,5.4,7.6,18,0.00,,---,0.12,VWS V15.00,2013-06-26 16:07:00,
2013-06-26 12:08:00,92.8,50.8,30.18,ESE,116,4.0,4.0,24,0.00,,---,0.12,VWS V14.01,2013-06-26 16:08:00,
2013-06-26 12:09:00,97.2,45.1,30.18,ESE,108,5.4,5.4,17,0.00,,---,0.12,VWS V15.00,2013-06-26 16:09:00,
2013-06-26 12:10:00,97.2,45.1,30.18,SE,135,7.6,7.6,17,0.00,,---,0.12,VWS V15.00,2013-06-26 16:10:00,
2013-06-26 12:11:00,97.3,45.3,30.18,SE,135,7.6,7.6,17,0.00,,---,0.12,VWS V15.00,2013-06-26 16:11:00,
2013-06-26 12:12:00,97.3,45.3,30.18,SE,135,7.6,7.6,17,0.00,,---,0.12,VWS V15.00,2013-06-26 16:12:00,
2013-06-26 12:13:00,93.9,44.0,30.18,ESE,112,6.3,7.6,18,0.00,,---,0.12,VWS V14.01,2013-06-26 16:13:00,
2013-06-26 12:14:00,97.3,45.3,30.18,SE,135,7.6,7.6,17,0.00,,---,0.12,VWS V15.00,2013-06-26 16:14:00,
2013-06-26 12:15:00,97.3,45.3,30.18,SE,135,7.6,7.6,17,0.00,,---,0.12,VWS V15.00,2013-06-26 16:15:00,
2013-06-26 12:16:00,96.8,44.8,30.18,SE,135,7.6,7.6,17,0.00,,---,0.12,VWS V15.00,2013-06-26 16:16:00,
2013-06-26 12:17:00,96.1,44.3,30.18,SE,135,7.6,7.6,17,0.00,,---,0.12,VWS V15.00,2013-06-26 16:17:00,
2013-06-26 12:18:00,95.4,45.2,30.18,SSE,164,2.7,2.7,18,0.00,,---,0.12,VWS V14.01,2013-06-26 16:18:00,
2013-06-26 12:19:00,96.1,44.3,30.18,ESE,105,4.9,7.6,17,0.00,,---,0.12,VWS V15.00,2013-06-26 16:19:00,
2013-06-26 12:20:00,93.9,45.4,30.18,ESE,105,4.9,4.9,19,0.00,,---,0.12,VWS V15.00,2013-06-26 16:20:00,
2013-06-26 12:21:00,93.9,45.4,30.18,SSE,154,3.1,4.9,19,0.00,,---,0.12,VWS V15.00,2013-06-26 16:21:00,
2013-06-26 12:22:00,95.0,46.3,30.18,SSE,154,3.1,3.1,19,0.00,,---,0.12,VWS V15.00,2013-06-26 16:22:00,
2013-06-26 12:23:00,96.1,44.3,30.18,South,180,5.4,5.4,17,0.00,,---,0.12,VWS V14.01,2013-06-26 16:23:00,
2013-06-26 12:24:00,95.0,46.3,30.18,East,86,5.8,5.8,19,0.00,,---,0.12,VWS V15.00,2013-06-26 16:24:00,
2013-06-26 12:25:00,96.4,46.1,30.18,East,100,5.8,5.8,18,0.00,,---,0.12,VWS V15.00,2013-06-26 16:25:00,
2013-06-26 12:26:00,96.4,46.1,30.18,East,100,5.8,5.8,18,0.00,,---,0.12,VWS V15.00,2013-06-26 16:26:00,
2013-06-26 12:27:00,96.6,46.2,30.18,East,100,5.8,5.8,18,0.00,,---,0.12,VWS V15.00,2013-06-26 16:27:00,
2013-06-26 12:28:00,97.9,45.7,30.18,SE,124,2.7,2.7,17,0.00,,---,0.12,VWS V14.01,2013-06-26 16:28:00,
2013-06-26 12:29:00,96.6,46.2,30.18,SE,140,5.4,5.8,18,0.00,,---,0.12,VWS V15.00,2013-06-26 16:29:00,
2013-06-26 12:30:00,96.6,46.2,30.18,East,100,7.6,7.6,18,0.00,,---,0.12,VWS V15.00,2013-06-26 16:30:00,
2013-06-26 12:31:00,96.6,46.2,30.18,ESE,109,8.7,8.7,18,0.00,,---,0.12,VWS V15.00,2013-06-26 16:31:00,
2013-06-26 12:32:00,94.8,44.8,30.18,SE,139,8.1,8.7,18,0.00,,---,0.12,VWS V15.00,2013-06-26 16:32:00,
2013-06-26 12:33:00,95.4,45.2,30.18,SSE,147,8.1,8.1,18,0.00,,---,0.12,VWS V14.01,2013-06-26 16:33:00,
2013-06-26 12:34:00,94.8,44.8,30.18,SE,139,8.1,8.1,18,0.00,,---,0.12,VWS V15.00,2013-06-26 16:34:00,
2013-06-26 12:35:00,94.6,46.0,30.18,SE,139,8.1,8.1,19,0.00,,---,0.12,VWS V15.00,2013-06-26 16:35:00,
2013-06-26 12:36:00,94.6,46.0,30.18,ESE,107,5.8,8.1,19,0.00,,---,0.12,VWS V15.00,2013-06-26 16:36:00,
2013-06-26 12:37:00,94.5,47.2,30.18,ESE,107,5.8,5.8,20,0.00,,---,0.12,VWS V15.00,2013-06-26 16:37:00,
2013-06-26 12:38:00,95.4,46.6,30.18,East,89,5.8,6.3,19,0.00,,---,0.12,VWS V14.01,2013-06-26 16:38:00,
2013-06-26 12:39:00,95.9,45.6,30.18,ESE,107,5.8,5.8,18,0.00,,---,0.12,VWS V15.00,2013-06-26 16:39:00,
2013-06-26 12:40:00,95.9,45.6,30.18,ESE,122,4.0,5.8,18,0.00,,---,0.12,VWS V15.00,2013-06-26 16:40:00,
2013-06-26 12:41:00,95.9,45.6,30.18,SE,126,6.3,6.3,18,0.00,,---,0.12,VWS V15.00,2013-06-26 16:41:00,
2013-06-26 12:42:00,95.4,45.2,30.18,SE,126,6.3,6.3,18,0.00,,---,0.12,VWS V15.00,2013-06-26 16:42:00,
2013-06-26 12:43:00,93.9,45.4,30.18,SSE,164,6.3,6.3,19,0.00,,---,0.12,VWS V14.01,2013-06-26 16:43:00,
2013-06-26 12:44:00,96.1,45.8,30.18,SE,126,6.3,6.3,18,0.00,,---,0.12,VWS V15.00,2013-06-26 16:44:00,
2013-06-26 12:45:00,96.1,45.8,30.18,SE,138,5.4,6.3,18,0.00,,---,0.12,VWS V15.00,2013-06-26 16:45:00,
2013-06-26 12:46:00,96.1,45.8,30.18,SE,138,5.4,5.4,18,0.00,,---,0.12,VWS V15.00,2013-06-26 16:46:00,
2013-06-26 12:47:00,93.9,44.0,30.18,SE,128,8.7,8.7,18,0.00,,---,0.12,VWS V15.00,2013-06-26 16:47:00,
2013-06-26 12:48:00,97.0,45.0,30.21,ESE,118,5.4,5.4,17,0.00,,---,0.12,VWS V14.01,2013-06-26 16:48:00,
2013-06-26 12:49:00,93.9,44.0,30.18,ESE,110,8.7,8.7,18,0.00,,---,0.12,VWS V15.00,2013-06-26 16:49:00,
2013-06-26 12:50:00,93.9,44.0,30.18,ESE,110,8.7,8.7,18,0.00,,---,0.12,VWS V15.00,2013-06-26 16:50:00,
2013-06-26 12:51:00,93.4,45.0,30.18,ENE,77,6.3,8.7,19,0.00,,---,0.12,VWS V15.00,2013-06-26 16:51:00,
2013-06-26 12:52:00,93.4,45.0,30.18,SE,140,4.0,6.3,19,0.00,,---,0.12,VWS V15.00,2013-06-26 16:52:00,
2013-06-26 12:53:00,93.7,43.9,30.18,SE,140,4.0,4.0,18,0.00,,---,0.12,VWS V15.00,2013-06-26 16:53:00,
2013-06-26 12:54:00,96.1,44.3,30.21,South,172,8.3,8.3,17,0.00,,---,0.12,VWS V14.01,2013-06-26 16:54:00,
2013-06-26 12:55:00,92.7,45.8,30.18,ESE,122,8.3,8.3,20,0.00,,---,0.12,VWS V15.00,2013-06-26 16:55:00,
2013-06-26 12:56:00,92.7,45.8,30.18,ESE,122,8.3,8.3,20,0.00,,---,0.12,VWS V15.00,2013-06-26 16:56:00,
2013-06-26 12:57:00,92.7,45.8,30.18,ESE,120,2.7,8.3,20,0.00,,---,0.12,VWS V15.00,2013-06-26 16:57:00,
2013-06-26 12:58:00,92.7,45.8,30.18,East,99,2.7,2.7,20,0.00,,---,0.12,VWS V15.00,2013-06-26 16:58:00,
2013-06-26 12:59:00,94.3,44.3,30.21,ESE,118,5.8,5.8,18,0.00,,---,0.12,VWS V14.01,2013-06-26 16:59:00,
2013-06-26 13:00:00,90.7,46.7,30.18,East,99,2.7,2.7,22,0.00,,---,0.12,VWS V15.00,2013-06-26 17:00:00,
2013-06-26 13:01:00,90.7,46.7,30.18,East,99,2.7,2.7,22,0.00,,---,0.12,VWS V15.00,2013-06-26 17:01:00,
2013-06-26 13:02:00,90.1,46.2,30.18,South,179,5.4,5.4,22,0.00,,---,0.12,VWS V15.00,2013-06-26 17:02:00,
2013-06-26 13:03:00,90.1,47.4,30.18,South,175,3.6,5.4,23,0.00,,---,0.12,VWS V15.00,2013-06-26 17:03:00,
2013-06-26 13:04:00,95.9,47.0,30.18,ENE,64,5.8,5.8,19,0.00,,---,0.12,VWS V14.01,2013-06-26 17:04:00,
2013-06-26 13:05:00,88.9,48.5,30.18,North,2,4.0,4.0,25,0.00,,---,0.12,VWS V15.00,2013-06-26 17:05:00,
2013-06-26 13:06:00,88.9,48.5,30.18,North,2,4.0,4.0,25,0.00,,---,0.12,VWS V15.00,2013-06-26 17:06:00,
2013-06-26 13:07:00,88.9,48.5,30.18,North,5,4.0,4.0,25,0.00,,---,0.12,VWS V15.00,2013-06-26 17:07:00,
2013-06-26 13:08:00,92.8,50.8,30.18,ESE,116,4.0,4.0,24,0.00,,---,0.12,VWS V15.00,2013-06-26 17:08:00,
2013-06-26 13:09:00,96.4,46.1,30.18,ESE,105,8.1,8.1,18,0.00,,---,0.12,VWS V14.01,2013-06-26 17:09:00,
2013-06-26 13:10:00,91.2,47.1,30.18,East,90,7.6,7.6,22,0.00,,---,0.12,VWS V15.00,2013-06-26 17:10:00,
2013-06-26 13:11:00,91.2,47.1,30.18,East,90,7.6,7.6,22,0.00,,---,0.12,VWS V15.00,2013-06-26 17:11:00,
2013-06-26 13:12:00,91.2,47.1,30.18,East,90,7.6,7.6,22,0.00,,---,0.12,VWS V15.00,2013-06-26 17:12:00,
2013-06-26 13:13:00,93.9,44.0,30.18,ESE,112,6.3,7.6,18,0.00,,---,0.12,VWS V15.00,2013-06-26 17:13:00,
2013-06-26 13:14:00,96.8,44.8,30.18,ESE,116,8.1,8.1,17,0.00,,---,0.12,VWS V14.01,2013-06-26 17:14:00,
2013-06-26 13:15:00,94.8,44.8,30.18,SE,130,7.6,7.6,18,0.00,,---,0.12,VWS V15.00,2013-06-26 17:15:00,
2013-06-26 13:16:00,95.4,45.2,30.18,ESE,116,8.7,8.7,18,0.00,,---,0.12,VWS V15.00,2013-06-26 17:16:00,
2013-06-26 13:17:00,95.4,45.2,30.18,SSE,164,2.7,8.7,18,0.00,,---,0.12,VWS V15.00,2013-06-26 17:17:00,
2013-06-26 13:18:00,95.9,44.1,30.18,SSE,164,2.7,2.7,17,0.00,,---,0.12,VWS V15.00,2013-06-26 17:18:00,
2013-06-26 13:19:00,95.9,44.1,30.18,ESE,113,3.6,3.6,17,0.00,,---,0.12,VWS V15.00,2013-06-26 17:19:00,
2013-06-26 13:20:00,96.1,44.3,30.18,East,96,2.7,3.6,17,0.00,,---,0.12,VWS V15.00,2013-06-26 17:20:00,
2013-06-26 13:21:00,94.8,44.8,30.18,SSE,154,5.4,5.4,18,0.00,,---,0.12,VWS V14.01,2013-06-26 17:21:00,
2013-06-26 13:22:00,96.1,44.3,30.18,SE,125,4.9,4.9,17,0.00,,---,0.12,VWS V15.00,2013-06-26 17:22:00,
2013-06-26 13:23:00,96.1,44.3,30.18,South,180,5.4,5.4,17,0.00,,---,0.12,VWS V15.00,2013-06-26 17:23:00,
2013-06-26 13:24:00,96.1,44.3,30.18,South,180,5.4,5.4,17,0.00,,---,0.12,VWS V15.00,2013-06-26 17:24:00,
2013-06-26 13:25:00,97.7,45.6,30.18,SE,131,5.8,5.8,17,0.00,,---,0.12,VWS V15.00,2013-06-26 17:25:00,
2013-06-26 13:26:00,96.1,47.2,30.18,SSE,147,6.3,6.3,19,0.00,,---,0.12,VWS V14.01,2013-06-26 17:26:00,
2013-06-26 13:27:00,97.9,45.7,30.18,SE,124,2.7,5.8,17,0.00,,---,0.12,VWS V15.00,2013-06-26 17:27:00,
2013-06-26 13:28:00,97.9,45.7,30.18,SE,124,2.7,2.7,17,0.00,,---,0.12,VWS V15.00,2013-06-26 17:28:00,
2013-06-26 13:29:00,97.9,45.7,30.18,SE,124,2.7,2.7,17,0.00,,---,0.12,VWS V15.00,2013-06-26 17:29:00,
2013-06-26 13:30:00,97.9,45.7,30.18,SE,145,4.5,4.5,17,0.00,,---,0.12,VWS V15.00,2013-06-26 17:30:00,
2013-06-26 13:31:00,97.5,45.4,30.18,SE,132,4.9,5.8,17,0.00,,---,0.12,VWS V14.01,2013-06-26 17:31:00,
2013-06-26 13:32:00,97.0,45.0,30.18,SSE,147,8.1,10.5,17,0.00,,---,0.12,VWS V15.00,2013-06-26 17:32:00,
2013-06-26 13:33:00,95.4,45.2,30.18,SSE,147,8.1,8.1,18,0.00,,---,0.12,VWS V15.00,2013-06-26 17:33:00,
2013-06-26 13:34:00,95.2,45.0,30.18,SSE,147,8.1,8.1,18,0.00,,---,0.12,VWS V15.00,2013-06-26 17:34:00,
2013-06-26 13:35:00,95.2,45.0,30.18,ESE,111,10.5,10.5,18,0.00,,---,0.12,VWS V15.00,2013-06-26 17:35:00,
2013-06-26 13:36:00,96.4,44.6,30.18,NE,52,5.4,5.8,17,0.00,,---,0.12,VWS V14.01,2013-06-26 17:36:00,
2013-06-26 13:37:00,95.4,46.6,30.18,SSE,155,6.3,6.3,19,0.00,,---,0.12,VWS V15.00,2013-06-26 17:37:00,
2013-06-26 13:38:00,95.4,46.6,30.18,East,89,5.8,6.3,19,0.00,,---,0.12,VWS V15.00,2013-06-26 17:38:00,
2013-06-26 13:39:00,95.4,46.6,30.18,East,89,5.8,5.8,19,0.00,,---,0.12,VWS V15.00,2013-06-26 17:39:00,
2013-06-26 13:40:00,95.4,46.6,30.18,East,89,5.8,5.8,19,0.00,,---,0.12,VWS V15.00,2013-06-26 17:40:00,
2013-06-26 13:41:00,96.1,44.3,30.18,SE,130,4.0,5.4,17,0.00,,---,0.12,VWS V14.01,2013-06-26 17:41:00,
2013-06-26 13:42:00,93.9,45.4,30.18,ESE,104,4.0,4.0,19,0.00,,---,0.12,VWS V15.00,2013-06-26 17:42:00,
2013-06-26 13:43:00,93.9,45.4,30.18,SSE,164,6.3,6.3,19,0.00,,---,0.12,VWS V15.00,2013-06-26 17:43:00,
2013-06-26 13:44:00,93.9,45.4,30.18,SSE,164,6.3,6.3,19,0.00,,---,0.12,VWS V15.00,2013-06-26 17:44:00,
2013-06-26 13:45:00,95.4,46.6,30.18,SSE,164,6.3,6.3,19,0.00,,---,0.12,VWS V15.00,2013-06-26 17:45:00,
2013-06-26 13:46:00,93.7,43.9,30.18,ESE,118,5.4,5.8,18,0.00,,---,0.12,VWS V14.01,2013-06-26 17:46:00,
2013-06-26 13:47:00,96.3,47.3,30.21,ESE,118,5.4,5.4,19,0.00,,---,0.12,VWS V15.00,2013-06-26 17:47:00,
2013-06-26 13:48:00,96.4,44.6,30.21,ESE,118,5.4,5.4,17,0.00,,---,0.12,VWS V15.00,2013-06-26 17:48:00,
2013-06-26 13:49:00,96.3,44.4,30.21,ESE,118,5.4,5.4,17,0.00,,---,0.12,VWS V15.00,2013-06-26 17:49:00,
2013-06-26 13:50:00,96.3,44.4,30.21,ESE,118,5.4,5.4,17,0.00,,---,0.12,VWS V15.00,2013-06-26 17:50:00,
2013-06-26 13:51:00,95.5,43.8,30.18,East,100,6.3,6.3,17,0.00,,---,0.12,VWS V14.01,2013-06-26 17:51:00,
2013-06-26 13:52:00,95.0,43.4,30.21,SE,136,5.4,6.3,17,0.00,,---,0.12,VWS V15.00,2013-06-26 17:52:00,
2013-06-26 13:53:00,96.1,44.3,30.21,SE,136,5.4,5.4,17,0.00,,---,0.12,VWS V15.00,2013-06-26 17:53:00,
2013-06-26 13:54:00,96.1,44.3,30.21,SE,128,4.0,8.3,17,0.00,,---,0.12,VWS V15.00,2013-06-26 17:54:00,
2013-06-26 13:55:00,96.1,44.3,30.21,SE,128,4.0,4.0,17,0.00,,---,0.12,VWS V15.00,2013-06-26 17:55:00,
2013-06-26 13:56:00,95.9,44.1,30.18,SE,135,5.8,5.8,17,0.00,,---,0.12,VWS V14.01,2013-06-26 17:56:00,
2013-06-26 13:57:00,96.1,44.3,30.21,ENE,59,5.8,5.8,17,0.00,,---,0.12,VWS V15.00,2013-06-26 17:57:00,
2013-06-26 13:58:00,94.3,44.3,30.21,ESE,118,5.8,6.3,18,0.00,,---,0.12,VWS V15.00,2013-06-26 17:58:00,
2013-06-26 13:59:00,94.3,44.3,30.21,ESE,118,5.8,5.8,18,0.00,,---,0.12,VWS V15.00,2013-06-26 17:59:00,
2013-06-26 14:00:00,94.3,44.3,30.21,ESE,118,5.8,5.8,18,0.00,,---,0.12,VWS V15.00,2013-06-26 18:00:00,
2013-06-26 14:01:00,95.0,44.9,30.18,SW,234,5.4,5.4,18,0.00,,---,0.12,VWS V14.01,2013-06-26 18:01:00,
2013-06-26 14:02:00,95.5,43.8,30.21,SE,133,9.6,9.6,17,0.00,,---,0.12,VWS V15.00,2013-06-26 18:02:00,
2013-06-26 14:03:00,95.9,47.0,30.18,ENE,64,5.8,9.6,19,0.00,,---,0.12,VWS V15.00,2013-06-26 18:03:00,
2013-06-26 14:04:00,95.9,47.0,30.18,ENE,64,5.8,5.8,19,0.00,,---,0.12,VWS V15.00,2013-06-26 18:04:00,
2013-06-26 14:05:00,95.9,47.0,30.18,East,99,5.8,5.8,19,0.00,,---,0.12,VWS V15.00,2013-06-26 18:05:00,
2013-06-26 14:06:00,95.9,47.0,30.18,East,100,5.4,5.8,19,0.00,,---,0.12,VWS V15.00,2013-06-26 18:06:00,
2013-06-26 14:07:00,95.4,43.7,30.18,SE,131,7.6,7.6,17,0.00,,---,0.12,VWS V14.01,2013-06-26 18:07:00,
2013-06-26 14:08:00,96.4,46.1,30.18,ESE,105,8.1,8.1,18,0.00,,---,0.12,VWS V15.00,2013-06-26 18:08:00,
2013-06-26 14:09:00,96.4,46.1,30.18,ESE,106,3.6,8.1,18,0.00,,---,0.12,VWS V15.00,2013-06-26 18:09:00,
2013-06-26 14:10:00,96.4,44.6,30.18,SSE,157,5.4,5.4,17,0.00,,---,0.12,VWS V15.00,2013-06-26 18:10:00,
2013-06-26 14:11:00,96.6,44.7,30.18,SSE,157,5.4,5.4,17,0.00,,---,0.12,VWS V15.00,2013-06-26 18:11:00,
2013-06-26 14:12:00,96.6,44.7,30.18,SE,140,9.6,9.6,17,0.00,,---,0.12,VWS V14.01,2013-06-26 18:12:00,
2013-06-26 14:13:00,96.4,46.1,30.18,East,101,7.6,7.6,18,0.00,,---,0.12,VWS V15.00,2013-06-26 18:13:00,
2013-06-26 14:14:00,96.8,44.8,30.18,ESE,116,8.1,8.1,17,0.00,,---,0.12,VWS V15.00,2013-06-26 18:14:00,
2013-06-26 14:15:00,96.8,44.8,30.18,SE,134,6.3,8.1,17,0.00,,---,0.12,VWS V15.00,2013-06-26 18:15:00,
2013-06-26 14:16:00,96.8,44.8,30.18,ESE,108,5.4,6.3,17,0.00,,---,0.12,VWS V15.00,2013-06-26 18:16:00,
2013-06-26 14:17:00,96.4,44.6,30.18,South,170,8.3,8.3,17,0.00,,---,0.12,VWS V14.01,2013-06-26 18:17:00,
2013-06-26 14:18:00,96.1,47.2,30.18,ESE,108,6.3,6.3,19,0.00,,---,0.12,VWS V15.00,2013-06-26 18:18:00,
2013-06-26 14:19:00,94.8,44.8,30.18,ESE,108,6.3,6.3,18,0.00,,---,0.12,VWS V15.00,2013-06-26 18:19:00,
2013-06-26 14:20:00,94.8,44.8,30.18,SSE,154,5.4,6.3,18,0.00,,---,0.12,VWS V15.00,2013-06-26 18:20:00,
2013-06-26 14:21:00,94.8,44.8,30.18,SSE,154,5.4,5.4,18,0.00,,---,0.12,VWS V15.00,2013-06-26 18:21:00,
2013-06-26 14:22:00,96.6,44.7,30.18,ESE,122,7.2,7.2,17,0.00,,---,0.12,VWS V14.01,2013-06-26 18:22:00,
2013-06-26 14:23:00,94.8,44.8,30.18,SE,144,5.4,5.4,18,0.00,,---,0.12,VWS V15.00,2013-06-26 18:23:00,
2013-06-26 14:24:00,94.8,44.8,30.18,SSE,159,8.3,8.3,18,0.00,,---,0.12,VWS V15.00,2013-06-26 18:24:00,
2013-06-26 14:25:00,96.1,47.2,30.18,SSE,147,6.3,8.3,19,0.00,,---,0.12,VWS V15.00,2013-06-26 18:25:00,
2013-06-26 14:26:00,96.1,47.2,30.18,SSE,147,6.3,6.3,19,0.00,,---,0.12,VWS V15.00,2013-06-26 18:26:00,
2013-06-26 14:27:00,95.2,43.5,30.18,East,94,4.0,5.8,17,0.00,,---,0.12,VWS V14.01,2013-06-26 18:27:00,
2013-06-26 14:28:00,96.1,47.2,30.18,SSE,149,3.1,3.1,19,0.00,,---,0.12,VWS V15.00,2013-06-26 18:28:00,
2013-06-26 14:29:00,97.5,45.4,30.18,SE,141,5.8,5.8,17,0.00,,---,0.12,VWS V15.00,2013-06-26 18:29:00,
2013-06-26 14:30:00,97.5,45.4,30.18,SE,141,5.8,5.8,17,0.00,,---,0.12,VWS V15.00,2013-06-26 18:30:00,
2013-06-26 14:31:00,97.2,45.1,30.18,SE,132,4.9,5.8,17,0.00,,---,0.12,VWS V15.00,2013-06-26 18:31:00,
2013-06-26 14:32:00,96.3,42.8,30.18,SE,141,7.6,7.6,16,0.00,,---,0.12,VWS V14.01,2013-06-26 18:32:00,
2013-06-26 14:33:00,96.4,44.6,30.18,SSE,160,5.8,5.8,17,0.00,,---,0.12,VWS V15.00,2013-06-26 18:33:00,
2013-06-26 14:34:00,95.9,45.6,30.18,SSE,160,5.8,5.8,18,0.00,,---,0.12,VWS V15.00,2013-06-26 18:34:00,
2013-06-26 14:35:00,96.1,45.8,30.18,SSE,160,5.8,5.8,18,0.00,,---,0.12,VWS V15.00,2013-06-26 18:35:00,
2013-06-26 14:36:00,96.4,44.6,30.18,NE,52,5.4,5.8,17,0.00,,---,0.12,VWS V15.00,2013-06-26 18:36:00,
2013-06-26 14:37:00,95.9,42.5,30.15,ESE,103,5.4,6.3,16,0.00,,---,0.12,VWS V14.01,2013-06-26 18:37:00,
2013-06-26 14:38:00,95.9,44.1,30.18,East,96,12.3,12.3,17,0.00,,---,0.12,VWS V15.00,2013-06-26 18:38:00,
2013-06-26 14:39:00,96.3,44.4,30.18,ESE,112,5.4,12.3,17,0.00,,---,0.12,VWS V15.00,2013-06-26 18:39:00,
2013-06-26 14:40:00,96.3,45.9,30.18,ESE,112,5.4,5.4,18,0.00,,---,0.12,VWS V15.00,2013-06-26 18:40:00,
2013-06-26 14:41:00,96.1,44.3,30.18,SE,130,4.0,5.4,17,0.00,,---,0.12,VWS V15.00,2013-06-26 18:41:00,
2013-06-26 14:42:00,92.8,43.2,30.15,SE,138,6.3,8.1,18,0.00,,---,0.12,VWS V14.01,2013-06-26 18:42:00,
2013-06-26 14:43:00,96.3,44.4,30.18,ESE,109,7.2,7.2,17,0.00,,---,0.12,VWS V15.00,2013-06-26 18:43:00,
2013-06-26 14:44:00,94.1,44.2,30.18,ESE,109,7.2,7.2,18,0.00,,---,0.12,VWS V15.00,2013-06-26 18:44:00,
2013-06-26 14:45:00,93.6,43.7,30.18,South,176,5.8,7.2,18,0.00,,---,0.12,VWS V15.00,2013-06-26 18:45:00,
2013-06-26 14:46:00,94.1,44.2,30.18,ESE,118,5.4,5.8,18,0.00,,---,0.12,VWS V15.00,2013-06-26 18:46:00,
2013-06-26 14:47:00,94.1,45.6,30.18,ESE,114,9.2,9.2,19,0.00,,---,0.12,VWS V15.00,2013-06-26 18:47:00,
2013-06-26 14:48:00,94.5,43.0,30.15,ESE,118,3.1,3.1,17,0.00,,---,0.12,VWS V14.01,2013-06-26 18:48:00,
2013-06-26 14:49:00,94.5,45.9,30.18,ENE,61,5.8,9.2,19,0.00,,---,0.12,VWS V15.00,2013-06-26 18:49:00,
2013-06-26 14:50:00,94.1,47.0,30.18,East,100,6.3,6.3,20,0.00,,---,0.12,VWS V15.00,2013-06-26 18:50:00,
2013-06-26 14:51:00,95.5,43.8,30.18,East,100,6.3,6.3,17,0.00,,---,0.12,VWS V15.00,2013-06-26 18:51:00,
2013-06-26 14:52:00,95.4,45.2,30.18,East,100,6.3,6.3,18,0.00,,---,0.12,VWS V15.00,2013-06-26 18:52:00,
2013-06-26 14:53:00,93.4,42.1,30.15,ESE,110,8.7,8.7,17,0.00,,---,0.12,VWS V14.01,2013-06-26 18:53:00,
2013-06-26 14:54:00,95.7,44.0,30.18,East,87,5.4,6.3,17,0.00,,---,0.12,VWS V15.00,2013-06-26 18:54:00,
2013-06-26 14:55:00,95.9,44.1,30.18,East,87,5.4,5.4,17,0.00,,---,0.12,VWS V15.00,2013-06-26 18:55:00,
2013-06-26 14:56:00,95.9,44.1,30.18,SE,135,5.8,5.8,17,0.00,,---,0.12,VWS V15.00,2013-06-26 18:56:00,
2013-06-26 14:57:00,94.8,44.8,30.18,SE,135,5.8,5.8,18,0.00,,---,0.12,VWS V15.00,2013-06-26 18:57:00,
2013-06-26 14:58:00,93.0,43.3,30.15,ESE,114,4.0,4.0,18,0.00,,---,0.12,VWS V14.01,2013-06-26 18:58:00,
2013-06-26 14:59:00,94.6,44.6,30.18,SE,132,5.8,5.8,18,0.00,,---,0.12,VWS V15.00,2013-06-26 18:59:00,
2013-06-26 15:00:00,96.1,44.3,30.18,SSE,154,3.6,5.8,17,0.00,,---,0.12,VWS V15.00,2013-06-26 19:00:00,
2013-06-26 15:01:00,95.0,44.9,30.18,SW,234,5.4,5.4,18,0.00,,---,0.12,VWS V15.00,2013-06-26 19:01:00,
2013-06-26 15:02:00,96.1,44.3,30.18,SW,234,5.4,5.4,17,0.00,,---,0.12,VWS V15.00,2013-06-26 19:02:00,
2013-06-26 15:03:00,94.1,42.7,30.15,ESE,119,7.6,7.6,17,0.00,,---,0.12,VWS V14.01,2013-06-26 19:03:00,
2013-06-26 15:04:00,96.6,44.7,30.18,SW,234,5.4,5.4,17,0.00,,---,0.12,VWS V15.00,2013-06-26 19:04:00,
2013-06-26 15:05:00,96.3,44.4,30.18,SE,131,7.6,7.6,17,0.00,,---,0.12,VWS V15.00,2013-06-26 19:05:00,
2013-06-26 15:06:00,95.4,43.7,30.18,SE,131,7.6,7.6,17,0.00,,---,0.12,VWS V15.00,2013-06-26 19:06:00,
2013-06-26 15:07:00,95.4,43.7,30.18,SE,128,5.4,7.6,17,0.00,,---,0.12,VWS V15.00,2013-06-26 19:07:00,
2013-06-26 15:08:00,94.1,42.7,30.18,SE,126,7.6,7.6,17,0.00,,---,0.12,VWS V14.01,2013-06-26 19:08:00,
2013-06-26 15:09:00,96.4,44.6,30.18,SSE,151,8.7,8.7,17,0.00,,---,0.12,VWS V15.00,2013-06-26 19:09:00,
2013-06-26 15:10:00,95.4,43.7,30.18,SSE,151,8.7,8.7,17,0.00,,---,0.12,VWS V15.00,2013-06-26 19:10:00,
2013-06-26 15:11:00,96.4,44.6,30.18,SSE,151,8.7,8.7,17,0.00,,---,0.12,VWS V15.00,2013-06-26 19:11:00,
2013-06-26 15:12:00,96.6,44.7,30.18,SE,140,9.6,9.6,17,0.00,,---,0.12,VWS V15.00,2013-06-26 19:12:00,
2013-06-26 15:13:00,95.4,42.1,30.18,South,183,4.9,4.9,16,0.00,,---,0.12,VWS V14.01,2013-06-26 19:13:00,
2013-06-26 15:14:00,96.4,44.6,30.18,SE,126,6.3,9.6,17,0.00,,---,0.12,VWS V15.00,2013-06-26 19:14:00,
2013-06-26 15:15:00,95.9,44.1,30.18,SE,126,6.3,6.3,17,0.00,,---,0.12,VWS V15.00,2013-06-26 19:15:00,
2013-06-26 15:16:00,96.4,44.6,30.18,South,170,8.3,8.3,17,0.00,,---,0.12,VWS V15.00,2013-06-26 19:16:00,
2013-06-26 15:17:00,96.4,44.6,30.18,South,170,8.3,8.3,17,0.00,,---,0.12,VWS V15.00,2013-06-26 19:17:00,
2013-06-26 15:18:00,93.0,43.3,30.18,East,87,4.9,4.9,18,0.00,,---,0.12,VWS V14.01,2013-06-26 19:18:00,
2013-06-26 15:19:00,97.2,43.5,30.18,South,170,8.3,8.3,16,0.00,,---,0.12,VWS V15.00,2013-06-26 19:19:00,
2013-06-26 15:20:00,97.2,43.5,30.18,ESE,122,7.2,8.3,16,0.00,,---,0.12,VWS V15.00,2013-06-26 19:20:00,
2013-06-26 15:21:00,96.6,44.7,30.18,ESE,122,7.2,7.2,17,0.00,,---,0.12,VWS V15.00,2013-06-26 19:21:00,
2013-06-26 15:22:00,96.8,44.8,30.18,SE,131,5.4,7.2,17,0.00,,---,0.12,VWS V15.00,2013-06-26 19:22:00,
2013-06-26 15:23:00,92.1,44.0,30.18,SE,133,5.4,5.8,19,0.00,,---,0.12,VWS V14.01,2013-06-26 19:23:00,
2013-06-26 15:24:00,96.6,44.7,30.18,SE,128,5.8,5.8,17,0.00,,---,0.12,VWS V15.00,2013-06-26 19:24:00,
2013-06-26 15:25:00,96.1,44.3,30.18,SE,128,5.8,5.8,17,0.00,,---,0.12,VWS V15.00,2013-06-26 19:25:00,
2013-06-26 15:26:00,95.4,45.2,30.18,SE,128,5.8,5.8,18,0.00,,---,0.12,VWS V15.00,2013-06-26 19:26:00,
2013-06-26 15:27:00,94.6,44.6,30.18,East,94,4.0,5.8,18,0.00,,---,0.12,VWS V15.00,2013-06-26 19:27:00,
2013-06-26 15:28:00,91.9,42.4,30.18,SSE,163,8.3,8.3,18,0.00,,---,0.12,VWS V14.01,2013-06-26 19:28:00,
2013-06-26 15:29:00,96.6,43.1,30.18,SE,141,7.6,8.1,16,0.00,,---,0.12,VWS V15.00,2013-06-26 19:29:00,
2013-06-26 15:30:00,96.6,43.1,30.18,SE,141,7.6,7.6,16,0.00,,---,0.12,VWS V15.00,2013-06-26 19:30:00,
2013-06-26 15:31:00,96.6,43.1,30.18,SE,141,7.6,7.6,16,0.00,,---,0.12,VWS V15.00,2013-06-26 19:31:00,
2013-06-26 15:32:00,96.3,42.8,30.18,SE,141,7.6,7.6,16,0.00,,---,0.12,VWS V15.00,2013-06-26 19:32:00,
2013-06-26 15:33:00,91.9,42.4,30.18,ESE,121,8.3,8.3,18,0.00,,---,0.12,VWS V14.01,2013-06-26 19:33:00,
2013-06-26 15:34:00,94.6,43.1,30.15,East,88,6.3,6.3,17,0.00,,---,0.12,VWS V15.00,2013-06-26 19:34:00,
2013-06-26 15:35:00,95.9,42.5,30.15,East,88,6.3,6.3,16,0.00,,---,0.12,VWS V15.00,2013-06-26 19:35:00,
2013-06-26 15:36:00,95.9,42.5,30.15,East,88,6.3,6.3,16,0.00,,---,0.12,VWS V15.00,2013-06-26 19:36:00,
2013-06-26 15:37:00,95.9,42.5,30.15,ESE,103,5.4,6.3,16,0.00,,---,0.12,VWS V15.00,2013-06-26 19:37:00,
2013-06-26 15:38:00,92.8,43.2,30.15,South,180,6.3,8.7,18,0.00,,---,0.12,VWS V14.01,2013-06-26 19:38:00,
2013-06-26 15:39:00,93.4,43.6,30.15,NE,50,5.8,5.8,18,0.00,,---,0.12,VWS V15.00,2013-06-26 19:39:00,
2013-06-26 15:40:00,93.0,43.3,30.15,East,91,6.3,6.3,18,0.00,,---,0.12,VWS V15.00,2013-06-26 19:40:00,
2013-06-26 15:41:00,93.0,43.3,30.15,ENE,65,8.1,8.1,18,0.00,,---,0.12,VWS V15.00,2013-06-26 19:41:00,
2013-06-26 15:42:00,92.8,43.2,30.15,SE,138,6.3,8.1,18,0.00,,---,0.12,VWS V15.00,2013-06-26 19:42:00,
2013-06-26 15:43:00,93.4,42.1,30.15,SE,138,6.3,6.3,17,0.00,,---,0.12,VWS V15.00,2013-06-26 19:43:00,
2013-06-26 15:44:00,93.2,42.0,30.15,East,98,8.1,8.1,17,0.00,,---,0.12,VWS V14.01,2013-06-26 19:44:00,
2013-06-26 15:45:00,93.7,42.4,30.15,ESE,114,5.8,5.8,17,0.00,,---,0.12,VWS V15.00,2013-06-26 19:45:00,
2013-06-26 15:46:00,94.3,42.8,30.15,East,100,6.3,6.3,17,0.00,,---,0.12,VWS V15.00,2013-06-26 19:46:00,
2013-06-26 15:47:00,94.3,42.8,30.15,ESE,118,3.1,6.3,17,0.00,,---,0.12,VWS V15.00,2013-06-26 19:47:00,
2013-06-26 15:48:00,93.9,42.5,30.15,ESE,118,3.1,3.1,17,0.00,,---,0.12,VWS V15.00,2013-06-26 19:48:00,
2013-06-26 15:49:00,92.7,43.0,30.15,SSE,155,8.1,8.1,18,0.00,,---,0.12,VWS V14.01,2013-06-26 19:49:00,
2013-06-26 15:50:00,94.1,42.7,30.15,ESE,102,5.8,5.8,17,0.00,,---,0.12,VWS V15.00,2013-06-26 19:50:00,
2013-06-26 15:51:00,93.9,42.5,30.15,ESE,110,8.7,8.7,17,0.00,,---,0.12,VWS V15.00,2013-06-26 19:51:00,
2013-06-26 15:52:00,93.7,42.4,30.15,ESE,110,8.7,8.7,17,0.00,,---,0.12,VWS V15.00,2013-06-26 19:52:00,
2013-06-26 15:53:00,92.3,42.7,30.15,ESE,112,5.8,8.7,18,0.00,,---,0.12,VWS V15.00,2013-06-26 19:53:00,
2013-06-26 15:54:00,93.2,42.0,30.15,ENE,77,8.1,8.1,17,0.00,,---,0.12,VWS V14.01,2013-06-26 19:54:00,
2013-06-26 15:55:00,92.3,42.7,30.15,ENE,76,3.6,5.8,18,0.00,,---,0.12,VWS V15.00,2013-06-26 19:55:00,
2013-06-26 15:56:00,91.8,42.3,30.15,NE,43,5.8,5.8,18,0.00,,---,0.12,VWS V15.00,2013-06-26 19:56:00,
2013-06-26 15:57:00,93.0,43.3,30.15,ESE,114,4.0,5.8,18,0.00,,---,0.12,VWS V15.00,2013-06-26 19:57:00,
2013-06-26 15:58:00,92.3,42.7,30.15,ESE,114,4.0,4.0,18,0.00,,---,0.12,VWS V15.00,2013-06-26 19:58:00,
2013-06-26 15:59:00,92.3,44.1,30.15,East,89,6.3,6.3,19,0.00,,---,0.12,VWS V14.01,2013-06-26 19:59:00,
2013-06-26 16:00:00,93.0,41.8,30.15,East,81,6.3,6.3,17,0.00,,---,0.12,VWS V15.00,2013-06-26 20:00:00,
2013-06-26 16:01:00,93.4,43.6,30.15,ESE,104,5.4,5.4,18,0.00,,---,0.12,VWS V15.00,2013-06-26 20:01:00,
2013-06-26 16:02:00,93.9,42.5,30.15,ESE,119,7.6,7.6,17,0.00,,---,0.12,VWS V15.00,2013-06-26 20:02:00,
2013-06-26 16:03:00,94.1,42.7,30.15,ESE,119,7.6,7.6,17,0.00,,---,0.12,VWS V15.00,2013-06-26 20:03:00,
2013-06-26 16:04:00,94.3,44.3,30.15,SSE,155,6.3,6.3,18,0.00,,---,0.12,VWS V14.01,2013-06-26 20:04:00,
2013-06-26 16:05:00,94.3,44.3,30.15,ESE,119,7.6,7.6,18,0.00,,---,0.12,VWS V15.00,2013-06-26 20:05:00,
2013-06-26 16:06:00,94.5,43.0,30.15,SE,134,5.8,7.6,17,0.00,,---,0.12,VWS V15.00,2013-06-26 20:06:00,
2013-06-26 16:07:00,94.3,42.8,30.18,SE,126,7.6,8.7,17,0.00,,---,0.12,VWS V15.00,2013-06-26 20:07:00,
2013-06-26 16:08:00,94.1,42.7,30.18,SE,126,7.6,7.6,17,0.00,,---,0.12,VWS V15.00,2013-06-26 20:08:00,
2013-06-26 16:09:00,92.7,43.0,30.15,East,84,5.4,5.4,18,0.00,,---,0.12,VWS V14.01,2013-06-26 20:09:00,
2013-06-26 16:10:00,94.3,42.8,30.18,SE,137,4.5,4.5,17,0.00,,---,0.12,VWS V15.00,2013-06-26 20:10:00,
2013-06-26 16:11:00,94.6,43.1,30.18,SE,134,7.6,7.6,17,0.00,,---,0.12,VWS V15.00,2013-06-26 20:11:00,
2013-06-26 16:12:00,95.2,42.0,30.18,South,183,4.9,7.6,16,0.00,,---,0.12,VWS V15.00,2013-06-26 20:12:00,
2013-06-26 16:13:00,95.4,42.1,30.18,South,183,4.9,4.9,16,0.00,,---,0.12,VWS V15.00,2013-06-26 20:13:00,
2013-06-26 16:14:00,93.0,43.3,30.15,ESE,119,4.0,4.0,18,0.00,,---,0.12,VWS V14.01,2013-06-26 20:14:00,
2013-06-26 16:15:00,94.8,44.8,30.18,ENE,76,5.4,5.4,18,0.00,,---,0.12,VWS V15.00,2013-06-26 20:15:00,
2013-06-26 16:16:00,94.3,42.8,30.18,East,88,6.3,6.3,17,0.00,,---,0.12,VWS V15.00,2013-06-26 20:16:00,
2013-06-26 16:17:00,93.4,42.1,30.18,ESE,104,4.9,6.3,17,0.00,,---,0.12,VWS V15.00,2013-06-26 20:17:00,
2013-06-26 16:18:00,93.0,43.3,30.18,East,87,4.9,4.9,18,0.00,,---,0.12,VWS V15.00,2013-06-26 20:18:00,
2013-06-26 16:19:00,92.8,44.6,30.15,ESE,116,5.4,5.4,19,0.00,,---,0.12,VWS V14.01,2013-06-26 20:19:00,
2013-06-26 16:20:00,92.3,42.7,30.18,East,87,4.9,4.9,18,0.00,,---,0.12,VWS V15.00,2013-06-26 20:20:00,
2013-06-26 16:21:00,92.1,42.6,30.18,East,87,4.9,4.9,18,0.00,,---,0.12,VWS V15.00,2013-06-26 20:21:00,
2013-06-26 16:22:00,91.2,44.6,30.18,ESE,112,5.8,6.7,20,0.00,,---,0.12,VWS V15.00,2013-06-26 20:22:00,
2013-06-26 16:23:00,92.1,44.0,30.18,SE,133,5.4,5.8,19,0.00,,---,0.12,VWS V15.00,2013-06-26 20:23:00,
2013-06-26 16:24:00,91.8,45.0,30.15,East,81,4.9,4.9,20,0.00,,---,0.12,VWS V14.01,2013-06-26 20:24:00,
2013-06-26 16:25:00,92.1,42.6,30.18,ESE,111,5.8,5.8,18,0.00,,---,0.12,VWS V15.00,2013-06-26 20:25:00,
2013-06-26 16:26:00,91.9,42.4,30.18,ESE,111,5.8,5.8,18,0.00,,---,0.12,VWS V15.00,2013-06-26 20:26:00,
2013-06-26 16:27:00,91.8,42.3,30.18,ESE,105,4.9,5.8,18,0.00,,---,0.12,VWS V15.00,2013-06-26 20:27:00,
2013-06-26 16:28:00,91.9,42.4,30.18,SSE,163,8.3,8.3,18,0.00,,---,0.12,VWS V15.00,2013-06-26 20:28:00,
2013-06-26 16:29:00,90.7,45.4,30.15,ESE,120,7.6,7.6,21,0.00,,---,0.12,VWS V14.01,2013-06-26 20:29:00,
2013-06-26 16:30:00,91.8,42.3,30.18,East,86,5.4,5.4,18,0.00,,---,0.12,VWS V15.00,2013-06-26 20:30:00,
2013-06-26 16:31:00,91.8,42.3,30.18,ENE,63,3.1,5.4,18,0.00,,---,0.12,VWS V15.00,2013-06-26 20:31:00,
2013-06-26 16:32:00,91.8,43.7,30.18,ENE,63,3.1,3.1,19,0.00,,---,0.12,VWS V15.00,2013-06-26 20:32:00,
2013-06-26 16:33:00,91.9,42.4,30.18,ESE,121,8.3,8.3,18,0.00,,---,0.12,VWS V15.00,2013-06-26 20:33:00,
2013-06-26 16:34:00,92.5,44.3,30.15,SE,139,8.3,8.3,19,0.00,,---,0.12,VWS V14.01,2013-06-26 20:34:00,
2013-06-26 16:35:00,92.3,42.7,30.15,ESE,121,8.3,8.3,18,0.00,,---,0.12,VWS V15.00,2013-06-26 20:35:00,
2013-06-26 16:36:00,92.5,42.9,30.15,ESE,102,8.7,8.7,18,0.00,,---,0.12,VWS V15.00,2013-06-26 20:36:00,
2013-06-26 16:37:00,92.5,42.9,30.15,ESE,102,8.7,8.7,18,0.00,,---,0.12,VWS V15.00,2013-06-26 20:37:00,
2013-06-26 16:38:00,92.8,43.2,30.15,South,180,6.3,8.7,18,0.00,,---,0.12,VWS V15.00,2013-06-26 20:38:00,
2013-06-26 16:39:00,91.2,43.2,30.15,ESE,113,8.7,8.7,19,0.00,,---,0.12,VWS V14.01,2013-06-26 20:39:00,
2013-06-26 16:40:00,93.2,42.0,30.15,SE,138,6.3,6.3,17,0.00,,---,0.12,VWS V15.00,2013-06-26 20:40:00,
2013-06-26 16:41:00,93.4,43.6,30.15,SE,138,6.3,6.3,18,0.00,,---,0.12,VWS V15.00,2013-06-26 20:41:00,
2013-06-26 16:42:00,93.4,42.1,30.15,East,98,8.1,8.1,17,0.00,,---,0.12,VWS V15.00,2013-06-26 20:42:00,
2013-06-26 16:43:00,93.4,42.1,30.15,East,98,8.1,8.1,17,0.00,,---,0.12,VWS V15.00,2013-06-26 20:43:00,
2013-06-26 16:44:00,90.1,43.7,30.15,East,101,5.8,5.8,20,0.00,,---,0.12,VWS V14.01,2013-06-26 20:44:00,
2013-06-26 16:45:00,92.8,43.2,30.15,East,84,5.8,10.5,18,0.00,,---,0.12,VWS V15.00,2013-06-26 20:45:00,
2013-06-26 16:46:00,92.7,43.0,30.15,East,84,5.8,5.8,18,0.00,,---,0.12,VWS V15.00,2013-06-26 20:46:00,
2013-06-26 16:47:00,92.7,43.0,30.15,East,84,5.8,5.8,18,0.00,,---,0.12,VWS V15.00,2013-06-26 20:47:00,
2013-06-26 16:48:00,92.3,42.7,30.15,East,84,5.8,5.8,18,0.00,,---,0.12,VWS V15.00,2013-06-26 20:48:00,
2013-06-26 16:49:00,92.8,44.6,30.15,ESE,116,8.7,8.7,19,0.00,,---,0.12,VWS V15.00,2013-06-26 20:49:00,
2013-06-26 16:50:00,89.4,44.4,30.15,SSE,156,6.3,6.3,21,0.00,,---,0.12,VWS V14.01,2013-06-26 20:50:00,
2013-06-26 16:51:00,93.2,42.0,30.15,NE,44,8.7,8.7,17,0.00,,---,0.12,VWS V15.00,2013-06-26 20:51:00,
2013-06-26 16:52:00,93.0,43.3,30.15,NE,44,8.7,8.7,18,0.00,,---,0.12,VWS V15.00,2013-06-26 20:52:00,
2013-06-26 16:53:00,93.2,42.0,30.15,ENE,77,8.1,8.7,17,0.00,,---,0.12,VWS V15.00,2013-06-26 20:53:00,
2013-06-26 16:54:00,93.4,42.1,30.15,ENE,77,8.1,8.1,17,0.00,,---,0.12,VWS V15.00,2013-06-26 20:54:00,
2013-06-26 16:55:00,88.5,47.2,30.15,ESE,117,6.3,6.3,24,0.00,,---,0.12,VWS V14.01,2013-06-26 20:55:00,
2013-06-26 16:56:00,93.6,42.2,30.15,ENE,77,8.1,8.1,17,0.00,,---,0.12,VWS V15.00,2013-06-26 20:56:00,
2013-06-26 16:57:00,92.8,43.2,30.15,ENE,65,4.0,8.1,18,0.00,,---,0.12,VWS V15.00,2013-06-26 20:57:00,
2013-06-26 16:58:00,93.2,43.4,30.15,East,89,6.3,6.3,18,0.00,,---,0.12,VWS V15.00,2013-06-26 20:58:00,
2013-06-26 16:59:00,93.4,43.6,30.15,SE,128,6.3,6.3,18,0.00,,---,0.12,VWS V15.00,2013-06-26 20:59:00,
2013-06-26 17:00:00,88.3,48.1,30.15,ESE,117,6.3,6.3,25,0.00,,---,0.12,VWS V14.01,2013-06-26 21:00:00,
2013-06-26 17:01:00,93.4,43.6,30.15,ESE,104,5.4,5.4,18,0.00,,---,0.12,VWS V15.00,2013-06-26 21:01:00,
2013-06-26 17:02:00,94.1,42.7,30.15,SSE,155,6.3,6.3,17,0.00,,---,0.12,VWS V15.00,2013-06-26 21:02:00,
2013-06-26 17:03:00,94.3,42.8,30.15,SSE,155,6.3,6.3,17,0.00,,---,0.12,VWS V15.00,2013-06-26 21:03:00,
2013-06-26 17:04:00,94.1,42.7,30.15,SSE,155,6.3,6.3,17,0.00,,---,0.12,VWS V15.00,2013-06-26 21:04:00,
2013-06-26 17:05:00,89.8,49.3,30.15,SE,125,3.6,4.0,25,0.00,,---,0.12,VWS V14.01,2013-06-26 21:05:00,
2013-06-26 17:06:00,93.6,43.7,30.15,ENE,76,3.6,6.3,18,0.00,,---,0.12,VWS V15.00,2013-06-26 21:06:00,
2013-06-26 17:07:00,93.7,42.4,30.15,East,91,5.8,5.8,17,0.00,,---,0.12,VWS V15.00,2013-06-26 21:07:00,
2013-06-26 17:08:00,93.7,42.4,30.15,East,84,5.4,5.8,17,0.00,,---,0.12,VWS V15.00,2013-06-26 21:08:00,
2013-06-26 17:09:00,92.7,43.0,30.15,East,84,5.4,5.4,18,0.00,,---,0.12,VWS V15.00,2013-06-26 21:09:00,
2013-06-26 17:10:00,89.6,46.9,30.15,East,91,4.0,4.0,23,0.00,,---,0.12,VWS V14.01,2013-06-26 21:10:00,
2013-06-26 17:11:00,92.8,43.2,30.15,East,95,5.8,5.8,18,0.00,,---,0.12,VWS V15.00,2013-06-26 21:11:00,
2013-06-26 17:12:00,93.0,43.3,30.15,East,95,5.8,5.8,18,0.00,,---,0.12,VWS V15.00,2013-06-26 21:12:00,
2013-06-26 17:13:00,93.2,43.4,30.15,ESE,119,4.0,6.3,18,0.00,,---,0.12,VWS V15.00,2013-06-26 21:13:00,
2013-06-26 17:14:00,93.0,43.3,30.15,ESE,119,4.0,4.0,18,0.00,,---,0.12,VWS V15.00,2013-06-26 21:14:00,
2013-06-26 17:15:00,89.8,48.2,30.15,East,96,5.8,6.3,24,0.00,,---,0.12,VWS V14.01,2013-06-26 21:15:00,
2013-06-26 17:16:00,93.2,43.4,30.15,ESE,121,6.3,7.2,18,0.00,,---,0.12,VWS V15.00,2013-06-26 21:16:00,
2013-06-26 17:17:00,92.7,44.4,30.15,ESE,116,5.4,6.3,19,0.00,,---,0.12,VWS V15.00,2013-06-26 21:17:00,
2013-06-26 17:18:00,92.8,44.6,30.15,ESE,116,5.4,5.4,19,0.00,,---,0.12,VWS V15.00,2013-06-26 21:18:00,
2013-06-26 17:19:00,92.8,44.6,30.15,ESE,116,5.4,5.4,19,0.00,,---,0.12,VWS V15.00,2013-06-26 21:19:00,
2013-06-26 17:20:00,90.7,47.8,30.15,ESE,105,4.9,4.9,23,0.00,,---,0.12,VWS V14.01,2013-06-26 21:20:00,
2013-06-26 17:21:00,92.7,44.4,30.15,East,91,4.0,8.3,19,0.00,,---,0.12,VWS V15.00,2013-06-26 21:21:00,
2013-06-26 17:22:00,91.6,43.5,30.15,SE,128,8.3,8.3,19,0.00,,---,0.12,VWS V15.00,2013-06-26 21:22:00,
2013-06-26 17:23:00,91.4,44.7,30.15,East,81,4.9,8.3,20,0.00,,---,0.12,VWS V15.00,2013-06-26 21:23:00,
2013-06-26 17:24:00,91.8,45.0,30.15,East,81,4.9,4.9,20,0.00,,---,0.12,VWS V15.00,2013-06-26 21:24:00,
2013-06-26 17:25:00,90.1,48.5,30.15,ENE,73,3.6,5.4,24,0.00,,---,0.12,VWS V14.01,2013-06-26 21:25:00,
2013-06-26 17:26:00,91.0,45.7,30.15,ESE,115,10.5,10.5,21,0.00,,---,0.12,VWS V15.00,2013-06-26 21:26:00,
2013-06-26 17:27:00,90.1,45.0,30.15,ESE,115,10.5,10.5,21,0.00,,---,0.12,VWS V15.00,2013-06-26 21:27:00,
2013-06-26 17:28:00,90.9,46.8,30.15,ESE,120,2.7,10.5,22,0.00,,---,0.12,VWS V15.00,2013-06-26 21:28:00,
2013-06-26 17:29:00,91.2,45.9,30.15,ESE,120,7.6,7.6,21,0.00,,---,0.12,VWS V15.00,2013-06-26 21:29:00,
2013-06-26 17:30:00,88.2,50.0,30.15,ENE,63,6.3,6.3,27,0.00,,---,0.12,VWS V14.01,2013-06-26 21:30:00,
2013-06-26 17:31:00,91.8,45.0,30.15,ESE,120,7.6,7.6,20,0.00,,---,0.12,VWS V15.00,2013-06-26 21:31:00,
2013-06-26 17:32:00,91.8,45.0,30.15,ESE,114,2.2,7.6,20,0.00,,---,0.12,VWS V15.00,2013-06-26 21:32:00,
2013-06-26 17:33:00,92.1,44.0,30.15,ESE,104,5.8,5.8,19,0.00,,---,0.12,VWS V15.00,2013-06-26 21:33:00,
2013-06-26 17:34:00,92.5,44.3,30.15,SE,139,8.3,8.3,19,0.00,,---,0.12,VWS V15.00,2013-06-26 21:34:00,
2013-06-26 17:35:00,92.1,44.0,30.15,ESE,110,4.9,8.3,19,0.00,,---,0.12,VWS V15.00,2013-06-26 21:35:00,
2013-06-26 17:36:00,89.1,50.8,30.15,SE,124,5.4,5.4,27,0.00,,---,0.12,VWS V14.01,2013-06-26 21:36:00,
2013-06-26 17:37:00,91.8,43.7,30.15,ESE,110,4.9,4.9,19,0.00,,---,0.12,VWS V15.00,2013-06-26 21:37:00,
2013-06-26 17:38:00,91.6,43.5,30.15,SE,139,6.3,6.3,19,0.00,,---,0.12,VWS V15.00,2013-06-26 21:38:00,
2013-06-26 17:39:00,91.2,43.2,30.15,ESE,113,8.7,8.7,19,0.00,,---,0.12,VWS V15.00,2013-06-26 21:39:00,
2013-06-26 17:40:00,91.2,43.2,30.15,SSE,151,7.6,8.7,19,0.00,,---,0.12,VWS V15.00,2013-06-26 21:40:00,
2013-06-26 17:41:00,88.2,51.0,30.18,East,81,2.2,2.2,28,0.00,,---,0.12,VWS V14.01,2013-06-26 21:41:00,
2013-06-26 17:42:00,90.7,42.8,30.15,SSE,151,7.6,7.6,19,0.00,,---,0.12,VWS V15.00,2013-06-26 21:42:00,
2013-06-26 17:43:00,90.1,43.7,30.15,ESE,108,3.1,7.6,20,0.00,,---,0.12,VWS V15.00,2013-06-26 21:43:00,
2013-06-26 17:44:00,90.1,43.7,30.15,East,101,5.8,5.8,20,0.00,,---,0.12,VWS V15.00,2013-06-26 21:44:00,
2013-06-26 17:45:00,90.1,43.7,30.15,East,101,5.8,5.8,20,0.00,,---,0.12,VWS V15.00,2013-06-26 21:45:00,
2013-06-26 17:46:00,86.9,50.8,30.18,ENE,61,4.0,4.0,29,0.00,,---,0.12,VWS V14.01,2013-06-26 21:46:00,
2013-06-26 17:47:00,90.0,43.5,30.15,SE,132,10.5,10.5,20,0.00,,---,0.12,VWS V15.00,2013-06-26 21:47:00,
2013-06-26 17:48:00,89.6,45.8,30.15,SE,132,10.5,10.5,22,0.00,,---,0.12,VWS V15.00,2013-06-26 21:48:00,
2013-06-26 17:49:00,89.4,45.6,30.15,SSE,156,6.3,10.5,22,0.00,,---,0.12,VWS V15.00,2013-06-26 21:49:00,
2013-06-26 17:50:00,89.2,44.2,30.15,SE,137,11.0,11.0,21,0.00,,---,0.12,VWS V15.00,2013-06-26 21:50:00,
2013-06-26 17:51:00,86.9,50.8,30.15,NE,51,5.4,7.6,29,0.00,,---,0.12,VWS V14.01,2013-06-26 21:51:00,
2013-06-26 17:52:00,88.9,46.3,30.15,ESE,122,6.3,6.3,23,0.00,,---,0.12,VWS V15.00,2013-06-26 21:52:00,
2013-06-26 17:53:00,88.7,48.4,30.15,ESE,122,6.3,6.3,25,0.00,,---,0.12,VWS V15.00,2013-06-26 21:53:00,
2013-06-26 17:54:00,88.7,48.4,30.15,ESE,117,6.3,6.3,25,0.00,,---,0.12,VWS V15.00,2013-06-26 21:54:00,
2013-06-26 17:55:00,88.3,48.1,30.15,ENE,64,5.8,6.3,25,0.00,,---,0.12,VWS V15.00,2013-06-26 21:55:00,
2013-06-26 17:56:00,85.8,50.8,30.15,East,100,5.4,5.4,30,0.00,,---,0.12,VWS V14.01,2013-06-26 21:56:00,
2013-06-26 17:57:00,88.2,46.9,30.15,East,99,5.4,8.1,24,0.00,,---,0.12,VWS V15.00,2013-06-26 21:57:00,
2013-06-26 17:58:00,88.3,47.0,30.15,East,99,5.4,5.4,24,0.00,,---,0.12,VWS V15.00,2013-06-26 21:58:00,
2013-06-26 17:59:00,88.5,46.0,30.15,East,99,5.4,5.4,23,0.00,,---,0.12,VWS V15.00,2013-06-26 21:59:00,
2013-06-26 18:00:00,85.1,51.1,30.15,NE,55,3.6,3.6,31,0.00,,---,0.12,VWS V15.00,2013-06-26 22:00:00,
2013-06-26 18:01:00,85.1,51.1,30.15,NE,55,3.6,3.6,31,0.00,,---,0.12,VWS V14.01,2013-06-26 22:01:00,
2013-06-26 18:02:00,89.1,46.5,30.15,SE,132,4.0,6.3,23,0.00,,---,0.12,VWS V15.00,2013-06-26 22:02:00,
2013-06-26 18:03:00,89.6,48.1,30.15,SE,132,4.0,4.0,24,0.00,,---,0.12,VWS V15.00,2013-06-26 22:03:00,
2013-06-26 18:04:00,90.0,47.2,30.15,SE,132,4.0,4.0,23,0.00,,---,0.12,VWS V15.00,2013-06-26 22:04:00,
2013-06-26 18:05:00,90.1,47.4,30.15,SE,125,3.6,4.0,23,0.00,,---,0.12,VWS V15.00,2013-06-26 22:05:00,
2013-06-26 18:06:00,85.1,51.1,30.15,East,98,2.7,4.9,31,0.00,,---,0.12,VWS V14.01,2013-06-26 22:06:00,
2013-06-26 18:07:00,90.9,46.8,30.15,East,92,5.8,5.8,22,0.00,,---,0.12,VWS V15.00,2013-06-26 22:07:00,
2013-06-26 18:08:00,90.7,46.7,30.15,ESE,115,5.8,5.8,22,0.00,,---,0.12,VWS V15.00,2013-06-26 22:08:00,
2013-06-26 18:09:00,90.7,46.7,30.15,East,91,4.0,5.8,22,0.00,,---,0.12,VWS V15.00,2013-06-26 22:09:00,
2013-06-26 18:10:00,89.6,46.9,30.15,East,91,4.0,4.0,23,0.00,,---,0.12,VWS V15.00,2013-06-26 22:10:00,
2013-06-26 18:11:00,84.9,50.1,30.15,East,80,5.8,5.8,30,0.00,,---,0.12,VWS V14.01,2013-06-26 22:11:00,
2013-06-26 18:12:00,88.3,50.2,30.15,East,92,7.6,7.6,27,0.00,,---,0.12,VWS V15.00,2013-06-26 22:12:00,
2013-06-26 18:13:00,89.1,49.8,30.15,ESE,119,6.3,7.6,26,0.00,,---,0.12,VWS V15.00,2013-06-26 22:13:00,
2013-06-26 18:14:00,89.4,49.0,30.15,ESE,119,6.3,6.3,25,0.00,,---,0.12,VWS V15.00,2013-06-26 22:14:00,
2013-06-26 18:15:00,89.8,48.2,30.15,East,96,5.8,6.3,24,0.00,,---,0.12,VWS V15.00,2013-06-26 22:15:00,
2013-06-26 18:16:00,84.6,49.8,30.15,SE,130,5.4,5.4,30,0.00,,---,0.12,VWS V14.01,2013-06-26 22:16:00,
2013-06-26 18:17:00,90.0,47.2,30.15,ESE,105,5.8,5.8,23,0.00,,---,0.12,VWS V15.00,2013-06-26 22:17:00,
2013-06-26 18:18:00,90.3,47.5,30.15,SE,124,3.1,5.8,23,0.00,,---,0.12,VWS V15.00,2013-06-26 22:18:00,
2013-06-26 18:19:00,90.7,47.8,30.15,SE,124,3.1,3.1,23,0.00,,---,0.12,VWS V15.00,2013-06-26 22:19:00,
2013-06-26 18:20:00,90.7,47.8,30.15,ESE,105,4.9,4.9,23,0.00,,---,0.12,VWS V15.00,2013-06-26 22:20:00,
2013-06-26 18:21:00,84.4,49.6,30.15,East,87,5.4,5.4,30,0.00,,---,0.12,VWS V14.01,2013-06-26 22:21:00,
2013-06-26 18:22:00,91.9,46.5,30.15,East,86,6.3,6.3,21,0.00,,---,0.12,VWS V15.00,2013-06-26 22:22:00,
2013-06-26 18:23:00,91.4,47.2,30.15,East,86,6.3,6.3,22,0.00,,---,0.12,VWS V15.00,2013-06-26 22:23:00,
2013-06-26 18:24:00,91.0,47.0,30.15,ESE,119,5.4,6.3,22,0.00,,---,0.12,VWS V15.00,2013-06-26 22:24:00,
2013-06-26 18:25:00,90.1,48.5,30.15,ENE,73,3.6,5.4,24,0.00,,---,0.12,VWS V15.00,2013-06-26 22:25:00,
2013-06-26 18:26:00,89.4,50.1,30.15,ENE,73,3.6,3.6,26,0.00,,---,0.12,VWS V15.00,2013-06-26 22:26:00,
2013-06-26 18:27:00,84.6,50.6,30.15,ENE,74,2.2,2.2,31,0.00,,---,0.12,VWS V14.01,2013-06-26 22:27:00,
2013-06-26 18:28:00,89.2,49.9,30.15,ESE,117,5.4,5.4,26,0.00,,---,0.12,VWS V15.00,2013-06-26 22:28:00,
2013-06-26 18:29:00,89.1,51.8,30.15,ENE,63,6.3,6.3,28,0.00,,---,0.12,VWS V15.00,2013-06-26 22:29:00,
2013-06-26 18:30:00,88.2,50.0,30.15,ENE,63,6.3,6.3,27,0.00,,---,0.12,VWS V15.00,2013-06-26 22:30:00,
2013-06-26 18:31:00,88.7,50.5,30.15,ENE,68,4.0,6.3,27,0.00,,---,0.12,VWS V15.00,2013-06-26 22:31:00,
2013-06-26 18:32:00,84.4,50.5,30.15,ENE,69,3.6,3.6,31,0.00,,---,0.12,VWS V14.01,2013-06-26 22:32:00,
2013-06-26 18:33:00,89.1,50.8,30.15,East,100,0.0,0.0,27,0.00,,---,0.12,VWS V15.00,2013-06-26 22:33:00,
2013-06-26 18:34:00,89.1,49.8,30.15,SE,131,4.9,4.9,26,0.00,,---,0.12,VWS V15.00,2013-06-26 22:34:00,
2013-06-26 18:35:00,89.1,50.8,30.15,SE,124,5.4,5.4,27,0.00,,---,0.12,VWS V15.00,2013-06-26 22:35:00,
2013-06-26 18:36:00,88.9,49.6,30.15,SE,124,5.4,5.4,26,0.00,,---,0.12,VWS V15.00,2013-06-26 22:36:00,
2013-06-26 18:37:00,84.2,51.2,30.15,East,80,3.1,5.4,32,0.00,,---,0.12,VWS V14.01,2013-06-26 22:37:00,
2013-06-26 18:38:00,88.3,51.1,30.15,East,100,5.8,5.8,28,0.00,,---,0.12,VWS V15.00,2013-06-26 22:38:00,
2013-06-26 18:39:00,88.2,51.0,30.18,East,81,2.7,5.8,28,0.00,,---,0.12,VWS V15.00,2013-06-26 22:39:00,
2013-06-26 18:40:00,88.2,51.0,30.18,East,81,2.2,2.7,28,0.00,,---,0.12,VWS V15.00,2013-06-26 22:40:00,
2013-06-26 18:41:00,88.2,51.0,30.18,East,81,2.2,2.2,28,0.00,,---,0.12,VWS V15.00,2013-06-26 22:41:00,
2013-06-26 18:42:00,84.0,51.0,30.15,SSE,162,5.8,5.8,32,0.00,,---,0.12,VWS V14.01,2013-06-26 22:42:00,
2013-06-26 18:43:00,87.6,51.5,30.18,East,97,5.8,5.8,29,0.00,,---,0.12,VWS V15.00,2013-06-26 22:43:00,
2013-06-26 18:44:00,87.6,51.5,30.18,ENE,61,4.0,6.3,29,0.00,,---,0.12,VWS V15.00,2013-06-26 22:44:00,
2013-06-26 18:45:00,86.9,50.8,30.18,ENE,61,4.0,4.0,29,0.00,,---,0.12,VWS V15.00,2013-06-26 22:45:00,
2013-06-26 18:46:00,86.9,50.8,30.18,NE,56,5.8,5.8,29,0.00,,---,0.12,VWS V15.00,2013-06-26 22:46:00,
2013-06-26 18:47:00,84.0,51.0,30.15,South,171,4.9,4.9,32,0.00,,---,0.12,VWS V14.01,2013-06-26 22:47:00,
2013-06-26 18:48:00,86.9,50.8,30.15,East,81,5.4,5.8,29,0.00,,---,0.12,VWS V15.00,2013-06-26 22:48:00,
2013-06-26 18:49:00,86.9,50.8,30.15,ESE,109,8.1,8.1,29,0.00,,---,0.12,VWS V15.00,2013-06-26 22:49:00,
2013-06-26 18:50:00,86.9,50.8,30.15,ENE,63,7.6,8.1,29,0.00,,---,0.12,VWS V15.00,2013-06-26 22:50:00,
2013-06-26 18:51:00,85.8,50.8,30.15,East,100,5.4,7.6,30,0.00,,---,0.12,VWS V15.00,2013-06-26 22:51:00,
2013-06-26 18:52:00,84.0,51.0,30.15,SE,138,2.7,2.7,32,0.00,,---,0.12,VWS V14.01,2013-06-26 22:52:00,
2013-06-26 18:53:00,85.8,50.8,30.15,East,100,5.4,5.4,30,0.00,,---,0.12,VWS V15.00,2013-06-26 22:53:00,
2013-06-26 18:54:00,85.8,50.8,30.15,East,100,5.4,5.4,30,0.00,,---,0.12,VWS V15.00,2013-06-26 22:54:00,
2013-06-26 18:55:00,85.8,50.8,30.15,East,100,5.4,5.4,30,0.00,,---,0.12,VWS V15.00,2013-06-26 22:55:00,
2013-06-26 18:56:00,85.8,50.8,30.15,East,100,5.4,5.4,30,0.00,,---,0.12,VWS V15.00,2013-06-26 22:56:00,
2013-06-26 18:57:00,83.7,50.7,30.15,East,96,4.0,4.0,32,0.00,,---,0.12,VWS V14.01,2013-06-26 22:57:00,
2013-06-26 18:58:00,85.1,50.2,30.15,ENE,69,5.4,5.8,30,0.00,,---,0.12,VWS V15.00,2013-06-26 22:58:00,
2013-06-26 18:59:00,85.1,51.1,30.15,East,97,3.6,5.4,31,0.00,,---,0.12,VWS V15.00,2013-06-26 22:59:00,
2013-06-26 19:00:00,85.1,51.1,30.15,NE,55,3.6,3.6,31,0.00,,---,0.12,VWS V15.00,2013-06-26 23:00:00,
2013-06-26 19:01:00,84.9,50.9,30.15,ESE,103,3.1,3.6,31,0.00,,---,0.12,VWS V15.00,2013-06-26 23:01:00,
2013-06-26 19:02:00,83.5,49.7,30.15,ESE,104,2.7,2.7,31,0.00,,---,0.12,VWS V14.01,2013-06-26 23:02:00,
2013-06-26 19:03:00,84.9,50.9,30.15,ESE,102,3.1,3.1,31,0.00,,---,0.12,VWS V15.00,2013-06-26 23:03:00,
2013-06-26 19:04:00,84.9,50.9,30.15,SE,131,3.1,3.6,31,0.00,,---,0.12,VWS V15.00,2013-06-26 23:04:00,
2013-06-26 19:05:00,84.9,50.1,30.15,ESE,122,4.9,4.9,30,0.00,,---,0.12,VWS V15.00,2013-06-26 23:05:00,
2013-06-26 19:06:00,85.1,51.1,30.15,SE,141,3.6,4.9,31,0.00,,---,0.12,VWS V15.00,2013-06-26 23:06:00,
2013-06-26 19:07:00,83.3,50.4,30.15,ESE,115,6.7,6.7,32,0.00,,---,0.12,VWS V14.01,2013-06-26 23:07:00,
2013-06-26 19:08:00,85.1,50.2,30.15,SSE,150,4.0,4.0,30,0.00,,---,0.12,VWS V15.00,2013-06-26 23:08:00,
2013-06-26 19:09:00,85.1,50.2,30.15,SE,127,8.1,8.1,30,0.00,,---,0.12,VWS V15.00,2013-06-26 23:09:00,
2013-06-26 19:10:00,84.9,50.1,30.15,East,100,5.4,8.1,30,0.00,,---,0.12,VWS V15.00,2013-06-26 23:10:00,
2013-06-26 19:11:00,84.9,50.1,30.15,East,80,5.8,5.8,30,0.00,,---,0.12,VWS V15.00,2013-06-26 23:11:00,
2013-06-26 19:12:00,83.1,51.9,30.15,ESE,115,5.4,5.4,34,0.00,,---,0.12,VWS V14.01,2013-06-26 23:12:00,
2013-06-26 19:13:00,84.7,49.9,30.15,ENE,64,3.6,5.8,30,0.00,,---,0.12,VWS V15.00,2013-06-26 23:13:00,
2013-06-26 19:14:00,84.7,49.9,30.15,ENE,64,3.6,3.6,30,0.00,,---,0.12,VWS V15.00,2013-06-26 23:14:00,
2013-06-26 19:15:00,84.7,49.9,30.15,SE,130,5.4,5.4,30,0.00,,---,0.12,VWS V15.00,2013-06-26 23:15:00,
2013-06-26 19:16:00,84.6,49.8,30.15,SE,130,5.4,5.4,30,0.00,,---,0.12,VWS V15.00,2013-06-26 23:16:00,
2013-06-26 19:17:00,82.9,51.7,30.15,ESE,105,3.6,3.6,34,0.00,,---,0.12,VWS V14.01,2013-06-26 23:17:00,
2013-06-26 19:18:00,84.4,50.5,30.15,East,88,5.8,5.8,31,0.00,,---,0.12,VWS V15.00,2013-06-26 23:18:00,
2013-06-26 19:19:00,84.4,50.5,30.15,SE,124,4.9,5.8,31,0.00,,---,0.12,VWS V15.00,2013-06-26 23:19:00,
2013-06-26 19:20:00,84.4,49.6,30.15,East,87,5.4,5.4,30,0.00,,---,0.12,VWS V15.00,2013-06-26 23:20:00,
2013-06-26 19:21:00,84.4,50.5,30.15,East,87,5.4,5.4,31,0.00,,---,0.12,VWS V15.00,2013-06-26 23:21:00,
2013-06-26 19:22:00,82.8,52.3,30.15,SE,139,3.6,3.6,35,0.00,,---,0.12,VWS V14.01,2013-06-26 23:22:00,
2013-06-26 19:23:00,84.4,49.6,30.15,SE,138,5.4,6.7,30,0.00,,---,0.12,VWS V15.00,2013-06-26 23:23:00,
2013-06-26 19:24:00,84.4,49.6,30.15,SE,125,3.6,5.4,30,0.00,,---,0.12,VWS V15.00,2013-06-26 23:24:00,
2013-06-26 19:25:00,84.4,50.5,30.15,SE,125,3.6,3.6,31,0.00,,---,0.12,VWS V15.00,2013-06-26 23:25:00,
2013-06-26 19:26:00,84.6,50.6,30.15,ENE,74,2.2,3.6,31,0.00,,---,0.12,VWS V15.00,2013-06-26 23:26:00,
2013-06-26 19:27:00,82.8,51.6,30.15,ENE,76,6.3,6.3,34,0.00,,---,0.12,VWS V14.01,2013-06-26 23:27:00,
2013-06-26 19:28:00,84.6,50.6,30.15,ENE,74,2.2,2.2,31,0.00,,---,0.12,VWS V15.00,2013-06-26 23:28:00,
2013-06-26 19:29:00,84.6,50.6,30.15,SE,130,4.0,4.0,31,0.00,,---,0.12,VWS V15.00,2013-06-26 23:29:00,
2013-06-26 19:30:00,84.6,51.5,30.15,SE,130,4.0,4.0,32,0.00,,---,0.12,VWS V15.00,2013-06-26 23:30:00,
2013-06-26 19:31:00,84.6,51.5,30.15,ENE,69,3.6,4.0,32,0.00,,---,0.12,VWS V15.00,2013-06-26 23:31:00,
2013-06-26 19:32:00,82.9,54.0,30.15,East,97,3.6,3.6,37,0.00,,---,0.12,VWS V14.01,2013-06-26 23:32:00,
2013-06-26 19:33:00,84.4,50.5,30.15,SE,129,3.6,5.4,31,0.00,,---,0.12,VWS V15.00,2013-06-26 23:33:00,
2013-06-26 19:34:00,84.2,50.3,30.15,SE,129,3.6,3.6,31,0.00,,---,0.12,VWS V15.00,2013-06-26 23:34:00,
2013-06-26 19:35:00,84.2,50.3,30.15,ENE,57,5.4,5.4,31,0.00,,---,0.12,VWS V15.00,2013-06-26 23:35:00,
2013-06-26 19:36:00,84.2,51.2,30.15,ENE,57,5.4,5.4,32,0.00,,---,0.12,VWS V15.00,2013-06-26 23:36:00,
2013-06-26 19:37:00,82.6,50.6,30.15,East,91,3.6,3.6,33,0.00,,---,0.12,VWS V14.01,2013-06-26 23:37:00,
2013-06-26 19:38:00,84.0,50.2,30.15,East,97,5.8,5.8,31,0.00,,---,0.12,VWS V15.00,2013-06-26 23:38:00,
2013-06-26 19:39:00,84.0,51.0,30.15,East,97,5.8,5.8,32,0.00,,---,0.12,VWS V15.00,2013-06-26 23:39:00,
2013-06-26 19:40:00,84.0,51.0,30.15,East,97,5.8,5.8,32,0.00,,---,0.12,VWS V15.00,2013-06-26 23:40:00,
2013-06-26 19:41:00,84.0,51.0,30.15,East,88,3.6,5.8,32,0.00,,---,0.12,VWS V15.00,2013-06-26 23:41:00,
2013-06-26 19:42:00,84.0,51.0,30.15,SSE,162,5.8,5.8,32,0.00,,---,0.12,VWS V15.00,2013-06-26 23:42:00,
2013-06-26 19:43:00,82.2,50.3,30.15,SE,128,2.2,2.2,33,0.00,,---,0.12,VWS V14.01,2013-06-26 23:43:00,
2013-06-26 19:44:00,84.0,51.0,30.15,SSE,162,5.8,5.8,32,0.00,,---,0.12,VWS V15.00,2013-06-26 23:44:00,
2013-06-26 19:45:00,84.0,51.0,30.15,SSE,162,5.8,5.8,32,0.00,,---,0.12,VWS V15.00,2013-06-26 23:45:00,
2013-06-26 19:46:00,84.0,51.0,30.15,South,171,4.9,5.8,32,0.00,,---,0.12,VWS V15.00,2013-06-26 23:46:00,
2013-06-26 19:47:00,84.0,51.0,30.15,South,171,4.9,4.9,32,0.00,,---,0.12,VWS V15.00,2013-06-26 23:47:00,
2013-06-26 19:48:00,81.9,50.0,30.15,SE,133,3.6,3.6,33,0.00,,---,0.12,VWS V14.01,2013-06-26 23:48:00,
2013-06-26 19:49:00,84.0,51.0,30.15,SE,138,2.7,2.7,32,0.00,,---,0.12,VWS V15.00,2013-06-26 23:49:00,
2013-06-26 19:50:00,84.0,51.0,30.15,SE,138,2.7,2.7,32,0.00,,---,0.12,VWS V15.00,2013-06-26 23:50:00,
2013-06-26 19:51:00,84.0,51.0,30.15,SE,138,2.7,2.7,32,0.00,,---,0.12,VWS V15.00,2013-06-26 23:51:00,
2013-06-26 19:52:00,84.0,51.0,30.15,SE,138,2.7,2.7,32,0.00,,---,0.12,VWS V15.00,2013-06-26 23:52:00,
2013-06-26 19:53:00,82.0,50.9,30.15,ESE,110,3.1,4.9,34,0.00,,---,0.12,VWS V14.01,2013-06-26 23:53:00,
2013-06-26 19:54:00,83.7,49.8,30.15,SE,126,7.2,7.2,31,0.00,,---,0.12,VWS V15.00,2013-06-26 23:54:00,
2013-06-26 19:55:00,83.7,49.8,30.15,SE,126,7.2,7.2,31,0.00,,---,0.12,VWS V15.00,2013-06-26 23:55:00,
2013-06-26 19:56:00,83.7,49.8,30.15,ESE,120,4.0,7.2,31,0.00,,---,0.12,VWS V15.00,2013-06-26 23:56:00,
2013-06-26 19:57:00,83.7,50.7,30.15,East,96,4.0,4.0,32,0.00,,---,0.12,VWS V15.00,2013-06-26 23:57:00,
2013-06-26 19:58:00,81.9,49.1,30.15,ESE,112,4.0,4.0,32,0.00,,---,0.12,VWS V14.01,2013-06-26 23:58:00,
2013-06-26 19:59:00,83.7,49.8,30.15,East,85,4.9,4.9,31,0.00,,---,0.12,VWS V15.00,2013-06-26 23:59:00,
2013-06-26 20:00:00,83.5,48.8,30.15,South,178,3.1,4.9,30,0.00,,---,0.12,VWS V15.00,2013-06-27 00:00:00,
2013-06-26 20:01:00,83.5,50.5,30.15,ESE,104,2.7,3.1,32,0.00,,---,0.12,VWS V15.00,2013-06-27 00:01:00,
2013-06-26 20:02:00,83.5,49.7,30.15,ESE,104,2.7,2.7,31,0.00,,---,0.12,VWS V15.00,2013-06-27 00:02:00,
2013-06-26 20:03:00,81.9,50.8,30.15,SE,141,2.2,3.6,34,0.00,,---,0.12,VWS V14.01,2013-06-27 00:03:00,
2013-06-26 20:04:00,83.5,50.5,30.15,SE,128,2.7,3.1,32,0.00,,---,0.12,VWS V15.00,2013-06-27 00:04:00,
2013-06-26 20:05:00,83.3,49.5,30.15,ESE,115,6.7,6.7,31,0.00,,---,0.12,VWS V15.00,2013-06-27 00:05:00,
2013-06-26 20:06:00,83.3,49.5,30.15,ESE,115,6.7,6.7,31,0.00,,---,0.12,VWS V15.00,2013-06-27 00:06:00,
2013-06-26 20:07:00,83.3,50.4,30.15,ESE,115,6.7,6.7,32,0.00,,---,0.12,VWS V15.00,2013-06-27 00:07:00,
2013-06-26 20:08:00,81.9,50.8,30.15,SE,129,3.6,3.6,34,0.00,,---,0.12,VWS V14.01,2013-06-27 00:08:00,
2013-06-26 20:09:00,83.1,50.2,30.15,ESE,115,5.4,6.7,32,0.00,,---,0.12,VWS V15.00,2013-06-27 00:09:00,
2013-06-26 20:10:00,83.1,51.1,30.15,ESE,115,5.4,5.4,33,0.00,,---,0.12,VWS V15.00,2013-06-27 00:10:00,
2013-06-26 20:11:00,83.1,51.9,30.15,ESE,115,5.4,5.4,34,0.00,,---,0.12,VWS V15.00,2013-06-27 00:11:00,
2013-06-26 20:12:00,83.1,51.9,30.15,ESE,115,5.4,5.4,34,0.00,,---,0.12,VWS V15.00,2013-06-27 00:12:00,
2013-06-26 20:13:00,81.7,51.4,30.15,SE,137,5.4,5.4,35,0.00,,---,0.12,VWS V14.01,2013-06-27 00:13:00,
2013-06-26 20:14:00,82.9,50.9,30.15,ENE,75,5.4,5.4,33,0.00,,---,0.12,VWS V15.00,2013-06-27 00:14:00,
2013-06-26 20:15:00,82.9,51.7,30.15,SE,131,2.7,5.4,34,0.00,,---,0.12,VWS V15.00,2013-06-27 00:15:00,
2013-06-26 20:16:00,82.9,51.7,30.15,ESE,105,3.6,3.6,34,0.00,,---,0.12,VWS V15.00,2013-06-27 00:16:00,
2013-06-26 20:17:00,82.9,51.7,30.15,ENE,58,2.2,3.6,34,0.00,,---,0.12,VWS V15.00,2013-06-27 00:17:00,
2013-06-26 20:18:00,81.7,52.9,30.18,SSE,158,3.6,4.0,37,0.00,,---,0.12,VWS V14.01,2013-06-27 00:18:00,
2013-06-26 20:19:00,82.8,52.3,30.15,SE,140,3.6,3.6,35,0.00,,---,0.12,VWS V15.00,2013-06-27 00:19:00,
2013-06-26 20:20:00,82.8,51.6,30.15,SE,140,3.6,3.6,34,0.00,,---,0.12,VWS V15.00,2013-06-27 00:20:00,
2013-06-26 20:21:00,82.9,52.5,30.15,SE,128,2.7,3.6,35,0.00,,---,0.12,VWS V15.00,2013-06-27 00:21:00,
2013-06-26 20:22:00,82.8,52.3,30.15,SE,139,3.6,3.6,35,0.00,,---,0.12,VWS V15.00,2013-06-27 00:22:00,
2013-06-26 20:23:00,81.7,52.9,30.18,ESE,123,3.1,4.0,37,0.00,,---,0.12,VWS V14.01,2013-06-27 00:23:00,
2013-06-26 20:24:00,82.8,52.3,30.15,SE,139,3.6,3.6,35,0.00,,---,0.12,VWS V15.00,2013-06-27 00:24:00,
2013-06-26 20:25:00,82.8,51.6,30.15,SE,139,3.6,3.6,34,0.00,,---,0.12,VWS V15.00,2013-06-27 00:25:00,
2013-06-26 20:26:00,82.8,51.6,30.15,East,90,5.4,8.1,34,0.00,,---,0.12,VWS V15.00,2013-06-27 00:26:00,
2013-06-26 20:27:00,82.8,51.6,30.15,ENE,76,6.3,6.3,34,0.00,,---,0.12,VWS V15.00,2013-06-27 00:27:00,
2013-06-26 20:28:00,81.5,54.2,30.18,South,182,6.3,6.3,39,0.00,,---,0.12,VWS V14.01,2013-06-27 00:28:00,
2013-06-26 20:29:00,82.8,51.6,30.15,East,98,5.8,6.3,34,0.00,,---,0.12,VWS V15.00,2013-06-27 00:29:00,
2013-06-26 20:30:00,82.8,51.6,30.15,East,98,5.8,5.8,34,0.00,,---,0.12,VWS V15.00,2013-06-27 00:30:00,
2013-06-26 20:31:00,82.8,51.6,30.15,East,97,3.6,5.8,34,0.00,,---,0.12,VWS V15.00,2013-06-27 00:31:00,
2013-06-26 20:32:00,82.9,54.0,30.15,East,97,3.6,3.6,37,0.00,,---,0.12,VWS V15.00,2013-06-27 00:32:00,
2013-06-26 20:33:00,82.8,52.3,30.15,ENE,71,5.4,5.4,35,0.00,,---,0.12,VWS V15.00,2013-06-27 00:33:00,
2013-06-26 20:34:00,81.5,54.2,30.18,ESE,119,5.4,5.4,39,0.00,,---,0.12,VWS V14.01,2013-06-27 00:34:00,
2013-06-26 20:35:00,82.6,50.6,30.15,ESE,122,7.6,7.6,33,0.00,,---,0.12,VWS V15.00,2013-06-27 00:35:00,
2013-06-26 20:36:00,82.6,51.4,30.15,ESE,122,7.6,7.6,34,0.00,,---,0.12,VWS V15.00,2013-06-27 00:36:00,
2013-06-26 20:37:00,82.6,50.6,30.15,East,91,3.6,7.6,33,0.00,,---,0.12,VWS V15.00,2013-06-27 00:37:00,
2013-06-26 20:38:00,82.4,50.4,30.15,East,99,3.1,3.6,33,0.00,,---,0.12,VWS V15.00,2013-06-27 00:38:00,
2013-06-26 20:39:00,81.5,54.2,30.18,SE,133,4.0,4.5,39,0.00,,---,0.12,VWS V14.01,2013-06-27 00:39:00,
2013-06-26 20:40:00,82.4,49.6,30.15,ESE,107,5.8,5.8,32,0.00,,---,0.12,VWS V15.00,2013-06-27 00:40:00,
2013-06-26 20:41:00,82.4,49.6,30.15,SE,128,2.2,5.8,32,0.00,,---,0.12,VWS V15.00,2013-06-27 00:41:00,
2013-06-26 20:42:00,82.2,50.3,30.15,SE,128,2.2,2.2,33,0.00,,---,0.12,VWS V15.00,2013-06-27 00:42:00,
2013-06-26 20:43:00,82.2,50.3,30.15,SE,128,2.2,2.2,33,0.00,,---,0.12,VWS V15.00,2013-06-27 00:43:00,
2013-06-26 20:44:00,81.3,54.0,30.18,SE,124,4.0,4.5,39,0.00,,---,0.12,VWS V14.01,2013-06-27 00:44:00,
2013-06-26 20:45:00,82.0,50.1,30.15,ESE,105,2.7,2.7,33,0.00,,---,0.12,VWS V15.00,2013-06-27 00:45:00,
2013-06-26 20:46:00,82.0,50.1,30.15,ESE,105,2.7,2.7,33,0.00,,---,0.12,VWS V15.00,2013-06-27 00:46:00,
2013-06-26 20:47:00,82.0,50.1,30.15,ESE,105,2.7,2.7,33,0.00,,---,0.12,VWS V15.00,2013-06-27 00:47:00,
2013-06-26 20:48:00,81.9,50.0,30.15,SE,134,5.4,5.4,33,0.00,,---,0.12,VWS V15.00,2013-06-27 00:48:00,
2013-06-26 20:49:00,81.3,52.6,30.18,SE,131,4.9,5.8,37,0.00,,---,0.12,VWS V14.01,2013-06-27 00:49:00,
2013-06-26 20:50:00,82.0,50.1,30.15,SE,139,4.9,4.9,33,0.00,,---,0.12,VWS V15.00,2013-06-27 00:50:00,
2013-06-26 20:51:00,82.0,50.1,30.15,SE,139,4.9,4.9,33,0.00,,---,0.12,VWS V15.00,2013-06-27 00:51:00,
2013-06-26 20:52:00,82.0,50.9,30.15,SE,139,4.9,4.9,34,0.00,,---,0.12,VWS V15.00,2013-06-27 00:52:00,
2013-06-26 20:53:00,82.0,50.9,30.15,NE,44,4.0,4.9,34,0.00,,---,0.12,VWS V15.00,2013-06-27 00:53:00,
2013-06-26 20:54:00,81.3,51.1,30.18,ESE,121,3.1,5.8,35,0.00,,---,0.12,VWS V14.01,2013-06-27 00:54:00,
2013-06-26 20:55:00,82.0,49.3,30.15,ESE,105,0.0,4.9,32,0.00,,---,0.12,VWS V15.00,2013-06-27 00:55:00,
2013-06-26 20:56:00,82.0,49.3,30.15,ESE,120,3.1,3.6,32,0.00,,---,0.12,VWS V15.00,2013-06-27 00:56:00,
2013-06-26 20:57:00,81.9,49.1,30.15,ESE,123,4.0,4.9,32,0.00,,---,0.12,VWS V15.00,2013-06-27 00:57:00,
2013-06-26 20:58:00,81.9,49.1,30.15,SE,138,4.5,4.5,32,0.00,,---,0.12,VWS V15.00,2013-06-27 00:58:00,
2013-06-26 20:59:00,81.3,51.8,30.18,SSE,162,3.6,3.6,36,0.00,,---,0.12,VWS V14.01,2013-06-27 00:59:00,
2013-06-26 21:00:00,81.9,50.0,30.15,ESE,113,4.0,6.3,33,0.00,,---,0.12,VWS V15.00,2013-06-27 01:00:00,
2013-06-26 21:01:00,81.7,50.6,30.15,SE,144,5.8,5.8,34,0.00,,---,0.12,VWS V15.00,2013-06-27 01:01:00,
2013-06-26 21:02:00,81.9,50.8,30.15,SSE,147,3.6,5.8,34,0.00,,---,0.12,VWS V15.00,2013-06-27 01:02:00,
2013-06-26 21:03:00,81.9,50.8,30.15,SE,141,2.2,3.6,34,0.00,,---,0.12,VWS V15.00,2013-06-27 01:03:00,
2013-06-26 21:04:00,81.3,51.8,30.18,SE,124,3.6,4.9,36,0.00,,---,0.12,VWS V14.01,2013-06-27 01:04:00,
2013-06-26 21:05:00,81.9,50.8,30.15,SE,125,3.1,4.0,34,0.00,,---,0.12,VWS V15.00,2013-06-27 01:05:00,
2013-06-26 21:06:00,81.9,50.8,30.15,SSE,161,3.1,3.1,34,0.00,,---,0.12,VWS V15.00,2013-06-27 01:06:00,
2013-06-26 21:07:00,81.9,50.8,30.15,SE,144,3.1,3.1,34,0.00,,---,0.12,VWS V15.00,2013-06-27 01:07:00,
2013-06-26 21:08:00,81.9,50.8,30.15,SE,130,3.6,3.6,34,0.00,,---,0.12,VWS V15.00,2013-06-27 01:08:00,
2013-06-26 21:09:00,81.1,51.7,30.18,SE,131,2.7,3.1,36,0.00,,---,0.12,VWS V14.01,2013-06-27 01:09:00,
2013-06-26 21:10:00,81.7,51.4,30.15,South,190,2.7,2.7,35,0.00,,---,0.12,VWS V15.00,2013-06-27 01:10:00,
2013-06-26 21:11:00,81.7,51.4,30.15,SE,145,4.0,4.0,35,0.00,,---,0.12,VWS V15.00,2013-06-27 01:11:00,
2013-06-26 21:12:00,81.7,51.4,30.15,SSE,167,3.1,4.0,35,0.00,,---,0.12,VWS V15.00,2013-06-27 01:12:00,
2013-06-26 21:13:00,81.7,51.4,30.15,SSE,151,4.9,5.4,35,0.00,,---,0.12,VWS V15.00,2013-06-27 01:13:00,
2013-06-26 21:14:00,81.0,52.3,30.18,SE,136,5.4,5.8,37,0.00,,---,0.12,VWS V14.01,2013-06-27 01:14:00,
2013-06-26 21:15:00,81.7,52.2,30.15,South,180,4.0,6.3,36,0.00,,---,0.12,VWS V15.00,2013-06-27 01:15:00,
2013-06-26 21:16:00,81.7,52.2,30.15,ESE,119,4.0,4.0,36,0.00,,---,0.12,VWS V15.00,2013-06-27 01:16:00,
2013-06-26 21:17:00,81.7,52.2,30.15,SE,124,4.0,4.0,36,0.00,,---,0.12,VWS V15.00,2013-06-27 01:17:00,
2013-06-26 21:18:00,81.7,52.9,30.18,ESE,113,4.0,4.0,37,0.00,,---,0.12,VWS V15.00,2013-06-27 01:18:00,
2013-06-26 21:19:00,81.0,52.3,30.18,SSE,147,0.0,2.2,37,0.00,,---,0.12,VWS V14.01,2013-06-27 01:19:00,
2013-06-26 21:20:00,81.7,52.9,30.18,SSE,159,5.8,5.8,37,0.00,,---,0.12,VWS V15.00,2013-06-27 01:20:00,
2013-06-26 21:21:00,81.7,52.9,30.18,SE,139,3.6,5.8,37,0.00,,---,0.12,VWS V15.00,2013-06-27 01:21:00,
2013-06-26 21:22:00,81.7,52.9,30.18,SSE,156,4.0,4.0,37,0.00,,---,0.12,VWS V15.00,2013-06-27 01:22:00,
2013-06-26 21:23:00,81.7,52.9,30.18,ESE,123,3.1,4.0,37,0.00,,---,0.12,VWS V15.00,2013-06-27 01:23:00,
2013-06-26 21:24:00,81.0,53.0,30.18,ESE,109,2.2,3.1,38,0.00,,---,0.12,VWS V14.01,2013-06-27 01:24:00,
2013-06-26 21:25:00,81.7,52.9,30.18,ESE,103,3.6,3.6,37,0.00,,---,0.12,VWS V15.00,2013-06-27 01:25:00,
2013-06-26 21:26:00,81.7,52.9,30.18,SE,127,4.0,4.0,37,0.00,,---,0.12,VWS V15.00,2013-06-27 01:26:00,
2013-06-26 21:27:00,81.5,54.2,30.18,ESE,113,4.0,4.0,39,0.00,,---,0.12,VWS V15.00,2013-06-27 01:27:00,
2013-06-26 21:28:00,81.5,54.2,30.18,SSE,151,4.0,6.3,39,0.00,,---,0.12,VWS V15.00,2013-06-27 01:28:00,
2013-06-26 21:29:00,81.0,53.0,30.18,SE,137,2.2,3.1,38,0.00,,---,0.12,VWS V14.01,2013-06-27 01:29:00,
2013-06-26 21:30:00,81.5,54.2,30.18,SE,143,4.0,6.3,39,0.00,,---,0.12,VWS V15.00,2013-06-27 01:30:00,
2013-06-26 21:31:00,81.5,54.2,30.18,ESE,107,7.6,7.6,39,0.00,,---,0.12,VWS V15.00,2013-06-27 01:31:00,
2013-06-26 21:32:00,81.5,54.2,30.18,ESE,123,4.9,7.6,39,0.00,,---,0.12,VWS V15.00,2013-06-27 01:32:00,
2013-06-26 21:33:00,81.5,54.2,30.18,ESE,119,5.4,5.4,39,0.00,,---,0.12,VWS V15.00,2013-06-27 01:33:00,
2013-06-26 21:34:00,80.8,52.8,30.18,SE,139,2.2,2.2,38,0.00,,---,0.12,VWS V14.01,2013-06-27 01:34:00,
2013-06-26 21:35:00,81.5,54.2,30.18,South,172,4.0,5.4,39,0.00,,---,0.12,VWS V15.00,2013-06-27 01:35:00,
2013-06-26 21:36:00,81.5,54.9,30.18,ESE,123,5.4,5.4,40,0.00,,---,0.12,VWS V15.00,2013-06-27 01:36:00,
2013-06-26 21:37:00,81.3,54.0,30.18,SE,127,6.3,6.3,39,0.00,,---,0.12,VWS V15.00,2013-06-27 01:37:00,
2013-06-26 21:38:00,81.3,54.0,30.18,ESE,114,4.5,6.3,39,0.00,,---,0.12,VWS V15.00,2013-06-27 01:38:00,
2013-06-26 21:39:00,81.5,54.2,30.18,ESE,109,5.4,5.4,39,0.00,,---,0.12,VWS V15.00,2013-06-27 01:39:00,
2013-06-26 21:40:00,80.8,52.8,30.18,SE,142,3.1,3.1,38,0.00,,---,0.12,VWS V14.01,2013-06-27 01:40:00,
2013-06-26 21:41:00,81.5,54.2,30.18,SE,142,4.0,4.0,39,0.00,,---,0.12,VWS V15.00,2013-06-27 01:41:00,
2013-06-26 21:42:00,81.5,54.2,30.18,SSE,153,4.0,4.0,39,0.00,,---,0.12,VWS V15.00,2013-06-27 01:42:00,
2013-06-26 21:43:00,81.3,54.0,30.18,SE,129,4.5,6.3,39,0.00,,---,0.12,VWS V15.00,2013-06-27 01:43:00,
2013-06-26 21:44:00,81.3,54.0,30.18,SE,131,2.7,4.5,39,0.00,,---,0.12,VWS V15.00,2013-06-27 01:44:00,
2013-06-26 21:45:00,80.8,52.1,30.18,ESE,122,0.0,0.0,37,0.00,,---,0.12,VWS V14.01,2013-06-27 01:45:00,
2013-06-26 21:46:00,81.3,54.7,30.18,SSE,160,3.6,4.0,40,0.00,,---,0.12,VWS V15.00,2013-06-27 01:46:00,
2013-06-26 21:47:00,81.3,54.0,30.18,SE,134,2.7,4.0,39,0.00,,---,0.12,VWS V15.00,2013-06-27 01:47:00,
2013-06-26 21:48:00,81.3,52.6,30.18,SSE,157,5.8,5.8,37,0.00,,---,0.12,VWS V15.00,2013-06-27 01:48:00,
2013-06-26 21:49:00,81.3,52.6,30.18,ENE,66,3.1,5.8,37,0.00,,---,0.12,VWS V15.00,2013-06-27 01:49:00,
2013-06-26 21:50:00,81.0,51.5,30.18,SSE,151,2.2,2.2,36,0.00,,---,0.12,VWS V14.01,2013-06-27 01:50:00,
2013-06-26 21:51:00,81.1,50.9,30.18,ESE,121,3.6,4.9,35,0.00,,---,0.12,VWS V15.00,2013-06-27 01:51:00,
2013-06-26 21:52:00,81.3,51.1,30.18,ESE,117,4.9,6.3,35,0.00,,---,0.12,VWS V15.00,2013-06-27 01:52:00,
2013-06-26 21:53:00,81.3,51.1,30.18,ESE,119,5.8,5.8,35,0.00,,---,0.12,VWS V15.00,2013-06-27 01:53:00,
2013-06-26 21:54:00,81.3,51.1,30.18,SE,129,7.6,7.6,35,0.00,,---,0.12,VWS V15.00,2013-06-27 01:54:00,
2013-06-26 21:55:00,80.8,51.4,30.18,ESE,111,4.0,4.0,36,0.00,,---,0.12,VWS V14.01,2013-06-27 01:55:00,
2013-06-26 21:56:00,81.3,51.1,30.18,East,95,3.1,3.6,35,0.00,,---,0.12,VWS V15.00,2013-06-27 01:56:00,
2013-06-26 21:57:00,81.3,51.8,30.18,SSW,192,4.0,7.2,36,0.00,,---,0.12,VWS V15.00,2013-06-27 01:57:00,
2013-06-26 21:58:00,81.3,51.8,30.18,SE,132,3.1,4.0,36,0.00,,---,0.12,VWS V15.00,2013-06-27 01:58:00,
2013-06-26 21:59:00,81.3,51.8,30.18,SE,139,3.6,3.6,36,0.00,,---,0.12,VWS V15.00,2013-06-27 01:59:00,
2013-06-26 22:00:00,80.8,52.1,30.18,ESE,115,2.7,4.9,37,0.00,,---,0.12,VWS V14.01,2013-06-27 02:00:00,
2013-06-26 22:01:00,81.3,51.8,30.18,South,171,5.4,5.4,36,0.00,,---,0.12,VWS V15.00,2013-06-27 02:01:00,
2013-06-26 22:02:00,81.3,51.8,30.18,SE,146,2.7,6.3,36,0.00,,---,0.12,VWS V15.00,2013-06-27 02:02:00,
2013-06-26 22:03:00,81.3,51.8,30.18,SE,130,4.0,4.0,36,0.00,,---,0.12,VWS V15.00,2013-06-27 02:03:00,
2013-06-26 22:04:00,81.3,51.8,30.18,SE,124,3.6,4.9,36,0.00,,---,0.12,VWS V15.00,2013-06-27 02:04:00,
2013-06-26 22:05:00,81.0,52.3,30.18,SSE,165,2.7,3.1,37,0.00,,---,0.12,VWS V14.01,2013-06-27 02:05:00,
2013-06-26 22:06:00,81.1,51.7,30.18,SSE,158,3.6,5.8,36,0.00,,---,0.12,VWS V15.00,2013-06-27 02:06:00,
2013-06-26 22:07:00,81.1,51.7,30.18,SE,138,3.6,5.4,36,0.00,,---,0.12,VWS V15.00,2013-06-27 02:07:00,
2013-06-26 22:08:00,81.1,51.7,30.18,ESE,108,3.1,3.6,36,0.00,,---,0.12,VWS V15.00,2013-06-27 02:08:00,
2013-06-26 22:09:00,81.1,51.7,30.18,SE,131,2.7,3.1,36,0.00,,---,0.12,VWS V15.00,2013-06-27 02:09:00,
2013-06-26 22:10:00,81.0,52.3,30.18,SE,133,3.1,4.0,37,0.00,,---,0.12,VWS V14.01,2013-06-27 02:10:00,
2013-06-26 22:11:00,81.0,51.5,30.18,SSE,151,3.1,4.0,36,0.00,,---,0.12,VWS V15.00,2013-06-27 02:11:00,
2013-06-26 22:12:00,81.0,51.5,30.18,SE,128,3.1,3.1,36,0.00,,---,0.12,VWS V15.00,2013-06-27 02:12:00,
2013-06-26 22:13:00,81.0,52.3,30.18,SE,129,5.8,5.8,37,0.00,,---,0.12,VWS V15.00,2013-06-27 02:13:00,
2013-06-26 22:14:00,81.0,52.3,30.18,SSE,151,5.8,5.8,37,0.00,,---,0.12,VWS V15.00,2013-06-27 02:14:00,
2013-06-26 22:15:00,81.0,53.0,30.18,SE,130,3.1,3.6,38,0.00,,---,0.12,VWS V14.01,2013-06-27 02:15:00,
2013-06-26 22:16:00,81.0,52.3,30.18,SE,139,3.6,3.6,37,0.00,,---,0.12,VWS V15.00,2013-06-27 02:16:00,
2013-06-26 22:17:00,81.0,52.3,30.18,SE,124,4.9,4.9,37,0.00,,---,0.12,VWS V15.00,2013-06-27 02:17:00,
2013-06-26 22:18:00,81.0,52.3,30.18,SSE,159,2.2,4.9,37,0.00,,---,0.12,VWS V15.00,2013-06-27 02:18:00,
2013-06-26 22:19:00,81.0,52.3,30.18,SSE,147,0.0,2.2,37,0.00,,---,0.12,VWS V15.00,2013-06-27 02:19:00,
2013-06-26 22:20:00,80.8,53.5,30.18,South,175,3.1,4.9,39,0.00,,---,0.12,VWS V14.01,2013-06-27 02:20:00,
2013-06-26 22:21:00,81.0,53.0,30.18,SE,127,3.6,4.9,38,0.00,,---,0.12,VWS V15.00,2013-06-27 02:21:00,
2013-06-26 22:22:00,81.0,53.0,30.18,SE,145,3.6,3.6,38,0.00,,---,0.12,VWS V15.00,2013-06-27 02:22:00,
2013-06-26 22:23:00,81.0,53.0,30.18,SE,145,2.7,4.0,38,0.00,,---,0.12,VWS V15.00,2013-06-27 02:23:00,
2013-06-26 22:24:00,81.0,53.0,30.18,ESE,109,2.2,3.1,38,0.00,,---,0.12,VWS V15.00,2013-06-27 02:24:00,
2013-06-26 22:25:00,80.6,53.4,30.18,ESE,111,4.0,4.5,39,0.00,,---,0.12,VWS V14.01,2013-06-27 02:25:00,
2013-06-26 22:26:00,81.0,53.0,30.18,SE,142,3.6,5.4,38,0.00,,---,0.12,VWS V15.00,2013-06-27 02:26:00,
2013-06-26 22:27:00,81.0,53.0,30.18,SE,142,3.6,3.6,38,0.00,,---,0.12,VWS V15.00,2013-06-27 02:27:00,
2013-06-26 22:28:00,81.0,53.0,30.18,SSE,159,3.1,4.0,38,0.00,,---,0.12,VWS V15.00,2013-06-27 02:28:00,
2013-06-26 22:29:00,81.0,53.0,30.18,SE,137,2.2,3.1,38,0.00,,---,0.12,VWS V15.00,2013-06-27 02:29:00,
2013-06-26 22:30:00,80.8,53.5,30.18,SSE,164,0.0,0.0,39,0.00,,---,0.12,VWS V14.01,2013-06-27 02:30:00,
2013-06-26 22:31:00,81.0,53.0,30.18,SE,138,0.0,3.1,38,0.00,,---,0.12,VWS V15.00,2013-06-27 02:31:00,
2013-06-26 22:32:00,81.0,53.0,30.18,SE,139,2.7,2.7,38,0.00,,---,0.12,VWS V15.00,2013-06-27 02:32:00,
2013-06-26 22:33:00,80.8,52.8,30.18,SSE,167,0.0,2.7,38,0.00,,---,0.12,VWS V15.00,2013-06-27 02:33:00,
2013-06-26 22:34:00,80.8,52.8,30.18,SSE,158,0.0,0.0,38,0.00,,---,0.12,VWS V15.00,2013-06-27 02:34:00,
2013-06-26 22:35:00,80.8,52.8,30.18,ESE,116,2.7,3.1,38,0.00,,---,0.12,VWS V15.00,2013-06-27 02:35:00,
2013-06-26 22:36:00,80.8,54.2,30.18,SSE,150,0.0,0.0,40,0.00,,---,0.12,VWS V14.01,2013-06-27 02:36:00,
2013-06-26 22:37:00,80.8,52.8,30.18,ESE,116,0.0,4.0,38,0.00,,---,0.12,VWS V15.00,2013-06-27 02:37:00,
2013-06-26 22:38:00,80.8,52.8,30.18,SE,137,4.5,4.5,38,0.00,,---,0.12,VWS V15.00,2013-06-27 02:38:00,
2013-06-26 22:39:00,80.6,52.7,30.18,ESE,108,3.1,4.5,38,0.00,,---,0.12,VWS V15.00,2013-06-27 02:39:00,
2013-06-26 22:40:00,80.8,52.8,30.18,SE,146,3.1,3.1,38,0.00,,---,0.12,VWS V15.00,2013-06-27 02:40:00,
2013-06-26 22:41:00,80.8,54.2,30.18,SE,136,3.1,3.1,40,0.00,,---,0.12,VWS V14.01,2013-06-27 02:41:00,
2013-06-26 22:42:00,80.8,52.1,30.18,ESE,110,4.9,4.9,37,0.00,,---,0.12,VWS V15.00,2013-06-27 02:42:00,
2013-06-26 22:43:00,80.8,52.1,30.18,SSE,147,2.7,4.9,37,0.00,,---,0.12,VWS V15.00,2013-06-27 02:43:00,
2013-06-26 22:44:00,80.8,52.1,30.18,ESE,122,0.0,3.1,37,0.00,,---,0.12,VWS V15.00,2013-06-27 02:44:00,
2013-06-26 22:45:00,80.8,51.4,30.18,ESE,123,3.6,3.6,36,0.00,,---,0.12,VWS V15.00,2013-06-27 02:45:00,
2013-06-26 22:46:00,80.6,54.1,30.18,East,84,4.0,4.0,40,0.00,,---,0.12,VWS V14.01,2013-06-27 02:46:00,
2013-06-26 22:47:00,81.0,51.5,30.18,ESE,120,4.0,5.4,36,0.00,,---,0.12,VWS V15.00,2013-06-27 02:47:00,
2013-06-26 22:48:00,81.0,50.8,30.18,SE,144,2.2,4.9,35,0.00,,---,0.12,VWS V15.00,2013-06-27 02:48:00,
2013-06-26 22:49:00,81.0,51.5,30.18,SSE,151,2.2,2.2,36,0.00,,---,0.12,VWS V15.00,2013-06-27 02:49:00,
2013-06-26 22:50:00,81.0,51.5,30.18,South,176,5.8,5.8,36,0.00,,---,0.12,VWS V15.00,2013-06-27 02:50:00,
2013-06-26 22:51:00,80.8,54.9,30.18,East,96,4.0,5.4,41,0.00,,---,0.12,VWS V14.01,2013-06-27 02:51:00,
2013-06-26 22:52:00,81.0,50.8,30.18,SSE,166,3.1,5.8,35,0.00,,---,0.12,VWS V15.00,2013-06-27 02:52:00,
2013-06-26 22:53:00,80.8,50.6,30.18,South,175,3.6,3.6,35,0.00,,---,0.12,VWS V15.00,2013-06-27 02:53:00,
2013-06-26 22:54:00,80.8,51.4,30.18,ESE,111,4.0,4.9,36,0.00,,---,0.12,VWS V15.00,2013-06-27 02:54:00,
2013-06-26 22:55:00,80.8,51.4,30.18,SSE,152,3.1,4.0,36,0.00,,---,0.12,VWS V15.00,2013-06-27 02:55:00,
2013-06-26 22:56:00,80.6,54.8,30.18,SE,134,3.1,3.6,41,0.00,,---,0.12,VWS V14.01,2013-06-27 02:56:00,
2013-06-26 22:57:00,80.8,51.4,30.18,ESE,118,4.9,4.9,36,0.00,,---,0.12,VWS V15.00,2013-06-27 02:57:00,
2013-06-26 22:58:00,80.8,51.4,30.18,ESE,114,3.1,4.9,36,0.00,,---,0.12,VWS V15.00,2013-06-27 02:58:00,
2013-06-26 22:59:00,81.0,52.3,30.18,ESE,116,4.9,4.9,37,0.00,,---,0.12,VWS V15.00,2013-06-27 02:59:00,
2013-06-26 23:00:00,80.8,52.1,30.18,ESE,115,2.7,4.9,37,0.00,,---,0.12,VWS V15.00,2013-06-27 03:00:00,
2013-06-26 23:01:00,80.6,55.4,30.18,ESE,119,4.0,4.0,42,0.00,,---,0.12,VWS V14.01,2013-06-27 03:01:00,
2013-06-26 23:02:00,80.8,52.1,30.18,SE,133,4.0,4.0,37,0.00,,---,0.12,VWS V15.00,2013-06-27 03:02:00,
2013-06-26 23:03:00,80.8,52.1,30.18,SE,127,4.9,5.8,37,0.00,,---,0.12,VWS V15.00,2013-06-27 03:03:00,
2013-06-26 23:04:00,81.0,52.3,30.18,ESE,119,3.1,5.4,37,0.00,,---,0.12,VWS V15.00,2013-06-27 03:04:00,
2013-06-26 23:05:00,81.0,52.3,30.18,SSE,161,6.3,6.3,37,0.00,,---,0.12,VWS V15.00,2013-06-27 03:05:00,
2013-06-26 23:06:00,80.4,55.2,30.18,SE,127,5.8,5.8,42,0.00,,---,0.12,VWS V14.01,2013-06-27 03:06:00,
2013-06-26 23:07:00,81.0,52.3,30.18,SSE,168,5.8,5.8,37,0.00,,---,0.12,VWS V15.00,2013-06-27 03:07:00,
2013-06-26 23:08:00,81.0,52.3,30.18,SSE,148,4.0,5.8,37,0.00,,---,0.12,VWS V15.00,2013-06-27 03:08:00,
2013-06-26 23:09:00,81.0,52.3,30.18,SE,130,4.0,4.0,37,0.00,,---,0.12,VWS V15.00,2013-06-27 03:09:00,
2013-06-26 23:10:00,81.0,52.3,30.18,SE,133,3.1,4.0,37,0.00,,---,0.12,VWS V15.00,2013-06-27 03:10:00,
2013-06-26 23:11:00,80.4,55.9,30.18,SSE,148,2.7,4.0,43,0.00,,---,0.12,VWS V14.01,2013-06-27 03:11:00,
2013-06-26 23:12:00,80.8,52.8,30.18,SSE,157,5.4,5.4,38,0.00,,---,0.12,VWS V15.00,2013-06-27 03:12:00,
2013-06-26 23:13:00,80.8,52.8,30.18,SE,138,3.6,5.4,38,0.00,,---,0.12,VWS V15.00,2013-06-27 03:13:00,
2013-06-26 23:14:00,81.0,53.0,30.18,SE,136,3.6,5.4,38,0.00,,---,0.12,VWS V15.00,2013-06-27 03:14:00,
2013-06-26 23:15:00,81.0,53.0,30.18,SE,130,3.1,3.6,38,0.00,,---,0.12,VWS V15.00,2013-06-27 03:15:00,
2013-06-26 23:16:00,80.2,55.7,30.18,SSE,151,3.6,3.6,43,0.00,,---,0.12,VWS V14.01,2013-06-27 03:16:00,
2013-06-26 23:17:00,80.8,52.8,30.18,SE,136,4.0,4.9,38,0.00,,---,0.12,VWS V15.00,2013-06-27 03:17:00,
2013-06-26 23:18:00,80.8,52.8,30.18,ESE,109,2.7,4.0,38,0.00,,---,0.12,VWS V15.00,2013-06-27 03:18:00,
2013-06-26 23:19:00,80.8,53.5,30.18,ESE,120,2.2,2.7,39,0.00,,---,0.12,VWS V15.00,2013-06-27 03:19:00,
2013-06-26 23:20:00,80.8,53.5,30.18,South,175,3.1,4.9,39,0.00,,---,0.12,VWS V15.00,2013-06-27 03:20:00,
2013-06-26 23:21:00,80.2,56.4,30.15,ESE,111,3.1,3.1,44,0.00,,---,0.12,VWS V14.01,2013-06-27 03:21:00,
2013-06-26 23:22:00,80.8,53.5,30.18,SE,129,4.0,4.0,39,0.00,,---,0.12,VWS V15.00,2013-06-27 03:22:00,
2013-06-26 23:23:00,80.8,53.5,30.18,SE,135,3.1,4.0,39,0.00,,---,0.12,VWS V15.00,2013-06-27 03:23:00,
2013-06-26 23:24:00,80.6,53.4,30.18,SE,126,3.1,3.1,39,0.00,,---,0.12,VWS V15.00,2013-06-27 03:24:00,
2013-06-26 23:25:00,80.6,53.4,30.18,ESE,111,4.0,4.5,39,0.00,,---,0.12,VWS V15.00,2013-06-27 03:25:00,
2013-06-26 23:26:00,80.8,53.5,30.18,ESE,111,3.1,5.4,39,0.00,,---,0.12,VWS V15.00,2013-06-27 03:26:00,
2013-06-26 23:27:00,80.2,56.4,30.15,ESE,113,4.9,4.9,44,0.00,,---,0.12,VWS V14.01,2013-06-27 03:27:00,
2013-06-26 23:28:00,80.8,54.2,30.18,SE,133,3.1,5.4,40,0.00,,---,0.12,VWS V15.00,2013-06-27 03:28:00,
2013-06-26 23:29:00,80.8,53.5,30.18,SE,127,4.0,4.0,39,0.00,,---,0.12,VWS V15.00,2013-06-27 03:29:00,
2013-06-26 23:30:00,80.8,53.5,30.18,SSE,164,0.0,4.0,39,0.00,,---,0.12,VWS V15.00,2013-06-27 03:30:00,
2013-06-26 23:31:00,80.8,54.2,30.18,SE,144,4.0,4.0,40,0.00,,---,0.12,VWS V15.00,2013-06-27 03:31:00,
2013-06-26 23:32:00,80.2,56.4,30.15,SE,138,2.7,5.4,44,0.00,,---,0.12,VWS V14.01,2013-06-27 03:32:00,
2013-06-26 23:33:00,80.8,54.2,30.18,ESE,116,3.1,4.0,40,0.00,,---,0.12,VWS V15.00,2013-06-27 03:33:00,
2013-06-26 23:34:00,80.8,54.2,30.18,ESE,119,0.0,3.1,40,0.00,,---,0.12,VWS V15.00,2013-06-27 03:34:00,
2013-06-26 23:35:00,80.8,54.2,30.18,SSE,150,0.0,0.0,40,0.00,,---,0.12,VWS V15.00,2013-06-27 03:35:00,
2013-06-26 23:36:00,80.8,54.2,30.18,SSE,150,0.0,0.0,40,0.00,,---,0.12,VWS V15.00,2013-06-27 03:36:00,
2013-06-26 23:37:00,80.2,56.4,30.18,SE,125,4.0,4.0,44,0.00,,---,0.12,VWS V14.01,2013-06-27 03:37:00,
2013-06-26 23:38:00,80.6,54.1,30.18,SSE,147,2.7,6.3,40,0.00,,---,0.12,VWS V15.00,2013-06-27 03:38:00,
2013-06-26 23:39:00,80.8,54.2,30.18,SE,131,3.1,3.1,40,0.00,,---,0.12,VWS V15.00,2013-06-27 03:39:00,
2013-06-26 23:40:00,80.6,54.1,30.18,ESE,123,2.2,3.6,40,0.00,,---,0.12,VWS V15.00,2013-06-27 03:40:00,
2013-06-26 23:41:00,80.8,54.2,30.18,SE,139,0.0,3.1,40,0.00,,---,0.12,VWS V15.00,2013-06-27 03:41:00,
2013-06-26 23:42:00,80.1,56.8,30.18,ESE,102,3.1,3.1,45,0.00,,---,0.12,VWS V14.01,2013-06-27 03:42:00,
2013-06-26 23:43:00,80.6,54.1,30.18,ESE,110,3.1,3.6,40,0.00,,---,0.12,VWS V15.00,2013-06-27 03:43:00,
2013-06-26 23:44:00,80.6,54.1,30.18,SE,132,3.1,3.1,40,0.00,,---,0.12,VWS V15.00,2013-06-27 03:44:00,
2013-06-26 23:45:00,80.6,54.1,30.18,SE,140,3.6,5.4,40,0.00,,---,0.12,VWS V15.00,2013-06-27 03:45:00,
2013-06-26 23:46:00,80.6,54.1,30.18,SE,143,3.6,4.0,40,0.00,,---,0.12,VWS V15.00,2013-06-27 03:46:00,
2013-06-26 23:47:00,79.9,57.3,30.18,SE,130,3.6,3.6,46,0.00,,---,0.12,VWS V14.01,2013-06-27 03:47:00,
2013-06-26 23:48:00,80.6,54.8,30.18,ESE,113,6.3,6.3,41,0.00,,---,0.12,VWS V15.00,2013-06-27 03:48:00,
2013-06-26 23:49:00,80.6,54.8,30.18,South,169,2.7,6.3,41,0.00,,---,0.12,VWS V15.00,2013-06-27 03:49:00,
2013-06-26 23:50:00,80.6,54.8,30.18,South,170,3.1,4.9,41,0.00,,---,0.12,VWS V15.00,2013-06-27 03:50:00,
2013-06-26 23:51:00,80.8,54.9,30.18,ESE,119,2.7,5.4,41,0.00,,---,0.12,VWS V15.00,2013-06-27 03:51:00,
2013-06-26 23:52:00,79.9,57.3,30.15,ESE,115,0.0,2.7,46,0.00,,---,0.12,VWS V14.01,2013-06-27 03:52:00,
2013-06-26 23:53:00,80.8,54.9,30.18,SE,130,4.9,4.9,41,0.00,,---,0.12,VWS V15.00,2013-06-27 03:53:00,
2013-06-26 23:54:00,80.8,54.9,30.18,ESE,123,4.9,5.4,41,0.00,,---,0.12,VWS V15.00,2013-06-27 03:54:00,
2013-06-26 23:55:00,80.6,54.8,30.18,ESE,102,3.6,4.9,41,0.00,,---,0.12,VWS V15.00,2013-06-27 03:55:00,
2013-06-26 23:56:00,80.6,54.8,30.18,ESE,106,4.0,4.0,41,0.00,,---,0.12,VWS V15.00,2013-06-27 03:56:00,
2013-06-26 23:57:00,79.7,57.1,30.15,SE,130,4.9,4.9,46,0.00,,---,0.12,VWS V14.01,2013-06-27 03:57:00,
2013-06-26 23:58:00,80.6,54.8,30.18,ESE,104,3.1,3.6,41,0.00,,---,0.12,VWS V15.00,2013-06-27 03:58:00,
2013-06-26 23:59:00,80.6,54.8,30.18,ESE,119,3.1,3.6,41,0.00,,---,0.12,VWS V15.00,2013-06-27 03:59:00,